[[{"header":{"parameterUnit":"m.s-1","parameterCategory":1,"la1":31.0,"la2":29.5877,"lo1":-88.7671,"lo2":-86.6584,"dy":0.0162,"dx":0.0185,"nx":115,"ny":88,"refTime":"2024-09-01T06:00:00:Z","depth":0,"parameterNumber":2,"parameterNumberName":"U-component_of_WINDS"},"data":[0.0,0.0,0.0,0.0,0.0,0.0,0.0,0.0,0.0,0.0,0.0,0.0,0.0,0.0,0.0,0.0,0.0,0.0,0.0,0.0,0.0,0.0,0.0,0.0,0.0,0.0,0.0,0.0,0.0,0.0,0.0,0.0,0.0,0.0,0.0,0.0,0.0,0.0,0.0,0.0,0.0,0.0,0.0,0.0,0.0,0.0,0.0,0.0,0.0,0.0,0.0,0.0,0.0,0.0,0.0,0.0,0.0,0.0,0.0,0.0,0.0,0.0,0.0,0.0,0.0,0.0,0.0,0.0,0.0,0.0,0.0,0.0,0.0,0.0,0.0,0.0,0.0,0.0,0.0,0.0,0.0,0.0,0.0,0.0,0.0,0.0,0.0,0.0,0.0,0.0,0.0,0.0,0.0,0.0,0.0,0.0,0.0,0.0,0.0,0.0,0.0,0.0,0.0,0.0,0.0,0.0,0.0,0.0,0.0,0.0,0.0,0.0,0.0,0.0,0.0,0.0,0.0,0.0,0.0,0.0,0.0,0.0,0.0,0.0,0.0,0.0,0.0,0.0,0.0,0.0,0.0,0.0,0.0,0.0,0.0,0.0,0.0,0.0,0.0,0.0,0.0,0.0,0.0,0.0,0.0,0.0,0.0,0.0,0.0,0.0,0.0,0.0,0.0,0.0,0.0,0.0,0.0,0.0,0.0,0.0,0.0,0.0,0.0,0.0,0.0,0.0,0.0,0.0,0.0,0.0,0.0,0.0,0.0,0.0,0.0,0.0,0.0,0.0,0.0,0.0,0.0,0.0,0.0,0.0,0.0,0.0,0.0,0.0,0.0,0.0,0.0,0.0,0.0,0.0,0.0,0.0,0.0,0.0,0.0,0.0,0.0,0.0,0.0,0.0,0.0,0.0,0.0,0.0,0.0,0.0,0.0,0.0,0.0,0.0,0.0,0.0,0.0,0.0,0.0,0.0,0.0,0.0,0.0,0.0,0.0,0.0,0.0,0.0,0.0,0.0,0.0,0.0,0.0,0.0,0.0,0.0,0.0,0.0,0.0,0.0,0.0,0.0,0.0,0.0,0.0,0.0,0.0,0.0,0.0,0.0,0.0,0.0,0.0,0.0,0.0,0.0,0.0,0.0,0.0,0.0,0.0,0.0,0.0,0.0,0.0,0.0,0.0,0.0,0.0,0.0,0.0,0.0,0.0,0.0,0.0,0.0,0.0,0.0,0.0,0.0,0.0,0.0,0.0,0.0,0.0,0.0,0.0,0.0,0.0,0.0,0.0,0.0,0.0,0.0,0.0,0.0,0.0,0.0,0.0,0.0,0.0,0.0,0.0,0.0,0.0,0.0,0.0,0.0,0.0,0.0,0.0,0.0,0.0,0.0,0.0,0.0,0.0,0.0,0.0,0.0,0.0,0.0,0.0,0.0,0.0,0.0,0.0,0.0,0.0,0.0,0.0,0.0,0.0,0.0,0.0,0.0,0.0,0.0,0.0,0.0,0.0,0.0,0.0,0.0,0.0,0.0,0.0,0.0,0.0,0.0,0.0,0.0,0.0,0.0,0.0,0.0,0.0,0.0,0.0,0.0,0.0,0.0,0.0,0.0,0.0,0.0,0.0,0.0,0.0,0.0,0.0,0.0,0.0,0.0,0.0,0.0,0.0,0.0,0.0,0.0,0.0,0.0,0.0,0.0,0.0,0.0,0.0,0.0,0.0,0.0,0.0,0.0,0.0,0.0,0.0,0.0,0.0,0.0,0.0,0.0,0.0,0.0,0.0,0.0,0.0,0.0,0.0,0.0,0.0,0.0,0.0,0.0,0.0,0.0,0.0,0.0,0.0,0.0,0.0,0.0,0.0,0.0,0.0,0.0,0.0,0.0,0.0,0.0,0.0,0.0,0.0,0.0,0.0,0.0,0.0,0.0,0.0,0.0,0.0,0.0,0.0,0.0,0.0,0.0,0.0,0.0,0.0,0.0,0.0,0.0,0.0,0.0,0.0,0.0,0.0,0.0,0.0,0.0,0.0,0.0,0.0,0.0,0.0,0.0,0.0,0.0,0.0,0.0,0.0,0.0,0.0,0.0,0.0,0.0,0.0,0.0,0.0,0.0,0.0,0.0,0.0,0.0,0.0,0.0,0.0,0.0,0.0,0.0,0.0,0.0,0.0,0.0,0.0,0.0,0.0,0.0,0.0,0.0,0.0,0.0,0.0,0.0,0.0,0.0,0.0,0.0,0.0,0.0,0.0,0.0,0.0,0.0,0.0,0.0,0.0,0.0,0.0,0.0,0.0,0.0,0.0,0.0,0.0,0.0,0.0,0.0,0.0,0.0,0.0,0.0,0.0,0.0,0.0,0.0,0.0,0.0,0.0,0.0,0.0,0.0,0.0,0.0,0.0,0.0,0.0,0.0,0.0,0.0,0.0,0.0,0.0,0.0,0.0,0.0,0.0,0.0,0.0,0.0,0.0,0.0,0.0,0.0,0.0,0.0,0.0,0.0,0.0,0.0,0.0,0.0,0.0,0.0,0.0,0.0,0.0,0.0,0.0,0.0,0.0,0.0,0.0,0.0,0.0,0.0,0.0,0.0,0.0,0.0,0.0,0.0,0.0,0.0,0.0,0.0,0.0,0.0,0.0,0.0,0.0,0.0,0.0,0.0,0.0,0.0,0.0,0.0,0.0,0.0,0.0,0.0,0.0,0.0,0.0,0.0,0.0,0.0,0.0,0.0,0.0,0.0,0.0,0.0,0.0,0.0,0.0,0.0,0.0,0.0,0.0,0.0,0.0,0.0,0.0,0.0,0.0,0.0,0.0,0.0,0.0,0.0,0.0,0.0,0.0,0.0,0.0,0.0,0.0,0.0,0.0,0.0,0.0,0.0,0.0,0.0,0.0,0.0,0.0,0.0,0.0,0.0,0.0,0.0,0.0,0.0,0.0,0.0,0.0,0.0,0.0,0.0,0.0,0.0,0.0,0.0,0.0,0.0,0.0,0.0,0.0,0.0,0.0,0.0,0.0,0.0,0.0,0.0,0.0,0.0,0.0,0.0,0.0,0.0,0.0,0.0,0.0,0.0,0.0,0.0,0.0,0.0,0.0,0.0,0.0,0.0,0.0,0.0,0.0,0.0,0.0,0.0,0.0,0.0,0.0,0.0,0.0,0.0,0.0,0.0,0.0,0.0,0.0,0.0,0.0,0.0,0.0,0.0,0.0,0.0,0.0,0.0,0.0,0.0,0.0,0.0,0.0,0.0,0.0,0.0,0.0,0.0,0.0,0.0,0.0,0.0,0.0,0.0,0.0,0.0,0.0,0.0,0.0,0.0,0.0,0.0,0.0,0.0,0.0,0.0,0.0,0.0,0.0,0.0,0.0,0.0,0.0,0.0,0.0,0.0,0.0,0.0,0.0,0.0,0.0,0.0,0.0,0.0,0.0,0.0,0.0,0.0,0.0,0.0,0.0,0.0,0.0,0.0,0.0,0.0,0.0,0.0,0.0,0.0,0.0,0.0,0.0,0.0,0.0,0.0,0.0,0.0,0.0,0.0,0.0,0.0,0.0,0.0,0.0,0.0,0.0,0.0,0.0,0.0,0.0,0.0,0.0,0.0,0.0,0.0,0.0,0.0,0.0,0.0,0.0,0.0,0.0,0.0,0.0,0.0,0.0,0.0,0.0,0.0,0.0,0.0,0.0,0.0,0.0,0.0,0.0,0.0,0.0,0.0,0.0,0.0,0.0,0.0,0.0,0.0,0.0,0.0,0.0,0.0,0.0,0.0,0.0,0.0,0.0,0.0,0.0,0.0,0.0,0.0,0.0,0.0,0.0,0.0,0.0,0.0,0.0,0.0,0.0,0.0,0.0,0.0,0.0,0.0,0.0,0.0,0.0,0.0,0.0,0.0,0.0,0.0,0.0,0.0,0.0,0.0,0.0,0.0,0.0,0.0,0.0,0.0,0.0,0.0,0.0,0.0,0.0,0.0,0.0,0.0,0.0,0.0,0.0,0.0,0.0,0.0,0.0,0.0,0.0,0.0,0.0,0.0,0.0,0.0,0.0,0.0,0.0,0.0,0.0,0.0,0.0,0.0,0.0,0.0,0.0,0.0,0.0,0.0,0.0,0.0,0.0,0.0,0.0,0.0,0.0,0.0,0.0,0.0,0.0,0.0,0.0,0.0,0.0,0.0,0.0,0.0,0.0,0.0,0.0,0.0,0.0,0.0,0.0,0.0,0.0,0.0,0.0,0.0,0.0,0.0,0.0,0.0,0.0,0.0,-0.4008,0.0,0.0,0.0,0.0,0.0,0.0,0.0,0.0,0.0,0.0,0.0,0.0,0.0,0.0,0.0,0.0,0.0,0.0,0.0,0.0,0.0,0.0,0.0,0.0,0.0,0.0,0.0,0.0,0.0,0.0,0.0,0.0,0.0,0.0,0.0,0.0,0.0,0.0,0.0,0.0,0.0,0.0,0.0,0.0,0.0,0.0,0.0,0.0,0.0,0.0,0.0,0.0,0.0,0.0,0.0,0.0,0.0,0.0,0.0,0.0,0.0,0.0,0.0,0.0,0.0,0.0,0.0,0.0,0.0,0.0,0.0,0.0,0.0,0.0,0.0,0.0,0.0,0.0,0.0,0.0,0.0,0.0,0.0,0.0,0.0,0.0,0.0,0.0,0.0,0.0,0.0,0.0,0.0,0.0,0.0,0.0,0.0,0.0,0.0,0.0,0.0,0.0,0.0,0.0,0.0,0.0,0.0,0.0,0.0,0.0,-0.5764,-0.5058,-0.5058,-0.4714,-0.4033,0.0,0.0,0.0,0.0,0.0,0.0,0.0,0.0,0.0,0.0,0.0,0.0,0.0,0.0,0.0,0.0,0.0,0.0,0.0,0.0,0.0,0.0,0.0,0.0,0.0,0.0,0.0,0.0,0.0,0.0,0.0,0.0,0.0,0.0,0.0,0.0,0.0,0.0,0.0,0.0,0.0,0.0,0.0,0.0,0.0,0.0,0.0,0.0,0.0,0.0,0.0,0.0,0.0,0.0,0.0,0.0,0.0,0.0,0.0,0.0,0.0,0.0,0.0,0.0,0.0,0.0,0.0,0.0,0.0,0.0,0.0,0.0,0.0,0.0,0.0,0.0,0.0,0.0,0.0,0.0,0.0,0.0,0.0,0.0,0.0,0.0,0.0,0.0,0.0,0.0,0.0,0.0,0.0,0.0,0.0,0.0,0.0,0.0,0.0,0.0,0.0,0.0,0.0,0.0,0.0,0.0,0.0,0.0,0.0,0.0,0.0,0.0,-0.5478,-0.4988,-0.4156,0.0,0.0,0.0,0.0,0.0,0.0,0.0,0.0,0.0,0.0,0.0,0.0,0.0,0.0,0.0,0.0,0.0,0.0,0.0,0.0,0.0,0.0,0.0,0.0,0.0,0.0,0.0,0.0,0.0,0.0,0.0,0.0,0.0,0.0,0.0,0.0,0.0,0.0,0.0,0.0,0.0,0.0,0.0,0.0,0.0,0.0,0.0,0.0,0.0,0.0,0.0,0.0,0.0,0.0,0.0,0.0,0.0,0.0,0.0,0.0,0.0,0.0,0.0,0.0,0.0,0.0,0.0,0.0,0.0,0.0,0.0,0.0,0.0,0.0,0.0,0.0,0.0,0.0,0.0,0.0,0.0,0.0,0.0,0.0,0.0,0.0,0.0,0.0,0.0,0.0,0.0,0.0,0.0,0.0,0.0,0.0,0.0,0.0,0.0,0.0,0.0,0.0,0.0,0.0,0.0,0.0,0.0,0.0,0.0,0.0,-0.6495,-0.6317,-0.5434,0.0,-0.4467,0.0,0.0,0.0,0.0,0.0,0.0,0.0,0.0,0.0,0.0,0.0,0.0,0.0,0.0,0.0,0.0,0.0,0.0,0.0,0.0,0.0,0.0,0.0,0.0,0.0,0.0,0.0,0.0,0.0,0.0,0.0,0.0,0.0,0.0,0.0,0.0,0.0,0.0,0.0,0.0,0.0,0.0,0.0,0.0,0.0,0.0,0.0,0.0,0.0,0.0,0.0,0.0,0.0,0.0,0.0,0.0,0.0,0.0,0.0,0.0,0.0,0.0,0.0,0.0,0.0,0.0,0.0,0.0,0.0,0.0,0.0,0.0,0.0,0.0,0.0,0.0,0.0,0.0,0.0,0.0,0.0,0.0,0.0,0.0,0.0,0.0,0.0,0.0,0.0,0.0,0.0,0.0,0.0,0.0,0.0,0.0,0.0,0.0,0.0,0.0,0.0,0.0,0.0,0.0,0.0,0.0,0.0,0.0,0.0,0.0,-0.6653,-0.6169,-0.5203,-0.4621,0.0,0.0,0.0,0.0,0.0,0.0,0.0,0.0,0.0,0.0,0.0,0.0,0.0,0.0,0.0,0.0,0.0,0.0,0.0,0.0,0.0,0.0,0.0,0.0,0.0,0.0,0.0,0.0,0.0,0.0,0.0,0.0,0.0,0.0,0.0,0.0,0.0,0.0,0.0,0.0,0.0,0.0,0.0,0.0,0.0,0.0,0.0,0.0,0.0,0.0,0.0,0.0,0.0,0.0,0.0,0.0,0.0,0.0,0.0,0.0,0.0,0.0,0.0,0.0,0.0,0.0,0.0,0.0,0.0,0.0,0.0,0.0,0.0,0.0,0.0,0.0,0.0,0.0,0.0,0.0,0.0,0.0,0.0,0.0,0.0,0.0,0.0,0.0,0.0,0.0,0.0,0.0,0.0,0.0,0.0,0.0,0.0,0.0,0.0,0.0,0.0,0.0,0.0,0.0,0.0,0.0,0.0,0.0,0.0,0.0,-0.7401,0.0,-0.5777,-0.527,-0.4816,-0.4375,0.0,0.0,0.0,0.0,0.0,0.0,0.0,0.0,0.0,0.0,0.0,0.0,0.0,0.0,0.0,0.0,0.0,0.0,0.0,0.0,0.0,0.0,0.0,0.0,0.0,0.0,0.0,0.0,0.0,0.0,0.0,0.0,0.0,0.0,0.0,0.0,0.0,0.0,0.0,0.0,0.0,0.0,0.0,0.0,0.0,0.0,0.0,0.0,0.0,0.0,0.0,0.0,0.0,0.0,0.0,0.0,0.0,0.0,0.0,0.0,0.0,0.0,0.0,0.0,0.0,0.0,0.0,0.0,0.0,0.0,0.0,0.0,0.0,0.0,0.0,0.0,0.0,0.0,0.0,0.0,0.0,0.0,0.0,0.0,0.0,0.0,0.0,0.0,0.0,0.0,0.0,0.0,0.0,0.0,0.0,0.0,0.0,0.0,0.0,0.0,0.0,0.0,0.0,0.0,0.0,0.0,0.0,0.0,0.0,-0.7571,-0.6467,-0.5251,-0.5915,-0.557,0.0,0.0,0.0,0.0,0.0,0.0,0.0,0.0,0.0,0.0,0.0,0.0,0.0,0.0,0.0,0.0,0.0,0.0,0.0,0.0,0.0,0.0,0.0,0.0,0.0,0.0,0.0,0.0,0.0,0.0,0.0,0.0,0.0,0.0,0.0,0.0,0.0,0.0,0.0,0.0,0.0,0.0,0.0,0.0,0.0,0.0,0.0,0.0,0.0,0.0,0.0,0.0,0.0,0.0,0.0,0.0,0.0,0.0,0.0,0.0,0.0,0.0,0.0,0.0,0.0,0.0,0.0,0.0,0.0,0.0,0.0,0.0,0.0,0.0,0.0,0.0,0.0,0.0,0.0,0.0,0.0,0.0,0.0,0.0,0.0,0.0,0.0,0.0,0.0,0.0,0.0,0.0,0.0,0.0,0.0,0.0,0.0,0.0,0.0,0.0,0.0,0.0,0.0,0.0,0.0,0.0,0.0,0.0,0.0,-0.7728,-0.689,-0.6366,-0.6226,-0.5584,-0.4962,0.0,0.0,0.0,0.0,0.0,0.0,0.0,0.0,0.0,0.0,0.0,0.0,0.0,0.0,0.0,0.0,0.0,0.0,0.0,0.0,0.0,0.0,0.0,0.0,0.0,0.0,0.0,0.0,0.0,0.0,0.0,0.0,0.0,0.0,0.0,0.0,0.0,0.0,0.0,0.0,0.0,0.0,0.0,0.0,0.0,0.0,0.0,0.0,0.0,0.0,0.0,0.0,0.0,0.0,0.0,0.0,0.0,0.0,0.0,0.0,0.0,0.0,0.0,0.0,0.0,0.0,0.0,0.0,0.0,0.0,0.0,0.0,0.0,0.0,0.0,0.0,0.0,0.0,0.0,0.0,0.0,0.0,0.0,0.0,0.0,0.0,0.0,0.0,0.0,0.0,0.0,0.0,0.0,0.0,0.0,0.0,0.0,0.0,0.0,0.0,0.0,0.0,0.0,0.0,0.0,0.0,0.0,0.0,0.0,-0.7709,0.0,-0.745,0.0,-0.6,-0.5153,0.0,0.0,0.0,0.0,0.0,0.0,0.0,0.0,0.0,0.0,0.0,0.0,0.0,0.0,0.0,0.0,0.0,0.0,0.0,0.0,0.0,0.0,0.0,0.0,0.0,0.0,0.0,0.0,0.0,0.0,0.0,0.0,0.0,0.0,0.0,0.0,0.0,0.0,0.0,0.0,0.0,0.0,0.0,0.0,0.0,0.0,0.0,0.0,0.0,0.0,0.0,0.0,0.0,0.0,0.0,0.0,0.0,0.0,0.0,0.0,0.0,0.0,0.0,0.0,0.0,0.0,0.0,0.0,0.0,0.0,0.0,0.0,0.0,0.0,0.0,0.0,0.0,0.0,0.0,0.0,0.0,0.0,0.0,0.0,0.0,0.0,0.0,0.0,0.0,0.0,0.0,0.0,0.0,0.0,0.0,0.0,0.0,0.0,0.0,0.0,0.0,0.0,0.0,0.0,0.0,0.0,0.0,0.0,-0.7936,-0.8634,-1.0288,-0.9712,-0.6894,-0.7298,-0.6356,0.0,0.0,0.0,0.0,0.0,0.0,0.0,0.0,0.0,0.0,0.0,0.0,0.0,0.0,0.0,0.0,0.0,0.0,0.0,0.0,0.0,0.0,0.0,0.0,0.0,0.0,0.0,0.0,0.0,0.0,0.0,0.0,0.0,0.0,0.0,0.0,0.0,0.0,0.0,0.0,0.0,0.0,0.0,0.0,0.0,0.0,0.0,0.0,0.0,0.0,0.0,0.0,0.0,0.0,0.0,0.0,0.0,0.0,0.0,0.0,0.0,0.0,0.0,0.0,0.0,0.0,0.0,0.0,0.0,0.0,0.0,0.0,0.0,0.0,0.0,0.0,0.0,0.0,0.0,0.0,0.0,0.0,0.0,0.0,0.0,0.0,0.0,0.0,0.0,0.0,0.0,0.0,0.0,0.0,0.0,0.0,0.0,0.0,0.0,0.0,0.0,0.0,0.0,0.0,0.0,0.0,0.0,0.0,0.0,-0.9099,-1.0345,-1.0456,-0.9251,-0.755,-0.6362,0.0,0.0,0.0,0.0,0.0,0.0,0.0,0.0,0.0,0.0,0.0,0.0,0.0,0.0,0.0,0.0,0.0,0.0,0.0,0.0,0.0,0.0,0.0,0.0,0.0,0.0,0.0,0.0,0.0,0.0,0.0,0.0,0.0,0.0,0.0,0.0,0.0,0.0,0.0,0.0,0.0,0.0,0.0,0.0,0.0,0.0,0.0,0.0,0.0,0.0,0.0,0.0,0.0,0.0,0.0,0.0,0.0,0.0,0.0,0.0,0.0,0.0,0.0,0.0,0.0,0.0,0.0,0.0,0.0,0.0,0.0,0.0,0.0,0.0,0.0,0.0,0.0,0.0,0.0,0.0,0.0,0.0,0.0,0.0,0.0,0.0,0.0,0.0,0.0,0.0,0.0,0.0,0.0,0.0,0.0,0.0,0.0,0.0,0.0,0.0,0.0,0.0,0.0,0.0,0.0,0.0,0.0,0.0,0.0,-1.0936,-1.2222,-1.2256,-1.073,-0.8559,-0.7078,-0.6298,0.0,0.0,0.0,0.0,0.0,0.0,0.0,0.0,0.0,0.0,0.0,0.0,0.0,0.0,0.0,0.0,0.0,0.0,0.0,0.0,0.0,0.0,0.0,0.0,0.0,0.0,0.0,0.0,0.0,0.0,0.0,0.0,0.0,0.0,0.0,0.0,0.0,0.0,0.0,0.0,0.0,0.0,0.0,0.0,0.0,0.0,0.0,0.0,0.0,0.0,0.0,0.0,0.0,0.0,0.0,0.0,0.0,0.0,0.0,0.0,0.0,0.0,0.0,0.0,0.0,0.0,0.0,0.0,0.0,0.0,0.0,0.0,0.0,0.0,0.0,0.0,0.0,0.0,0.0,0.0,0.0,0.0,0.0,0.0,0.0,0.0,0.0,0.0,0.0,0.0,0.0,0.0,0.0,0.0,0.0,0.0,0.0,0.0,0.0,0.0,0.0,0.0,0.0,0.0,0.0,0.0,0.0,0.0,-1.3535,-1.5591,-1.4984,-1.1564,-1.0164,-0.8397,0.0,0.0,0.0,0.0,0.0,0.0,0.0,0.0,0.0,0.0,0.0,0.0,0.0,0.0,0.0,0.0,0.0,0.0,0.0,0.0,0.0,0.0,0.0,0.0,0.0,0.0,0.0,0.0,0.0,0.0,0.0,0.0,0.0,0.0,0.0,0.0,0.0,0.0,0.0,0.0,0.0,0.0,0.0,0.0,0.0,0.0,0.0,0.0,0.0,0.0,0.0,0.0,0.0,0.0,0.0,0.0,0.0,0.0,0.0,0.0,0.0,0.0,0.0,0.0,0.0,0.0,0.0,0.0,0.0,0.0,0.0,0.0,0.0,0.0,0.0,0.0,0.0,0.0,0.0,0.0,0.0,0.0,0.0,0.0,0.0,0.0,0.0,0.0,0.0,0.0,0.0,0.0,0.0,0.0,0.0,0.0,0.0,0.0,0.0,0.0,0.0,0.0,0.0,0.0,0.0,0.0,0.0,0.0,0.0,-1.4148,-1.7176,-1.7299,-1.4084,-1.1153,-0.9289,0.0,0.0,0.0,0.0,0.0,0.0,0.0,0.0,0.0,0.0,0.0,0.0,0.0,0.0,0.0,0.0,0.0,0.0,0.0,0.0,0.0,0.0,0.0,0.0,0.0,0.0,0.0,0.0,0.0,0.0,0.0,0.0,0.0,0.0,0.0,0.0,0.0,0.0,0.0,0.0,0.0,0.0,0.0,0.0,0.0,0.0,0.0,0.0,0.0,0.0,0.0,0.0,0.0,0.0,0.0,0.0,0.0,0.0,0.0,0.0,0.0,0.0,0.0,0.0,0.0,0.0,0.0,0.0,0.0,0.0,0.0,0.0,0.0,0.0,0.0,0.0,0.0,0.0,0.0,0.0,0.0,0.0,0.0,0.0,0.0,0.0,0.0,0.0,0.0,0.0,0.0,0.0,0.0,0.0,0.0,0.0,0.0,0.0,0.0,0.0,0.0,0.0,0.0,0.0,0.0,0.0,0.0,0.0,-1.5233,-1.5466,-1.8086,-1.8041,-1.506,-1.2099,-1.0177,0.0,0.0,0.0,0.0,0.0,0.0,0.0,0.0,0.0,0.0,0.0,0.0,0.0,0.0,0.0,0.0,0.0,0.0,0.0,0.0,0.0,0.0,0.0,0.0,0.0,0.0,0.0,0.0,0.0,0.0,0.0,0.0,0.0,0.0,0.0,0.0,0.0,0.0,0.0,0.0,0.0,0.0,0.0,0.0,0.0,0.0,0.0,0.0,0.0,0.0,0.0,0.0,0.0,0.0,0.0,0.0,0.0,0.0,0.0,0.0,0.0,0.0,0.0,0.0,0.0,0.0,0.0,0.0,0.0,0.0,0.0,0.0,0.0,0.0,0.0,0.0,0.0,0.0,0.0,0.0,0.0,0.0,0.0,0.0,0.0,0.0,0.0,0.0,0.0,0.0,0.0,0.0,0.0,0.0,0.0,0.0,0.0,0.0,0.0,0.0,0.0,0.0,0.0,0.0,0.0,0.0,0.0,0.0,-1.5615,-1.7051,-1.852,-1.796,-1.5335,-1.2952,-1.0885,0.0,0.0,0.0,0.0,0.0,0.0,0.0,0.0,0.0,0.0,0.0,0.0,0.0,0.0,0.0,0.0,0.0,0.0,0.0,0.0,0.0,0.0,0.0,0.0,0.0,0.0,0.0,0.0,0.0,0.0,0.0,0.0,0.0,0.0,0.0,0.0,0.0,0.0,0.0,0.0,0.0,0.0,0.0,0.0,0.0,0.0,0.0,0.0,0.0,0.0,0.0,0.0,0.0,0.0,0.0,0.0,0.0,0.0,0.0,0.0,0.0,0.0,0.0,0.0,0.0,0.0,0.0,0.0,0.0,0.0,0.0,0.0,0.0,0.0,0.0,0.0,0.0,0.0,0.0,0.0,0.0,0.0,0.0,0.0,0.0,0.0,0.0,0.0,0.0,0.0,0.0,0.0,0.0,0.0,0.0,0.0,0.0,0.0,0.0,0.0,0.0,0.0,0.0,0.0,0.0,0.0,0.0,0.0,-1.5754,-1.6287,-1.8416,-1.8704,-1.7101,-1.345,-1.0616,0.0,0.0,0.0,0.0,0.0,0.0,0.0,0.0,0.0,0.0,0.0,0.0,0.0,0.0,0.0,0.0,0.0,0.0,0.0,0.0,0.0,0.0,0.0,0.0,0.0,0.0,0.0,0.0,0.0,0.0,0.0,0.0,0.0,0.0,0.0,0.0,0.0,0.0,0.0,0.0,0.0,0.0,0.0,0.0,0.0,0.0,0.0,0.0,-0.8273,0.0,0.0,0.0,0.0,0.0,0.0,0.0,0.0,0.0,0.0,0.0,0.0,0.0,0.0,0.0,0.0,0.0,0.0,0.0,0.0,0.0,0.0,0.0,0.0,0.0,0.0,0.0,0.0,0.0,0.0,0.0,0.0,0.0,0.0,0.0,0.0,0.0,0.0,0.0,0.0,0.0,0.0,0.0,0.0,0.0,0.0,0.0,0.0,0.0,0.0,0.0,0.0,0.0,0.0,0.0,0.0,0.0,0.0,0.0,-1.7237,-1.8362,-1.9668,-1.9366,-1.7306,-1.4264,-1.1667,0.0,0.0,0.0,0.0,0.0,0.0,0.0,0.0,0.0,0.0,0.0,0.0,0.0,0.0,0.0,0.0,0.0,0.0,0.0,0.0,0.0,0.0,0.0,0.0,0.0,0.0,0.0,0.0,0.0,0.0,0.0,0.0,0.0,0.0,0.0,0.0,0.0,0.0,0.0,0.0,0.0,0.0,0.0,0.0,0.0,0.0,0.0,0.0,0.0,0.0,0.0,0.0,0.0,0.0,0.0,0.0,0.0,0.0,0.0,0.0,0.0,0.0,0.0,0.0,0.0,0.0,0.0,0.0,0.0,0.0,0.0,0.0,0.0,0.0,0.0,0.0,0.0,0.0,0.0,0.0,0.0,0.0,0.0,0.0,0.0,0.0,0.0,0.0,0.0,0.0,0.0,0.0,0.0,0.0,0.0,0.0,0.0,0.0,0.0,0.0,0.0,0.0,0.0,0.0,0.0,0.0,0.0,-1.6328,-1.846,-2.0773,-2.0855,-1.9664,-1.7259,-1.4971,-1.2871,-1.0975,0.0,0.0,0.0,0.0,0.0,0.0,0.0,0.0,0.0,0.0,0.0,0.0,0.0,0.0,0.0,0.0,0.0,0.0,0.0,0.0,0.0,0.0,0.0,0.0,0.0,0.0,0.0,0.0,0.0,0.0,0.0,0.0,0.0,0.0,0.0,0.0,0.0,0.0,-0.5029,-0.6188,0.0,0.0,0.0,0.0,0.0,0.0,0.0,0.0,-0.9284,0.0,0.0,0.0,0.0,0.0,0.0,0.0,0.0,0.0,0.0,0.0,0.0,0.0,0.0,0.0,0.0,0.0,0.0,0.0,0.0,0.0,0.0,0.0,0.0,0.0,0.0,0.0,0.0,0.0,0.0,0.0,0.0,0.0,0.0,0.0,0.0,0.0,0.0,0.0,0.0,0.0,0.0,0.0,0.0,0.0,0.0,0.0,0.0,0.0,0.0,0.0,0.0,0.0,0.0,0.0,0.0,-1.5465,-1.5471,-1.6965,-2.0007,-1.9356,-1.8723,-1.8192,-1.4929,-1.2345,-1.0684,0.0,0.0,0.0,0.0,0.0,0.0,0.0,0.0,0.0,0.0,0.0,0.0,0.0,0.0,0.0,0.0,0.0,0.0,0.0,0.0,0.0,0.0,0.0,0.0,0.0,0.0,0.0,0.0,0.0,0.0,0.0,0.0,0.0,0.0,0.0,0.0,0.0,0.0,0.0,-0.7038,-0.7329,0.0,0.0,0.0,0.0,0.0,0.0,0.0,0.0,-0.9895,0.0,0.0,0.0,0.0,0.0,0.0,0.0,0.0,0.0,0.0,0.0,0.0,0.0,0.0,0.0,0.0,0.0,0.0,0.0,0.0,0.0,0.0,0.0,0.0,0.0,0.0,0.0,0.0,0.0,0.0,0.0,0.0,0.0,0.0,0.0,0.0,0.0,0.0,0.0,0.0,0.0,0.0,0.0,0.0,0.0,0.0,0.0,0.0,0.0,0.0,0.0,0.0,0.0,0.0,0.0,-1.5732,-1.7009,-1.8716,-2.085,-1.9922,-1.9007,-1.8364,-1.51,-1.2402,0.0,0.0,0.0,0.0,0.0,0.0,0.0,0.0,0.0,0.0,0.0,0.0,0.0,0.0,0.0,0.0,0.0,0.0,0.0,0.0,0.0,0.0,0.0,0.0,0.0,0.0,0.0,0.0,0.0,0.0,0.0,0.0,0.0,0.0,0.0,0.0,0.0,0.0,0.0,0.0,-0.8126,-0.8794,-0.9915,0.0,0.0,0.0,0.0,0.0,0.0,-1.1333,-1.1249,0.0,0.0,0.0,0.0,0.0,0.0,0.0,0.0,0.0,0.0,0.0,0.0,0.0,0.0,0.0,0.0,0.0,0.0,0.0,0.0,0.0,0.0,0.0,0.0,0.0,0.0,0.0,0.0,0.0,0.0,0.0,0.0,0.0,0.0,0.0,0.0,0.0,0.0,0.0,0.0,0.0,0.0,0.0,0.0,0.0,0.0,0.0,0.0,0.0,0.0,0.0,0.0,0.0,0.0,0.0,-1.5965,-1.8486,-2.0457,-2.1762,-2.0622,-1.9412,-1.817,-1.5154,-1.2449,0.0,0.0,0.0,0.0,0.0,0.0,0.0,0.0,0.0,0.0,0.0,0.0,0.0,0.0,0.0,0.0,0.0,0.0,0.0,0.0,0.0,0.0,0.0,0.0,0.0,0.0,0.0,0.0,0.0,0.0,0.0,0.0,0.0,0.0,0.0,0.0,0.0,0.0,0.0,0.0,0.0,-1.0684,-1.1013,-1.2203,0.0,0.0,0.0,0.0,-1.2732,-1.2809,0.0,0.0,0.0,0.0,0.0,0.0,0.0,0.0,0.0,0.0,0.0,0.0,0.0,0.0,0.0,0.0,0.0,0.0,0.0,0.0,0.0,0.0,0.0,0.0,0.0,0.0,0.0,0.0,0.0,0.0,0.0,0.0,0.0,0.0,0.0,0.0,0.0,0.0,0.0,0.0,0.0,0.0,0.0,0.0,0.0,0.0,0.0,0.0,0.0,0.0,0.0,0.0,0.0,0.0,0.0,0.0,-1.5931,-1.7988,-1.9791,-2.1257,-2.0192,-1.8966,-1.7768,-1.4846,-1.2209,0.0,0.0,0.0,0.0,0.0,0.0,0.0,0.0,0.0,0.0,0.0,0.0,0.0,0.0,0.0,0.0,0.0,0.0,0.0,0.0,0.0,0.0,0.0,0.0,0.0,0.0,0.0,0.0,0.0,0.0,0.0,0.0,0.0,0.0,0.0,0.0,0.0,0.0,0.0,0.0,0.0,-1.2806,-1.2591,-1.3609,-1.4182,0.0,0.0,-1.4372,-1.4313,-1.3842,0.0,0.0,0.0,0.0,0.0,0.0,0.0,0.0,0.0,0.0,0.0,0.0,0.0,0.0,0.0,0.0,0.0,0.0,0.0,0.0,0.0,0.0,0.0,0.0,0.0,0.0,0.0,0.0,0.0,0.0,0.0,0.0,0.0,0.0,0.0,0.0,0.0,0.0,0.0,0.0,0.0,0.0,0.0,0.0,0.0,0.0,0.0,0.0,0.0,0.0,0.0,0.0,0.0,0.0,0.0,-1.3983,-1.6865,-1.9336,-2.0776,-2.1148,-2.0765,-1.9208,-1.6455,-1.4503,-1.2267,0.0,0.0,0.0,0.0,0.0,0.0,0.0,0.0,0.0,0.0,0.0,0.0,0.0,0.0,0.0,0.0,0.0,0.0,0.0,0.0,0.0,0.0,0.0,0.0,0.0,0.0,0.0,0.0,0.0,0.0,0.0,0.0,0.0,0.0,0.0,0.0,0.0,0.0,0.0,0.0,0.0,0.0,-1.5269,-1.5678,0.0,0.0,0.0,-1.6581,-1.5557,0.0,0.0,0.0,0.0,0.0,0.0,0.0,0.0,0.0,0.0,0.0,0.0,0.0,0.0,0.0,0.0,0.0,0.0,0.0,0.0,0.0,0.0,0.0,0.0,0.0,0.0,0.0,0.0,0.0,0.0,0.0,0.0,0.0,0.0,0.0,0.0,0.0,0.0,0.0,0.0,0.0,0.0,0.0,0.0,0.0,0.0,0.0,0.0,0.0,0.0,0.0,0.0,0.0,0.0,0.0,0.0,0.0,-1.7596,-2.043,-2.1786,-2.1563,-2.1372,-1.9569,-1.5993,-1.4793,0.0,0.0,0.0,0.0,0.0,0.0,0.0,0.0,0.0,0.0,0.0,0.0,0.0,0.0,0.0,0.0,0.0,0.0,0.0,0.0,0.0,0.0,0.0,0.0,0.0,0.0,0.0,-0.8387,0.0,0.0,0.0,0.0,0.0,0.0,0.0,0.0,0.0,0.0,0.0,0.0,0.0,0.0,-1.5826,-1.7245,-1.7548,-1.8246,0.0,0.0,-1.8461,-1.7358,-1.7838,-1.703,0.0,0.0,0.0,0.0,0.0,0.0,0.0,0.0,0.0,0.0,0.0,0.0,0.0,0.0,0.0,0.0,0.0,0.0,0.0,0.0,0.0,0.0,0.0,0.0,0.0,0.0,0.0,0.0,0.0,0.0,0.0,0.0,0.0,0.0,0.0,0.0,0.0,0.0,0.0,0.0,0.0,0.0,0.0,0.0,0.0,0.0,0.0,0.0,0.0,0.0,0.0,0.0,0.0,0.0,0.0,-1.7581,-2.043,-2.2236,-2.2819,-2.1843,-1.9973,-1.7199,-1.6219,-1.3726,0.0,0.0,0.0,0.0,0.0,0.0,0.0,0.0,0.0,0.0,0.0,0.0,0.0,0.0,0.0,0.0,0.0,0.0,0.0,0.0,0.0,0.0,0.0,0.0,0.0,0.0,0.0,0.0,0.0,0.0,0.0,0.0,0.0,0.0,0.0,0.0,0.0,0.0,0.0,0.0,0.0,-1.888,-1.742,-1.8961,-2.0695,0.0,0.0,-1.9567,-2.028,-2.014,-1.8946,-1.5963,0.0,0.0,0.0,0.0,0.0,0.0,0.0,0.0,0.0,0.0,0.0,0.0,0.0,0.0,0.0,0.0,0.0,0.0,0.0,0.0,0.0,0.0,0.0,0.0,0.0,0.0,0.0,0.0,0.0,0.0,0.0,0.0,0.0,0.0,0.0,0.0,0.0,0.0,0.0,0.0,0.0,0.0,0.0,0.0,0.0,0.0,0.0,0.0,0.0,0.0,0.0,0.0,0.0,-1.6234,-1.9239,-2.1559,-2.3165,-2.391,-2.294,-2.1121,-1.8426,-1.7308,-1.5017,0.0,0.0,0.0,0.0,0.0,0.0,0.0,0.0,0.0,0.0,0.0,0.0,0.0,0.0,0.0,0.0,0.0,0.0,0.0,0.0,0.0,0.0,0.0,0.0,0.0,0.0,0.0,0.0,-1.1932,-1.2242,-1.2331,0.0,0.0,0.0,0.0,0.0,0.0,0.0,0.0,0.0,0.0,-2.0257,-2.1473,-2.1671,0.0,0.0,-2.2754,-2.182,-2.1058,-2.0766,-1.9557,-1.6538,-1.5287,0.0,0.0,0.0,0.0,0.0,0.0,0.0,0.0,0.0,0.0,0.0,0.0,0.0,0.0,0.0,0.0,0.0,0.0,0.0,0.0,0.0,0.0,0.0,0.0,0.0,0.0,0.0,0.0,0.0,0.0,0.0,0.0,0.0,0.0,0.0,0.0,0.0,0.0,0.0,0.0,0.0,0.0,0.0,0.0,0.0,0.0,0.0,0.0,0.0,0.0,0.0,0.0,-1.6788,-1.9771,-2.2114,-2.377,-2.464,-2.3621,-2.1986,-1.9702,-1.8472,-1.6246,0.0,0.0,0.0,0.0,0.0,0.0,0.0,0.0,0.0,0.0,0.0,0.0,0.0,0.0,0.0,0.0,0.0,0.0,0.0,0.0,0.0,0.0,0.0,0.0,0.0,0.0,0.0,0.0,-1.3202,-1.3644,-1.4286,0.0,0.0,0.0,0.0,0.0,0.0,0.0,0.0,0.0,0.0,-2.2545,-2.4127,-2.4161,-2.4405,-2.5327,-2.4689,-2.377,-2.2889,-2.2332,-2.1137,-1.8563,0.0,0.0,0.0,0.0,0.0,0.0,0.0,0.0,0.0,0.0,0.0,0.0,0.0,0.0,0.0,0.0,0.0,0.0,0.0,0.0,0.0,0.0,0.0,0.0,0.0,0.0,0.0,0.0,0.0,0.0,-0.6956,0.0,0.0,0.0,0.0,0.0,0.0,0.0,0.0,0.0,0.0,0.0,0.0,0.0,0.0,0.0,0.0,0.0,0.0,0.0,0.0,0.0,0.0,-1.6426,-1.8665,-2.1759,-2.3782,-2.4745,-2.3671,-2.2389,-2.0916,-1.9668,-1.7359,-1.3722,0.0,0.0,0.0,0.0,0.0,0.0,0.0,0.0,0.0,0.0,0.0,0.0,0.0,0.0,0.0,0.0,0.0,0.0,0.0,0.0,0.0,0.0,0.0,0.0,0.0,0.0,-1.2174,-1.2807,-1.4156,0.0,0.0,0.0,0.0,0.0,0.0,0.0,0.0,0.0,0.0,-2.3968,-2.6283,-2.4585,-2.6298,-2.7706,-2.7862,-2.617,-2.5206,-2.6311,-2.5374,-2.4075,0.0,0.0,0.0,0.0,0.0,0.0,0.0,0.0,0.0,0.0,0.0,0.0,0.0,0.0,0.0,0.0,0.0,0.0,0.0,0.0,0.0,0.0,0.0,0.0,0.0,0.0,0.0,-0.9855,-0.9288,0.0,0.0,0.0,0.0,0.0,0.0,0.0,0.0,0.0,0.0,0.0,-0.9908,-1.0859,0.0,0.0,0.0,0.0,0.0,0.0,0.0,0.0,0.0,0.0,0.0,0.0,-1.7096,-1.9363,-2.2244,-2.4106,-2.4766,-2.3671,-2.2892,-2.2336,-2.0245,-1.7035,-1.2651,0.0,0.0,0.0,0.0,0.0,0.0,0.0,0.0,0.0,0.0,0.0,0.0,0.0,0.0,0.0,0.0,0.0,0.0,0.0,0.0,0.0,0.0,0.0,0.0,0.0,-1.5482,0.0,0.0,0.0,0.0,0.0,0.0,0.0,0.0,0.0,0.0,0.0,-2.3377,-2.4223,-2.5944,-2.6955,-2.6544,-2.7479,-2.841,0.0,0.0,0.0,0.0,0.0,0.0,0.0,0.0,0.0,0.0,0.0,0.0,0.0,0.0,-1.4916,-1.2079,-1.1354,-1.0606,-0.9006,0.0,0.0,0.0,0.0,0.0,0.0,0.0,0.0,0.0,0.0,0.0,0.0,0.0,0.0,-1.2807,0.0,-1.185,0.0,0.0,0.0,0.0,0.0,0.0,0.0,0.0,-1.2075,-1.2547,-1.2337,-1.3261,-1.3236,0.0,-1.2181,-1.0864,0.0,0.0,0.0,0.0,0.0,0.0,0.0,0.0,-1.7592,-1.9367,-2.239,-2.4075,-2.419,-2.3507,-2.3101,-2.3038,-2.0492,-1.7361,-1.373,-1.2355,-1.1134,0.0,0.0,0.0,0.0,0.0,0.0,0.0,0.0,0.0,0.0,0.0,0.0,0.0,0.0,0.0,0.0,0.0,0.0,0.0,0.0,0.0,0.0,0.0,-1.7003,0.0,0.0,0.0,0.0,0.0,0.0,0.0,0.0,0.0,-2.3935,-2.5246,-2.6527,-2.7242,-2.8341,-2.8921,-2.8495,0.0,0.0,0.0,0.0,0.0,0.0,0.0,-2.571,-2.3732,-2.3659,-2.3546,-2.2655,-2.1666,-2.0541,-1.9233,0.0,0.0,-1.4299,-1.3473,-1.2856,-1.1436,-1.0321,-0.9204,-0.7867,-0.7295,-0.6764,0.0,0.0,0.0,0.0,0.0,0.0,0.0,0.0,-1.6145,-1.6738,0.0,-1.5542,0.0,0.0,0.0,0.0,0.0,-1.2997,0.0,0.0,-1.6107,-1.6274,-1.5491,-1.5691,-1.5678,-1.5444,-1.5202,-1.4776,-1.4006,-1.2332,0.0,0.0,0.0,0.0,0.0,0.0,-1.7843,-1.8776,-2.2165,-2.3684,-2.3125,-2.3091,-2.3091,-2.295,-2.0545,-1.8442,-1.6799,-1.4783,-1.3273,-1.2328,-1.0936,0.0,0.0,0.0,0.0,0.0,0.0,0.0,0.0,0.0,0.0,0.0,0.0,0.0,0.0,0.0,0.0,0.0,0.0,0.0,0.0,-1.6911,0.0,0.0,0.0,0.0,0.0,0.0,0.0,0.0,0.0,0.0,-2.5875,-2.7362,-2.8717,-2.8919,0.0,0.0,0.0,0.0,-3.1895,-3.1079,-2.9415,-2.8592,-2.9402,-2.9232,-2.8656,-2.7676,0.0,0.0,-2.4304,-2.295,-2.1653,-1.9631,-2.0187,-1.9679,-1.6306,-1.6119,-1.5789,-1.3635,-1.2641,-1.1932,-1.0797,-0.954,-0.8325,-1.516,0.0,0.0,0.0,0.0,-1.5227,-1.6449,-1.745,-1.8527,-1.8939,-1.8762,-1.8165,0.0,0.0,0.0,0.0,0.0,0.0,-1.6349,-1.6457,-1.7217,-1.723,-1.671,-1.6941,-1.6927,-1.6697,-1.7576,-1.8213,-1.8672,-1.8804,-1.6491,-1.191,0.0,0.0,0.0,0.0,-1.867,-2.0059,-2.2233,-2.3258,-2.3091,-2.3101,-2.2677,-2.1845,-2.1105,-1.9507,-1.7161,-1.6485,-1.5248,-1.334,-1.2452,0.0,0.0,0.0,0.0,0.0,0.0,0.0,0.0,0.0,0.0,0.0,0.0,0.0,0.0,0.0,0.0,0.0,0.0,0.0,-1.814,-1.9218,-2.0373,0.0,0.0,0.0,0.0,0.0,0.0,0.0,0.0,0.0,-3.0442,-3.0168,-3.0298,0.0,0.0,-3.1552,-3.1315,-3.2065,-3.2802,-3.3356,-3.2454,0.0,-3.2007,-3.1605,-3.0421,-2.8065,-2.7531,-2.7071,-2.6234,-2.5457,-2.4757,-2.4078,-2.3436,-2.2237,-2.0224,-1.803,-1.6551,-1.5591,-1.4579,-1.3358,-1.2021,-1.136,-1.069,-1.9464,-1.8093,-1.6906,-1.6336,-1.6474,-1.8578,-1.9973,-2.0873,-2.2031,-2.2429,-2.224,-2.153,-2.027,-1.8608,-1.759,0.0,0.0,0.0,-1.8879,-1.936,-1.8821,-1.8429,-1.8173,-1.8317,-1.831,-1.8231,-1.9532,-2.0651,-2.155,-2.1813,-1.9985,-1.6237,0.0,0.0,-1.5748,-1.8028,-1.9736,-2.0859,-2.2353,-2.3101,-2.3101,-2.3101,-2.2775,-2.2031,-2.1569,-2.0498,-1.8889,-1.834,-1.7382,-1.5871,-1.4568,-1.3395,0.0,0.0,0.0,0.0,0.0,0.0,0.0,0.0,0.0,0.0,0.0,-1.2912,-1.285,0.0,0.0,0.0,-1.8272,-2.0015,-2.0998,-2.2143,0.0,0.0,0.0,0.0,0.0,0.0,0.0,-2.9499,-3.107,-3.229,-3.2664,-3.2461,-3.2665,-3.366,-3.3885,-3.4042,-3.4247,0.0,-3.4496,-3.5089,-3.3982,-3.3121,-3.3097,-3.3176,-3.2543,-3.0685,-2.9635,-2.888,-2.8378,-2.7986,-2.7372,-2.6309,-2.5316,-2.4267,-2.2758,-2.0812,-1.9055,-1.7893,-1.6443,-1.5147,-1.4272,-1.3646,-1.2873,-2.3822,-2.3538,-2.0759,-1.9452,-1.9551,-2.2514,-2.4101,-2.467,-2.5887,-2.6445,-2.6338,-2.5166,-2.3602,-2.1802,-1.9502,0.0,-2.2191,-2.1025,-2.1395,-2.2956,-2.0929,-1.9908,-1.9775,-1.9775,-1.979,-1.9775,-2.1194,-2.2287,-2.2978,-2.2429,-2.2065,-2.1999,-2.123,-1.9832,-1.8043,-1.9726,-2.0908,-2.1396,-2.2496,-2.312,-2.3149,-2.314,-2.313,-2.3091,-2.1994,-2.1328,-2.1203,-2.0048,-1.9302,-1.8982,-1.6828,-1.5568,-1.5547,0.0,0.0,0.0,0.0,0.0,0.0,0.0,0.0,0.0,0.0,0.0,0.0,0.0,0.0,0.0,-2.1547,0.0,-2.4601,-2.5443,0.0,0.0,0.0,-2.8344,-3.0049,-3.1101,-3.1914,-3.25,0.0,0.0,-3.3366,-3.4447,-3.5635,-3.6754,-3.7646,-3.8159,-3.8101,-3.7259,-3.6705,-3.6571,-3.4831,-3.3573,-3.3833,-3.4216,-3.4376,-3.4017,-3.3204,-3.173,-3.0606,-3.0193,-2.9137,-2.7058,-2.6363,-2.5763,-2.4275,-2.3861,-2.3103,-2.03,-1.8545,-1.7366,-1.7067,-1.5838,-1.4718,-2.3822,-2.3836,-2.4244,-2.3636,-2.2474,-2.4006,-2.4763,-2.4987,-2.6267,-2.6865,-2.6836,-2.6533,-2.6131,-2.5663,-2.5063,-2.4977,-2.5342,-2.5291,-2.4678,-2.3534,-2.3281,-2.2486,-2.1245,-2.1194,-2.1194,-2.1296,-2.2567,-2.334,-2.3538,-2.4369,-2.4283,-2.3389,-2.3169,-2.1958,-2.0024,-2.1034,-2.1953,-2.2695,-2.2998,-2.3301,-2.3623,-2.3633,-2.3477,-2.3101,-2.251,-2.18,-2.0842,-1.9425,-1.8586,-1.8409,-1.6846,-1.6015,-1.62,-1.4123,0.0,0.0,0.0,0.0,0.0,0.0,0.0,0.0,0.0,-1.8171,-1.6194,0.0,-2.0596,0.0,-2.4377,-2.6734,-2.7741,-2.8398,0.0,0.0,-2.991,-3.0509,-3.2166,-3.2929,-3.3237,-3.2976,-3.4577,-3.5695,-3.5695,-3.7497,-3.914,-4.0194,-3.8993,-3.8274,-3.8914,-3.8986,-3.8866,-3.8613,-3.7549,-3.6946,-3.6625,-3.5472,-3.4463,-3.4387,-3.3254,-3.218,-3.1876,-3.0979,-3.0057,-2.9357,-2.8445,-2.7267,-2.5873,-2.5544,-2.4931,-2.3095,-2.1563,-2.0129,-1.895,-1.7517,-1.6074,-2.5827,-2.5882,-2.6717,-2.6277,-2.5048,-2.6048,-2.6483,-2.6535,-2.7255,-2.748,-2.7285,-2.71,-2.7012,-2.7012,-2.7012,-2.6894,-2.6689,-2.6914,-2.6333,-2.517,-2.4798,-2.4008,-2.2867,-2.2867,-2.2781,-2.2667,-2.3939,-2.4609,-2.4658,-2.5333,-2.5361,-2.4668,-2.4658,-2.3857,-2.2334,-2.2021,-2.2119,-2.2631,-2.2959,-2.3437,-2.4033,-2.3877,-2.3408,-2.2607,-2.2353,-2.1556,-2.0133,-1.9444,-1.8801,-1.8149,-1.7103,-1.6593,-1.6787,-1.5197,-1.4425,0.0,0.0,0.0,0.0,0.0,0.0,0.0,0.0,0.0,0.0,0.0,-2.3493,-2.4786,-2.7457,-2.9352,-2.9967,-3.0771,-3.1662,-3.2649,-3.2805,-3.3445,-3.509,-3.5542,-3.5604,-3.5316,-3.6368,-3.7188,-3.7233,-3.8759,-4.0019,-4.0378,-3.969,-3.9482,-4.0154,-4.0026,-3.955,-3.9032,-3.8043,-3.7322,-3.7322,-3.62,-3.5271,-3.5223,-3.4642,-3.3946,-3.3342,-3.2644,-3.1949,-3.1265,-3.0566,-2.9838,-2.9044,-2.8876,-2.8549,-2.766,-2.5919,-2.3842,-2.1673,-2.0115,-1.8693,-2.834,-2.8301,-2.8301,-2.7861,-2.7246,-2.7978,-2.8164,-2.7969,-2.7969,-2.7822,-2.7611,-2.7295,-2.7178,-2.7178,-2.7178,-2.7158,-2.71,-2.7158,-2.7119,-2.691,-2.5829,-2.51,-2.4656,-2.4665,-2.4446,-2.413,-2.5253,-2.5742,-2.5684,-2.5684,-2.5635,-2.5528,-2.5518,-2.5079,-2.4228,-2.2783,-2.2041,-2.206,-2.2934,-2.3643,-2.4307,-2.3877,-2.3047,-2.1875,-2.1748,-2.0947,-1.9394,-1.9576,-1.9249,-1.8332,-1.7614,-1.7433,-1.7834,-1.6499,-1.5957,0.0,-1.6129,0.0,0.0,0.0,0.0,0.0,0.0,0.0,0.0,-2.5469,-2.6517,-2.8562,-3.062,-3.1876,-3.2014,-3.2968,-3.4173,-3.552,-3.5771,-3.6398,-3.7801,-3.8002,-3.8002,-3.8002,-3.815,-3.8236,-3.8295,-3.9267,-3.984,-3.9614,-4.0187,-4.0787,-4.1156,-4.0632,-3.9788,-3.8501,-3.7368,-3.6849,-3.6581,-3.6405,-3.631,-3.637,-3.6263,-3.6001,-3.4824,-3.4434,-3.397,-3.2855,-3.2331,-3.2129,-3.228,-3.2224,-3.2258,-3.1876,-3.0162,-2.7858,-2.5006,-2.2911,-2.1919,-2.8603,-2.8301,-2.8301,-2.8203,-2.8066,-2.8223,-2.75,-2.6171,-2.6171,-2.6562,-2.7178,-2.7783,-2.8047,-2.8047,-2.8057,-2.7861,-2.7568,-2.79,-2.7676,-2.7021,-2.7156,-2.6933,-2.6528,-2.6458,-2.6297,-2.5912,-2.616,-2.6084,-2.5693,-2.5684,-2.5323,-2.4678,-2.4668,-2.4192,-2.3364,0.0,0.0,0.0,-2.376,-2.4092,-2.3887,-2.3154,-2.2305,-2.1356,-2.1006,0.0,-1.9365,-1.8845,-1.876,-1.9033,-1.8785,0.0,0.0,0.0,0.0,0.0,0.0,0.0,0.0,0.0,0.0,0.0,-2.7249,-2.7173,-2.7505,-2.9134,-3.072,-3.2051,-3.3332,-3.4462,-3.5387,-3.6065,-3.6533,-3.6847,-3.7274,-3.7676,-3.799,-3.8015,-3.8002,-3.8002,-3.8858,-3.9425,-3.9451,-4.0448,-4.109,-4.083,-4.1215,-4.0991,-4.0206,-4.0727,-4.0788,-3.9697,-3.8419,-3.7402,-3.6534,-3.6465,-3.6417,-3.6417,-3.6417,-3.631,-3.6013,-3.5126,-3.4471,-3.4056,-3.3105,-3.242,-3.2443,-3.2667,-3.3198,-3.242,-3.2616,-3.173,-2.8062,-2.52,-2.3375,-2.8799,0.0,-2.8369,-2.8047,0.0,-2.7656,-2.6934,-2.5752,-2.6641,-2.7236,-2.7676,-2.8105,-2.8301,-2.8271,-2.7851,-2.7549,-2.7334,-2.7129,-2.698,-2.7031,-2.7246,-2.7344,-2.7334,-2.7334,-2.7109,-2.6709,-2.6699,-2.6582,-2.6377,-2.6317,-2.6143,-2.5693,-2.5498,-2.5176,-2.4709,-2.4485,-2.4209,-2.3789,-2.4199,-2.4521,-2.4707,-2.4111,-2.3262,-2.2185,-2.1921,0.0,0.0,0.0,0.0,0.0,0.0,0.0,0.0,0.0,0.0,-2.1838,-2.1641,-2.2572,-2.4924,-2.6055,-2.7904,-3.0913,-3.2068,-3.2014,-3.0683,-3.2579,-3.413,-3.4683,-3.5215,-3.5915,-3.6671,-3.7023,-3.74,-3.7939,-3.8266,-3.853,-3.8781,-3.8831,-3.8843,-3.8881,-3.9371,-3.9756,-3.9756,-4.021,-4.0478,-4.0276,-4.0189,-3.9904,-3.9184,-3.9966,-4.033,-3.9537,-3.8719,-3.7926,-3.7335,-3.6722,-3.6417,-3.6417,-3.6417,-3.6628,-3.7163,-3.6692,-3.6373,-3.6874,-3.6531,-3.6135,-3.6471,-3.6734,-3.6743,-3.6174,-3.5959,-3.5153,-3.235,-2.8999,-2.6217,-2.9053,-2.8887,-2.8545,-2.7949,-2.7246,-2.7246,-2.6846,-2.622,0.0,0.0,0.0,-2.8223,-2.8301,-2.8242,-2.7559,-2.7246,-2.7197,-2.6454,-2.6522,-2.7226,-2.7246,-2.7432,-2.7816,-2.7826,-2.7549,-2.7139,-2.7129,-2.709,-2.7012,-2.7012,-2.7012,-2.6982,-2.667,-2.6465,-2.6367,-2.6035,-2.5411,-2.4687,-2.4492,-2.4766,-2.5411,-2.5,-2.418,-2.3013,-2.2984,-2.2253,-2.0762,-2.1182,-2.1068,-2.0383,-2.1065,-2.1459,-2.131,-2.2317,-2.315,-2.3726,-2.4131,-2.5561,-2.8226,-2.9369,-3.1181,-3.397,-3.555,-3.5638,-3.3828,-3.5361,-3.6417,-3.6417,-3.6493,-3.6744,-3.7149,-3.7387,-3.7852,-3.8831,-3.9007,-3.9195,-3.9609,-3.9697,-3.9647,-3.9697,-3.9698,-3.9685,-3.9698,-3.9737,-3.9418,-3.8852,-3.8703,-3.8324,-3.7853,-3.8617,-3.9423,-3.9203,-3.8601,-3.8076,-3.7944,-3.7254,-3.665,-3.6959,-3.6981,-3.7304,-3.822,-3.857,-3.9002,-3.9844,-4.0148,-4.0123,-4.0725,-4.0762,-4.0927,-4.0341,-3.9534,-3.8517,-3.7059,-3.3868,-3.0832,-2.958,-2.8906,-2.8857,-2.8555,-2.8115,-2.8105,-2.8037,-2.7891,-2.7422,-2.7197,-2.7236,-2.7969,-2.8301,-2.8281,-2.8164,-2.8115,-2.8105,-2.7978,-2.7998,-2.8115,-2.8115,-2.8144,-2.8203,-2.8203,-2.7988,-2.765,-2.763,-2.7383,-2.7051,-2.7021,-2.7012,-2.7021,-2.6953,-2.6748,-2.6406,-2.6328,-2.6055,-2.5499,-2.4795,-2.4473,-2.459,-2.3773,-2.311,-2.2604,-2.2637,-2.2107,-2.1161,-2.1934,-2.2778,-2.3761,-2.4619,-2.5385,-2.609,-2.6539,-2.6613,-2.6045,-2.6328,-2.7912,-3.0903,-3.1311,-3.275,-3.566,-3.626,-3.6254,-3.599,-3.6216,-3.6417,-3.643,-3.682,-3.7098,-3.7236,-3.8027,-3.8693,-3.8932,-3.9295,-3.9609,-3.9697,-3.9697,-3.9697,-3.9697,-3.9697,-3.9697,-3.9697,-3.9581,-3.9,-3.8028,-3.7879,-3.7351,-3.6691,-3.7148,-3.8543,-3.9259,-3.8714,-3.8094,-3.8074,-3.7531,-3.747,-3.8395,-3.8488,-3.886,-4.0096,-4.0275,-4.0605,-4.1415,-4.1232,-4.1174,-4.1688,-4.2076,-4.2205,-4.1838,-4.1961,-4.2052,-4.0938,-3.9364,-3.7283,-2.9961,-2.96,-2.9365,-2.9023,-2.8613,-2.8389,-2.8301,-2.8262,-2.7891,-2.7715,-2.7744,-2.8125,-2.8301,-2.8242,-2.7803,-2.7598,-2.7588,-2.7119,-2.7148,-2.7588,-2.7598,-2.7851,-2.8262,-2.8301,-2.8193,-2.8008,-2.8008,-2.79,-2.7715,-2.7715,-2.7715,-2.7695,-2.748,-2.7148,-2.6758,-2.6728,-2.6641,-2.6416,-2.5528,-2.5089,-2.5127,-2.4699,-2.4756,-2.5228,-2.4614,-2.439,-2.4683,-2.4633,-2.5237,-2.6552,-2.7186,-2.8064,-2.9132,-2.9613,-2.9694,-2.9303,-2.9637,-3.0824,-3.3007,-3.3848,-3.4895,-3.6285,-3.6417,-3.6417,-3.6417,-3.6417,-3.6417,-3.643,-3.6908,-3.7312,-3.76,-3.8379,-3.8981,-3.9295,-3.9559,-3.9697,-3.9697,-3.9697,-3.9697,-3.9633,-3.8973,-3.8804,-3.9633,-3.8307,-3.753,-3.7358,-3.7518,-3.7423,-3.7542,-3.8282,-3.8894,-3.8949,-3.8336,-3.8246,-3.8736,-3.818,-3.7954,-3.8351,-3.8447,-3.9265,-4.0814,-4.1311,-4.1959,-4.3344,-4.3387,-4.356,-4.408,-4.4471,-4.4351,-4.3979,-4.4086,-4.4029,-4.3046,-4.2424,-4.0448,-3.0283,-3.0166,-2.9844,-2.9404,-2.8896,-2.8574,-2.8389,-2.8301,-2.8291,-2.8301,-2.8301,-2.8301,-2.8301,-2.8223,-2.7588,-2.7305,-2.7207,-2.6621,-2.668,-2.7256,-2.7305,-2.7656,-2.8242,-2.8301,-2.8301,-2.8301,-2.8301,-2.8301,-2.8301,-2.8301,-2.8301,-2.8262,-2.7969,-2.7588,-2.7168,-2.7456,-2.7549,-2.741,-2.6784,-2.6397,-2.6259,-2.6669,-2.7335,-2.8031,-2.7363,-2.7376,-2.8237,-2.7492,-2.7667,-2.9014,-2.9454,-3.0122,-3.1199,-3.1912,-3.2177,-3.1915,-3.2118,-3.2944,-3.4325,-3.5655,-3.6417,-3.6417,-3.6417,-3.6417,-3.6417,-3.6417,-3.6417,-3.648,-3.7021,-3.7563,-3.799,-3.8655,-3.9118,-3.9248,-3.953,-3.9517,-3.9297,-3.9478,-3.9697,-3.9581,-3.8687,-3.8518,-3.8973,-3.7713,-3.6823,-3.7412,-3.7518,-3.7914,-3.8582,-3.8921,-3.8856,-3.8423,-3.8078,-3.8515,-3.9534,-3.8883,-3.8451,-3.8475,-3.8708,-3.9773,-4.1349,-4.207,-4.2963,-4.4688,-4.5367,-4.556,-4.6282,-4.6476,-4.6237,-4.5799,-4.578,-4.551,-4.4695,-4.4468,-4.2887,-3.0576,-3.0225,-3.0166,-2.9658,-2.8975,-2.8887,-2.8662,-2.835,-2.8301,-2.8301,-2.832,-2.8301,-2.8301,-2.8291,-2.8184,-2.8135,-2.8135,-2.8086,-2.8066,-2.8125,-2.8174,-2.8223,-2.8291,-2.8301,-2.8301,-2.8301,-2.8301,-2.8301,-2.8301,-2.8301,-2.8301,-2.8291,-2.8252,-2.8018,-2.7803,-2.8799,-2.9182,-2.8815,-2.8721,-2.847,-2.8105,-2.9654,-3.0337,-2.9949,-3.0314,-3.0548,-3.054,-2.9439,-2.9565,-3.1189,-3.1415,-3.1699,-3.2279,-3.3421,-3.3592,-3.2403,-3.2359,-3.2894,-3.4325,-3.5619,-3.6417,-3.6417,-3.6417,-3.6417,-3.6417,-3.6417,-3.6417,-3.6568,-3.7312,-3.7902,-3.8065,-3.8893,-3.9018,-3.8271,-3.8921,-3.9193,-3.8295,-3.8908,-3.9697,-3.9697,-3.9362,-3.953,-3.953,-3.9089,-3.8582,-3.7571,-3.7518,-3.7305,-3.6888,-3.753,-3.8113,-3.8028,-3.8595,-3.9395,-3.9639,-3.9222,-3.917,-3.9949,-4.0425,-4.1074,-4.2137,-4.3378,-4.451,-4.5347,-4.59,-4.6444,-4.689,-4.7219,-4.7146,-4.6901,-4.6931,-4.6975,-4.6931,-4.6785,-4.5171,-3.0791,-3.0615,-3.0605,-3.0254,-2.9678,-2.9414,-2.9199,-2.9033,-2.8769,-2.8662,-2.8623,-2.8398,-2.8301,-2.8301,-2.8301,-2.8301,-2.8301,-2.8301,-2.8301,-2.8301,-2.8301,-2.8301,-2.8301,-2.8301,-2.8301,-2.8301,-2.8301,-2.8301,-2.8301,-2.8301,-2.8301,-2.8301,-2.8301,-2.8203,-2.809,-2.8588,-2.8739,-2.862,-2.9363,-2.953,-2.9021,-2.8747,-2.8898,-2.9375,-2.9651,-3.0198,-3.0871,-3.0716,-3.1314,-3.2748,-3.3136,-3.3746,-3.4679,-3.5259,-3.5355,-3.4788,-3.4751,-3.4957,-3.5523,-3.6108,-3.6417,-3.6417,-3.6417,-3.6417,-3.6417,-3.6417,-3.6417,-3.6543,-3.7362,-3.8002,-3.8028,-3.8267,-3.8465,-3.8635,-3.8635,-3.8465,-3.8856,-3.9297,-3.9697,-3.9645,-3.8908,-3.8804,-3.9362,-3.8908,-3.8243,-3.7571,-3.7518,-3.7412,-3.7767,-3.8425,-3.8739,-3.8856,-3.9349,-3.9633,-3.9672,-3.9534,-3.9652,-4.0056,-4.0767,-4.1661,-4.2773,-4.4121,-4.5324,-4.6226,-4.6606,-4.6892,-4.7189,-4.7294,-4.7309,-4.7309,-4.7339,-4.7399,-4.7803,-4.7893,-4.7242,-3.0986,-3.0898,-3.0898,-3.0625,-3.0185,-2.9873,-2.9668,-2.9541,-2.9219,-2.9033,-2.8887,-2.8594,-2.8398,-2.8301,-2.8301,-2.8301,-2.8301,-2.8301,-2.8301,-2.8301,-2.8301,-2.8301,-2.8301,-2.8301,-2.8301,-2.8301,-2.8301,-2.8301,-2.8301,-2.8301,-2.8301,-2.8301,-2.8301,-2.8301,-2.8344,-2.8601,-2.8857,-2.8943,-2.9859,-3.0098,-2.9568,-2.8163,-2.8045,-2.9441,-3.0515,-3.1326,-3.1834,-3.2236,-3.2859,-3.3863,-3.4232,-3.4824,-3.5763,-3.6156,-3.6417,-3.6417,-3.6417,-3.6417,-3.6417,-3.6417,-3.6417,-3.6417,-3.6417,-3.6417,-3.6417,-3.6417,-3.648,-3.6659,-3.745,-3.8002,-3.7954,-3.8037,-3.8481,-3.8973,-3.836,-3.8465,-3.8973,-3.9362,-3.9697,-3.9594,-3.8921,-3.8477,-3.9297,-3.8856,-3.8137,-3.7624,-3.7518,-3.7796,-3.8687,-3.8647,-3.853,-3.9478,-3.9349,-3.9245,-3.9581,-3.9659,-3.9697,-3.9839,-4.0516,-4.1204,-4.2509,-4.3693,-4.4918,-4.5147,-4.6403,-4.7266,-4.7294,-4.7309,-4.7324,-4.7354,-4.7429,-4.7653,-4.8102,-4.8446,-4.903,-3.126,-3.0918,-3.0898,-3.0635,-3.0205,-3.0185,-2.9951,-2.9668,-2.957,-2.9326,-2.9004,-2.8887,-2.8672,-2.832,-2.8301,-2.8301,-2.8301,-2.8301,-2.8301,-2.8301,-2.8301,-2.8301,-2.8301,-2.8301,-2.8301,-2.8301,-2.8301,-2.8301,-2.8301,-2.8301,-2.8301,-2.8301,-2.8301,-2.8301,-2.8441,-2.9408,-3.011,-2.9964,-3.0172,-3.0307,-3.0161,-2.8978,-2.9446,-3.1351,-3.4198,-3.4956,-3.4315,-3.4216,-3.4289,-3.4399,-3.4459,-3.4532,-3.4678,-3.5727,-3.6417,-3.6417,-3.6417,-3.6417,-3.6417,-3.6417,-3.6417,-3.6417,-3.6417,-3.6417,-3.6417,-3.6417,-3.6619,-3.7086,-3.7638,-3.8002,-3.8153,-3.8663,-3.8832,-3.8084,-3.8856,-3.8804,-3.7849,-3.8908,-3.9581,-3.9594,-3.931,-3.9193,-3.953,-3.9645,-3.8739,-3.7849,-3.7465,-3.769,-3.7583,-3.6661,-3.7317,-3.8752,-3.8856,-3.8137,-3.9362,-3.9697,-3.9697,-3.989,-4.0032,-4.0211,-4.0794,-4.1654,-4.2978,-4.4396,-4.6107,-4.7106,-4.7266,-4.7324,-4.7354,-4.7474,-4.7743,-4.8042,-4.8431,-4.9374,-4.9718,-3.1269,-3.0898,-3.0898,-3.0791,-3.0644,-3.0644,-3.0557,-3.0381,-3.0088,-2.9883,-2.9648,-2.917,-2.8828,-2.8682,-2.8408,-2.8301,-2.8301,-2.8301,-2.8301,-2.8301,-2.8301,-2.8301,-2.8301,-2.8301,-2.8301,-2.8301,-2.8301,-2.8301,-2.8301,-2.8301,-2.8301,-2.8301,-2.8301,-2.8301,-2.8398,-2.8741,-2.8996,-2.9112,-2.9807,-3.0328,-3.0525,-3.1542,-3.2202,-3.1995,-3.228,-3.3105,-3.4385,-3.4385,-3.4775,-3.5619,-3.5667,-3.5667,-3.5715,-3.6108,-3.6417,-3.6417,-3.6417,-3.6417,-3.6417,-3.6417,-3.6417,-3.6417,-3.6417,-3.6417,-3.6417,-3.643,-3.6631,-3.7136,-3.7688,-3.8115,-3.8442,-3.8425,-3.8465,-3.8844,-3.8518,-3.8518,-3.8687,-3.8582,-3.8295,-3.8295,-3.8295,-3.8295,-3.8647,-3.9141,-3.8687,-3.6823,-3.769,-3.8243,-3.7861,-3.7701,-3.8319,-3.9245,-3.9297,-3.9077,-3.953,-3.9697,-3.9749,-3.9981,-4.0313,-4.1319,-4.2035,-4.293,-4.4256,-4.5101,-4.658,-4.7019,-4.7179,-4.7429,-4.7459,-4.7743,-4.8012,-4.8356,-4.8805,-4.9284,-4.9269,-3.1348,-3.1094,-3.0937,-3.0898,-3.0898,-3.0898,-3.0898,-3.085,-3.0557,-3.0342,-3.0098,-2.958,-2.9189,-2.8916,-2.8623,-2.8398,-2.8301,-2.8301,-2.8301,-2.8301,-2.8301,-2.8301,-2.8301,-2.8301,-2.8301,-2.8398,-2.8741,-2.8953,-2.8953,-2.8953,-2.8698,-2.8291,-2.8698,-2.8953,-2.9006,-2.9355,-2.9608,-2.9807,-3.0514,-3.0979,-3.1173,-3.2755,-3.3563,-3.2844,-3.1684,-3.1988,-3.4276,-3.4824,-3.5415,-3.625,-3.6417,-3.6417,-3.6417,-3.6417,-3.6417,-3.6417,-3.6417,-3.6417,-3.6417,-3.6417,-3.6417,-3.6417,-3.6417,-3.6417,-3.6417,-3.6568,-3.6885,-3.74,-3.7952,-3.8517,-3.8867,-3.8583,-3.8453,-3.8856,-3.8072,-3.7636,-3.8137,-3.7808,-3.7796,-3.8243,-3.84,-3.8295,-3.8295,-3.9129,-3.8465,-3.6271,-3.7861,-3.8413,-3.7902,-3.7808,-3.8804,-3.9413,-3.9141,-3.9129,-3.9465,-3.9697,-3.9697,-3.989,-4.0032,-4.1369,-4.2509,-4.3646,-4.478,-4.5824,-4.6491,-4.6873,-4.718,-4.7445,-4.7713,-4.7982,-4.8327,-4.8656,-4.8818,-4.8857,-4.9008,-3.1553,-3.1465,-3.1074,-3.0937,-3.0947,-3.0898,-3.0898,-3.0889,-3.0869,-3.0615,-3.0293,-3.0146,-2.9678,-2.9111,-2.8965,-2.8721,-2.8408,-2.8369,-2.833,-2.8301,-2.8301,-2.8301,-2.8301,-2.8301,-2.8398,-2.8548,-2.9702,-3.0317,-3.0317,-3.0266,-2.9765,-2.89,-2.9817,-3.0317,-3.0317,-3.1327,-3.2028,-3.2028,-3.2129,-3.2342,-3.2331,-3.2694,-3.3403,-3.4117,-3.3155,-3.3143,-3.4483,-3.5571,-3.6108,-3.637,-3.6417,-3.6417,-3.6417,-3.6417,-3.6417,-3.6417,-3.6417,-3.6417,-3.6417,-3.6417,-3.6417,-3.643,-3.643,-3.6505,-3.6593,-3.691,-3.7412,-3.7965,-3.8479,-3.9044,-3.9496,-3.9556,-3.9077,-3.7861,-3.7796,-3.737,-3.6553,-3.6769,-3.7967,-3.8908,-3.8973,-3.9465,-3.9465,-3.9089,-3.8202,-3.6918,-3.7026,-3.7305,-3.6865,-3.6337,-3.6888,-3.8307,-3.836,-3.7861,-3.8804,-3.9633,-3.9645,-3.9697,-3.98,-4.0364,-4.1132,-4.2181,-4.3551,-4.4642,-4.6211,-4.6638,-4.7209,-4.7474,-4.7668,-4.7952,-4.8401,-4.8775,-4.8878,-4.8933,-4.9215,-3.2236,-3.1924,-3.1494,-3.1328,-3.1279,-3.1016,-3.0898,-3.0898,-3.0898,-3.0801,-3.0625,-3.0332,-3.0039,-2.9785,-2.9502,-2.9131,-2.874,-2.8711,-2.8564,-2.834,-2.8301,-2.8291,-2.8344,-2.8344,-2.8804,-2.9765,-3.1019,-3.1673,-3.1684,-3.1673,-3.1418,-3.1224,-3.1429,-3.1673,-3.1673,-3.2079,-3.228,-3.2392,-3.3266,-3.3712,-3.3822,-3.4654,-3.5355,-3.5667,-3.5355,-3.5355,-3.5715,-3.5319,-3.5463,-3.6358,-3.6417,-3.6417,-3.6417,-3.6417,-3.6417,-3.6417,-3.6417,-3.6417,-3.6417,-3.6417,-3.6417,-3.648,-3.6744,-3.691,-3.6985,-3.7437,-3.7977,-3.8492,-3.8781,-3.9107,-3.9559,-3.9697,-3.9465,-3.9065,-3.9025,-3.8687,-3.7873,-3.769,-3.7198,-3.6715,-3.6673,-3.6283,-3.577,-3.6108,-3.6283,-3.4348,-3.5068,-3.5999,-3.4947,-3.5508,-3.5409,-3.6445,-3.6162,-3.6984,-3.8255,-3.9193,-3.9297,-3.953,-3.9697,-3.9839,-4.0415,-4.0945,-4.2266,-4.3882,-4.5403,-4.6506,-4.7078,-4.7519,-4.7728,-4.7773,-4.8027,-4.8416,-4.8775,-4.9023,-4.9103,-3.2646,-3.2344,-3.1768,-3.1514,-3.1465,-3.1064,-3.0898,-3.0898,-3.0898,-3.0898,-3.082,-3.0586,-3.0351,-3.0176,-2.9922,-2.956,-2.917,-2.9004,-2.8779,-2.8516,-2.834,-2.8558,-2.9049,-2.9608,-3.0525,-3.1735,-3.2655,-3.3044,-3.3105,-3.3044,-3.2844,-3.2381,-3.2794,-3.3105,-3.3155,-3.3601,-3.3836,-3.3946,-3.4715,-3.5174,-3.5319,-3.5966,-3.6417,-3.6417,-3.6417,-3.6417,-3.631,-3.5571,-3.5511,-3.6263,-3.6417,-3.6417,-3.6417,-3.6417,-3.6417,-3.6417,-3.6417,-3.6417,-3.6417,-3.6417,-3.6518,-3.6719,-3.6985,-3.7287,-3.7525,-3.8002,-3.8517,-3.8844,-3.9069,-3.932,-3.9622,-3.9697,-3.9697,-3.9697,-3.9077,-3.8687,-3.819,-3.7808,-3.7252,-3.6649,-3.6769,-3.6325,-3.6108,-3.6108,-3.6011,-3.4247,-3.5398,-3.6379,-3.5497,-3.6162,-3.6445,-3.6834,-3.7477,-3.8084,-3.8307,-3.8635,-3.8856,-3.9245,-3.9697,-3.989,-4.0275,-4.0415,-4.1269,-4.3409,-4.5115,-4.6255,-4.6961,-4.7581,-4.7908,-4.7848,-4.7713,-4.7997,-4.8384,-4.8483,-4.8642,-3.2861,-3.2725,-3.1943,-3.1621,-3.1543,-3.1143,-3.0937,-3.0898,-3.0898,-3.0898,-3.0889,-3.085,-3.0635,-3.0312,-3.0254,-3.001,-2.959,-2.9268,-2.9014,-2.8809,-2.8609,-2.8927,-3.0078,-3.1224,-3.2543,-3.3871,-3.4325,-3.4483,-3.4471,-3.4471,-3.3871,-3.3093,-3.4007,-3.4483,-3.4678,-3.5775,-3.6061,-3.6001,-3.6203,-3.6263,-3.6263,-3.6358,-3.6417,-3.6417,-3.6417,-3.6417,-3.6358,-3.6439,-3.6439,-3.6405,-3.6417,-3.6417,-3.6417,-3.6417,-3.6417,-3.6417,-3.6417,-3.6417,-3.6417,-3.6518,-3.6694,-3.7036,-3.7312,-3.7475,-3.8052,-3.8567,-3.8982,-3.9082,-3.9371,-3.9647,-3.9685,-3.9697,-3.9697,-3.9517,-3.8804,-3.7636,-3.6108,-3.7037,-3.753,-3.7636,-3.8635,-3.9297,-3.8477,-3.8582,-3.7979,-3.737,-3.7701,-3.7423,-3.721,-3.7156,-3.8804,-3.8699,-3.7755,-3.8084,-3.7967,-3.8243,-3.8518,-3.9362,-3.9697,-3.9839,-4.0313,-4.0554,-4.1082,-4.317,-4.4886,-4.5973,-4.6859,-4.7507,-4.7713,-4.7549,-4.7563,-4.7728,-4.7856,-4.7998,-4.8103,-3.3555,-3.3203,-3.2676,-3.2285,-3.1963,-3.1533,-3.1162,-3.0918,-3.0898,-3.0898,-3.0898,-3.0898,-3.082,-3.0713,-3.0684,-3.0459,-3.0078,-2.9883,-2.9463,-2.8975,-2.8828,-2.933,-3.037,-3.1673,-3.3055,-3.4337,-3.5223,-3.5858,-3.587,-3.5775,-3.5559,-3.5343,-3.5511,-3.581,-3.5953,-3.6216,-3.6417,-3.6417,-3.6417,-3.6417,-3.6417,-3.6417,-3.6417,-3.6417,-3.6417,-3.6417,-3.6499,-3.7243,-3.7196,-3.6452,-3.6417,-3.6417,-3.6499,-3.6499,-3.6452,-3.6417,-3.6417,-3.6417,-3.6493,-3.6782,-3.7071,-3.7236,-3.7964,-3.8479,-3.863,-3.9208,-3.9433,-3.9496,-3.9647,-3.9697,-3.9697,-3.9697,-3.9697,-3.9645,-3.9245,-3.8752,-3.8425,-3.8816,-3.8739,-3.7849,-3.7967,-3.7808,-3.7317,-3.6942,-3.678,-3.6379,-3.6595,-3.6823,-3.6823,-3.6876,-3.7926,-3.6888,-3.6217,-3.6984,-3.7477,-3.7796,-3.836,-3.9362,-3.9697,-3.9697,-4.0465,-4.1269,-4.2168,-4.3632,-4.4932,-4.6077,-4.6785,-4.7385,-4.7339,-4.7324,-4.7384,-4.7519,-4.7474,-4.7553,-4.7581,-3.3652,-3.3389,-3.2969,-3.2666,-3.2353,-3.1787,-3.1377,-3.1143,-3.0967,-3.0898,-3.0898,-3.0898,-3.0898,-3.0898,-3.0889,-3.0752,-3.0498,-3.0283,-2.9922,-2.9603,-2.9719,-2.9985,-3.0568,-3.1684,-3.3044,-3.4337,-3.5174,-3.581,-3.6263,-3.6417,-3.6417,-3.631,-3.6417,-3.6417,-3.631,-3.6417,-3.6417,-3.6417,-3.6417,-3.6417,-3.6417,-3.6417,-3.6417,-3.6417,-3.6417,-3.6417,-3.6499,-3.701,-3.7415,-3.7736,-3.7874,-3.7645,-3.715,-3.7103,-3.6896,-3.6499,-3.6417,-3.6505,-3.6757,-3.7036,-3.7412,-3.7864,-3.863,-3.8982,-3.9182,-3.9534,-3.9697,-3.9685,-3.9697,-3.9697,-3.9697,-3.9697,-3.9697,-3.9697,-3.9697,-3.9465,-3.8908,-3.9245,-3.8908,-3.8125,-3.7967,-3.8202,-3.7222,-3.7115,-3.6769,-3.6661,-3.7263,-3.7049,-3.6715,-3.6715,-3.693,-3.6769,-3.678,-3.7873,-3.836,-3.8582,-3.8635,-3.953,-3.9697,-3.9697,-4.0313,-4.1369,-4.2315,-4.3347,-4.4826,-4.6077,-4.6785,-4.7309,-4.7309,-4.7309,-4.7309,-4.7309,-4.7309,-4.7309,-4.7309,-3.3467,-3.3398,-3.3018,-3.2832,-3.2656,-3.1943,-3.1562,-3.1426,-3.1064,-3.0898,-3.0898,-3.0898,-3.0898,-3.0898,-3.0898,-3.0879,-3.084,-3.0488,-3.0273,-3.0257,-3.0526,-3.0758,-3.0611,-3.2083,-3.3453,-3.4617,-3.4629,-3.5379,-3.6168,-3.6417,-3.6417,-3.6417,-3.6417,-3.6417,-3.6417,-3.6417,-3.6417,-3.6417,-3.6417,-3.6417,-3.6417,-3.6417,-3.6417,-3.6417,-3.6417,-3.6581,-3.6662,-3.6883,-3.7645,-3.9972,-3.9754,-3.8604,-3.7861,-3.7848,-3.7415,-3.6628,-3.6443,-3.6631,-3.7061,-3.7249,-3.7739,-3.8592,-3.8856,-3.9145,-3.9534,-3.9685,-3.9697,-3.9697,-3.9697,-3.9697,-3.9697,-3.9697,-3.9697,-3.9697,-3.9697,-3.9025,-3.836,-3.8921,-3.9193,-3.8019,-3.8973,-3.953,-3.9697,-3.9581,-3.9141,-3.7914,-3.8255,-3.8202,-3.8031,-3.8255,-3.8582,-3.8868,-3.9037,-3.9362,-3.953,-3.9581,-3.9478,-3.9697,-3.9697,-3.9749,-3.9981,-4.0831,-4.1775,-4.3013,-4.4978,-4.6255,-4.7019,-4.7309,-4.7309,-4.7309,-4.7309,-4.7309,-4.7309,-4.7309,-4.7309,-3.373,-3.3408,-3.333,-3.3096,-3.2744,-3.2246,-3.1836,-3.1504,-3.1084,-3.0918,-3.0898,-3.0898,-3.0898,-3.0898,-3.0898,-3.0898,-3.0898,-3.0732,-3.0566,-3.0305,-3.0748,-3.0967,-3.1304,-3.2915,-3.4593,-3.5523,-3.5918,-3.6108,-3.6358,-3.6417,-3.6417,-3.6417,-3.6417,-3.6417,-3.6417,-3.6417,-3.6417,-3.6417,-3.6417,-3.6417,-3.6417,-3.6405,-3.6452,-3.6499,-3.6499,-3.6943,-3.7586,-3.771,-3.8845,-3.9944,-3.8944,-3.7618,-3.7381,-3.7103,-3.6883,-3.664,-3.6502,-3.6681,-3.7136,-3.7626,-3.8128,-3.8869,-3.9258,-3.9559,-3.9647,-3.9697,-3.9697,-3.9697,-3.9697,-3.9697,-3.9697,-3.9697,-3.9697,-3.9697,-3.9697,-3.9581,-3.9362,-3.9465,-3.9465,-3.9362,-3.9413,-3.9697,-3.9697,-3.9697,-3.9478,-3.9245,-3.9297,-3.9465,-3.9465,-3.9465,-3.9581,-3.9697,-3.9697,-3.9697,-3.9697,-3.9697,-3.9697,-3.9697,-3.9697,-3.9697,-3.9929,-4.0932,-4.207,-4.3632,-4.5448,-4.6403,-4.6975,-4.7309,-4.7309,-4.7309,-4.7309,-4.7309,-4.7309,-4.7309,-4.7309,-3.3643,-3.3418,-3.3418,-3.3301,-3.3037,-3.2646,-3.2217,-3.1797,-3.1367,-3.1064,-3.0918,-3.0898,-3.0898,-3.0898,-3.0898,-3.0898,-3.0898,-3.0889,-3.0762,-3.0744,-3.1246,-3.1942,-3.2743,-3.3816,-3.504,-3.5476,-3.5415,-3.5715,-3.6216,-3.6417,-3.6417,-3.6417,-3.6417,-3.6417,-3.6417,-3.6417,-3.6417,-3.6417,-3.6417,-3.6417,-3.6417,-3.6405,-3.679,-3.7103,-3.7243,-3.7769,-3.8827,-3.8961,-3.9623,-4.0085,-3.9338,-3.8599,-3.863,-3.8302,-3.7782,-3.7256,-3.6871,-3.7046,-3.755,-3.809,-3.8655,-3.9195,-3.9559,-3.9634,-3.9697,-3.9697,-3.9697,-3.9697,-3.9697,-3.9697,-3.9697,-3.9697,-3.9697,-3.9697,-3.9697,-3.9697,-3.9697,-3.9697,-3.9697,-3.9697,-3.9645,-3.9697,-3.9697,-3.9697,-3.9697,-3.9465,-3.9465,-3.9581,-3.9633,-3.9633,-3.9633,-3.9697,-3.9697,-3.9697,-3.9697,-3.9697,-3.9697,-3.9697,-3.9697,-3.9697,-3.9788,-4.1119,-4.2593,-4.3929,-4.5115,-4.6018,-4.6594,-4.6931,-4.7309,-4.7309,-4.7309,-4.7309,-4.7309,-4.7309,-4.7309,-3.3418,-3.3418,-3.3418,-3.3418,-3.335,-3.2969,-3.2578,-3.2226,-3.1728,-3.1299,-3.1016,-3.0928,-3.0898,-3.0898,-3.0898,-3.0898,-3.0898,-3.0898,-3.083,-3.0964,-3.1707,-3.2767,-3.3913,-3.4687,-3.5202,-3.4797,-3.5017,-3.5584,-3.6168,-3.6417,-3.6417,-3.6417,-3.6417,-3.6417,-3.6417,-3.6417,-3.6417,-3.6417,-3.6417,-3.6417,-3.6417,-3.6465,-3.693,-3.7756,-3.7971,-3.8514,-3.9489,-3.9878,-4.0152,-4.0326,-4.0884,-4.1524,-4.1653,-4.0583,-3.932,-3.8116,-3.7553,-3.766,-3.8065,-3.8567,-3.9095,-3.9634,-3.9697,-3.9697,-3.9697,-3.9697,-3.9697,-3.9697,-3.9697,-3.9697,-3.9697,-3.9697,-3.9697,-3.9697,-3.9697,-3.9697,-3.9697,-3.9697,-3.9697,-3.9697,-3.9697,-3.9697,-3.9697,-3.9697,-3.9697,-3.9697,-3.9697,-3.9697,-3.9697,-3.9697,-3.9697,-3.9697,-3.9697,-3.9697,-3.9697,-3.9697,-3.9697,-3.9697,-3.9697,-3.9697,-3.9788,-4.0982,-4.2301,-4.3266,-4.4317,-4.5448,-4.6491,-4.7019,-4.7309,-4.7309,-4.7309,-4.7309,-4.7309,-4.7309,-4.7309,-3.3418,-3.3418,-3.3418,-3.3418,-3.335,-3.2978,-3.2764,-3.2568,-3.1885,-3.1484,-3.1367,-3.1055,-3.0928,-3.0898,-3.0898,-3.0898,-3.0898,-3.0898,-3.0898,-3.1043,-3.1881,-3.308,-3.4417,-3.5242,-3.5881,-3.6479,-3.6227,-3.6121,-3.6323,-3.6417,-3.6417,-3.6417,-3.6417,-3.6417,-3.6417,-3.6417,-3.6417,-3.6417,-3.6417,-3.6405,-3.6593,-3.6769,-3.7196,-3.8211,-3.8464,-3.9176,-3.9977,-4.0544,-4.1102,-4.2096,-4.2797,-4.3615,-4.3614,-4.168,-3.9881,-3.8817,-3.8395,-3.857,-3.8855,-3.8957,-3.9221,-3.9534,-3.9697,-3.9697,-3.9697,-3.9697,-3.9697,-3.9697,-3.9697,-3.9697,-3.9697,-3.9697,-3.9697,-3.9697,-3.9697,-3.9697,-3.9697,-3.9697,-3.9697,-3.9697,-3.9697,-3.9697,-3.9697,-3.9697,-3.9697,-3.9697,-3.9697,-3.9697,-3.9697,-3.9697,-3.9697,-3.9697,-3.9697,-3.9697,-3.9697,-3.9697,-3.9697,-3.9697,-3.9697,-3.9697,-4.0032,-4.0882,-4.1923,-4.3074,-4.4363,-4.5689,-4.6506,-4.7164,-4.7309,-4.7309,-4.7309,-4.7309,-4.7309,-4.7309,-4.7309,-3.3418,-3.3418,-3.3418,-3.3418,-3.3379,-3.3213,-3.2988,-3.2754,-3.2353,-3.1924,-3.1562,-3.1299,-3.1084,-3.0947,-3.0898,-3.0898,-3.0898,-3.0898,-3.0898,-3.1149,-3.2133,-3.3446,-3.4795,-3.5573,-3.6481,-3.7058,-3.6822,-3.6443,-3.6417,-3.6417,-3.6417,-3.6417,-3.6417,-3.6417,-3.6417,-3.6417,-3.6452,-3.6452,-3.6499,-3.6756,-3.7335,-3.7782,-3.8527,-3.9015,-3.9999,-4.1011,-4.2037,-4.2795,-4.3369,-4.3996,-4.4595,-4.4889,-4.4473,-4.3676,-4.2163,-4.1071,-4.0473,-4.0127,-4.0016,-4.0087,-4.0209,-3.9725,-3.9697,-3.9697,-3.9697,-3.9697,-3.9697,-3.9697,-3.9697,-3.9697,-3.9697,-3.9697,-3.9697,-3.9697,-3.9697,-3.9697,-3.9697,-3.9697,-3.9697,-3.9697,-3.9697,-3.9697,-3.9697,-3.9697,-3.9697,-3.9697,-3.9697,-3.9697,-3.9697,-3.9697,-3.9697,-3.9697,-3.9697,-3.9697,-3.9697,-3.9697,-3.9697,-3.9697,-3.9697,-3.9697,-3.9942,-4.0642,-4.1838,-4.317,-4.4456,-4.5779,-4.6638,-4.7309,-4.7309,-4.7309,-4.7309,-4.7309,-4.7309,-4.7309,-4.7309,-3.3418,-3.3418,-3.3418,-3.3418,-3.3418,-3.3418,-3.3232,-3.2949,-3.2812,-3.2344,-3.1699,-3.1533,-3.1269,-3.0986,-3.0898,-3.0898,-3.0898,-3.0898,-3.1112,-3.171,-3.2556,-3.3946,-3.5477,-3.611,-3.6894,-3.7867,-3.7324,-3.6631,-3.643,-3.6417,-3.6417,-3.6417,-3.6417,-3.6581,-3.6756,-3.6943,-3.6803,-3.7083,-3.7116,-3.7645,-3.8541,-3.9469,-4.0239,-4.0512,-4.201,-4.3206,-4.4131,-4.4834,-4.5188,-4.5553,-4.5913,-4.6058,-4.5288,-4.5503,-4.533,-4.437,-4.3241,-4.2025,-4.1316,-4.0744,-4.0389,-3.9788,-3.9697,-3.9697,-3.9697,-3.9697,-3.9697,-3.9697,-3.9697,-3.9697,-3.9697,-3.9697,-3.9697,-3.9697,-3.9697,-3.9697,-3.9697,-3.9697,-3.9697,-3.9697,-3.9697,-3.9697,-3.9697,-3.9697,-3.9697,-3.9697,-3.9697,-3.9697,-3.9697,-3.9697,-3.9697,-3.9697,-3.9697,-3.9697,-3.9697,-3.9697,-3.9697,-3.9697,-3.9697,-3.9697,-3.989,-4.0173,-4.1654,-4.3218,-4.4489,-4.5719,-4.6594,-4.7309,-4.7309,-4.7309,-4.7309,-4.7309,-4.7309,-4.7309,-4.7309,-3.3418,-3.3418,-3.3418,-3.3418,-3.3418,-3.3418,-3.3398,-3.3291,-3.2969,-3.2549,-3.2012,-3.168,-3.1309,-3.0967,-3.0898,-3.0898,-3.0957,-3.117,-3.1662,-3.253,-3.3293,-3.4836,-3.6853,-3.7246,-3.7731,-3.8429,-3.8015,-3.7262,-3.6792,-3.6565,-3.6499,-3.6534,-3.6803,-3.6909,-3.7965,-3.807,-3.8469,-3.9254,-3.9458,-3.9546,-3.976,-4.044,-4.1407,-4.2152,-4.3141,-4.4061,-4.5135,-4.5813,-4.6187,-4.6234,-4.6815,-4.7058,-4.6973,-4.6988,-4.7032,-4.5887,-4.4009,-4.1683,-4.1594,-4.1241,-4.0642,-4.0313,-3.9981,-3.9749,-3.9697,-3.9697,-3.9697,-3.9697,-3.9697,-3.9697,-3.9697,-3.9697,-3.9697,-3.9697,-3.9697,-3.9697,-3.9697,-3.9697,-3.9697,-3.9697,-3.9697,-3.9697,-3.9697,-3.9697,-3.9697,-3.9697,-3.9697,-3.9697,-3.9697,-3.9697,-3.9697,-3.9697,-3.9697,-3.9697,-3.9697,-3.9697,-3.9697,-3.9697,-3.9697,-3.9749,-3.9942,-4.0364,-4.1752,-4.3266,-4.4535,-4.5764,-4.6829,-4.7309,-4.7309,-4.7309,-4.7309,-4.7309,-4.7309,-4.7309,-4.7309,-3.3418,-3.3418,-3.3418,-3.3418,-3.3418,-3.3418,-3.3418,-3.3316,-3.3232,-3.2773,-3.2287,-3.1992,-3.1533,-3.1006,-3.0898,-3.0898,-3.1064,-3.171,-3.2416,-3.3575,-3.467,-3.6205,-3.7329,-3.8004,-3.8638,-3.8629,-3.8316,-3.7826,-3.7392,-3.7377,-3.7368,-3.7453,-3.8037,-3.8863,-3.9572,-3.9613,-3.9895,-4.044,-4.0921,-4.1038,-4.1105,-4.2166,-4.3256,-4.3257,-4.4455,-4.5261,-4.5839,-4.6501,-4.686,-4.692,-4.7219,-4.7294,-4.7309,-4.7266,-4.7251,-4.7062,-4.5178,-4.3901,-4.3712,-4.3122,-4.2363,-4.1654,-4.1119,-4.0503,-3.9981,-3.9697,-3.9697,-3.9697,-3.9697,-3.9697,-3.9697,-3.9697,-3.9697,-3.9697,-3.9697,-3.9697,-3.9697,-3.9697,-3.9697,-3.9697,-3.9697,-3.9697,-3.9697,-3.9697,-3.9697,-3.9697,-3.9697,-3.9697,-3.9697,-3.9697,-3.9697,-3.9697,-3.9697,-3.9697,-3.9697,-3.9697,-3.9697,-3.9697,-3.9697,-3.98,-3.9981,-4.0693,-4.1838,-4.3122,-4.4442,-4.5674,-4.6873,-4.7309,-4.7309,-4.7309,-4.7309,-4.7309,-4.7309,-4.7309,-4.7309,-3.3418,-3.3418,-3.3418,-3.3418,-3.3418,-3.3418,-3.3418,-3.3418,-3.3408,-3.2939,-3.2266,-3.1914,-3.1435,-3.1025,-3.0898,-3.0898,-3.1005,-3.2426,-3.3237,-3.4448,-3.6042,-3.7465,-3.8263,-3.8835,-3.9081,-3.9044,-3.858,-3.8253,-3.8392,-3.8712,-3.8983,-3.8667,-3.9704,-4.0675,-4.1309,-4.1523,-4.1713,-4.228,-4.2896,-4.281,-4.2654,-4.4246,-4.4709,-4.4989,-4.5587,-4.6576,-4.6651,-4.6965,-4.7264,-4.7279,-4.7279,-4.7309,-4.7309,-4.7309,-4.7309,-4.7164,-4.6062,-4.5734,-4.5389,-4.4872,-4.4303,-4.3122,-4.1923,-4.0453,-3.989,-3.9697,-3.9697,-3.9697,-3.9697,-3.9697,-3.9697,-3.9697,-3.9697,-3.9697,-3.9697,-3.9697,-3.9697,-3.9697,-3.9697,-3.9697,-3.9697,-3.9697,-3.9697,-3.9697,-3.9697,-3.9697,-3.9697,-3.9697,-3.9697,-3.9697,-3.9697,-3.9697,-3.9697,-3.9697,-3.9697,-3.9697,-3.9697,-3.9697,-3.9697,-3.9749,-3.9942,-4.0364,-4.1219,-4.2641,-4.4163,-4.501,-4.5883,-4.6594,-4.7309,-4.7309,-4.7309,-4.7309,-4.7309,-4.7309,-4.7309,-3.3418,-3.3418,-3.3418,-3.3418,-3.3418,-3.3418,-3.3418,-3.3418,-3.3398,-3.29,-3.206,-3.1416,-3.1035,-3.0898,-3.0898,-3.0898,-3.1005,-3.2426,-3.3687,-3.5112,-3.6757,-3.8137,-3.8911,-3.9429,-3.9546,-3.9484,-3.9095,-3.8881,-3.9304,-4.0635,-4.0508,-4.0148,-4.1429,-4.2382,-4.3053,-4.3387,-4.3805,-4.429,-4.4768,-4.4867,-4.482,-4.5645,-4.6047,-4.6196,-4.6745,-4.7234,-4.7234,-4.7279,-4.7309,-4.7309,-4.7309,-4.7309,-4.7309,-4.7309,-4.7309,-4.7164,-4.7077,-4.6829,-4.6594,-4.5343,-4.3361,-4.1936,-4.1132,-4.0655,-4.0134,-3.9839,-3.9749,-3.9749,-3.9697,-3.9697,-3.9697,-3.9697,-3.9697,-3.9697,-3.9697,-3.9697,-3.9697,-3.9697,-3.9697,-3.9697,-3.9697,-3.9697,-3.9697,-3.9697,-3.9697,-3.9697,-3.9697,-3.9697,-3.9697,-3.9697,-3.9697,-3.9697,-3.9697,-3.9697,-3.9697,-3.9697,-3.9697,-3.9697,-3.9697,-3.9697,-3.9749,-4.0313,-4.1132,-4.2084,-4.3551,-4.4163,-4.5024,-4.6358,-4.7266,-4.7309,-4.7309,-4.7309,-4.7309,-4.7309,-4.7309,-3.3418,-3.3418,-3.3418,-3.3418,-3.3418,-3.3418,-3.3418,-3.3369,-3.3144,-3.2559,-3.1748,-3.1172,-3.0898,-3.0898,-3.0898,-3.0898,-3.1112,-3.2426,-3.3912,-3.5343,-3.6823,-3.8295,-3.9245,-3.9697,-3.9685,-3.9698,-3.9536,-3.9943,-4.0741,-4.208,-4.3074,-4.3339,-4.3597,-4.4356,-4.4974,-4.5151,-4.548,-4.5707,-4.5918,-4.5918,-4.6067,-4.6546,-4.6935,-4.698,-4.7055,-4.7294,-4.7294,-4.7309,-4.7309,-4.7309,-4.7309,-4.7309,-4.7309,-4.7309,-4.7309,-4.7309,-4.7309,-4.7309,-4.7266,-4.6255,-4.5312,-4.421,-4.3456,-4.2461,-4.0982,-4.0844,-4.0364,-4.0083,-3.9697,-3.9697,-3.9697,-3.9697,-3.9697,-3.9697,-3.9697,-3.9697,-3.9697,-3.9697,-3.9697,-3.9697,-3.9697,-3.9697,-3.9697,-3.9697,-3.9697,-3.9697,-3.9697,-3.9697,-3.9697,-3.9697,-3.9697,-3.9697,-3.9697,-3.9697,-3.9697,-3.9697,-3.9697,-3.9697,-3.9697,-3.9697,-3.9788,-4.0743,-4.1555,-4.2315,-4.3218,-4.4456,-4.5598,-4.6682,-4.7207,-4.7266,-4.7309,-4.7309,-4.7309,-4.7309,-4.7309,-3.3418,-3.3418,-3.3418,-3.3418,-3.3408,-3.3291,-3.3232,-3.3164,-3.2783,-3.2226,-3.1494,-3.1094,-3.0898,-3.0898,-3.0898,-3.0898,-3.1498,-3.2861,-3.4191,-3.5727,-3.7263,-3.8635,-3.9362,-3.98,-3.9942,-4.0083,-4.0364,-4.0906,-4.2163,-4.3428,-4.4251,-4.5,-4.5768,-4.6154,-4.6371,-4.6606,-4.6578,-4.6621,-4.6621,-4.6621,-4.6696,-4.701,-4.7279,-4.7264,-4.7294,-4.7294,-4.7309,-4.7309,-4.7309,-4.7309,-4.7309,-4.7309,-4.7309,-4.7309,-4.7309,-4.7309,-4.7309,-4.7309,-4.7266,-4.6785,-4.6358,-4.5161,-4.4549,-4.3361,-4.2266,-4.1604,-4.0932,-3.989,-3.9697,-3.9749,-3.9749,-3.9697,-3.9697,-3.9697,-3.9697,-3.9697,-3.9697,-3.9697,-3.9697,-3.9697,-3.9697,-3.9697,-3.9697,-3.9697,-3.9697,-3.9697,-3.9697,-3.9697,-3.9697,-3.9697,-3.9697,-3.9697,-3.9697,-3.9697,-3.9697,-3.9697,-3.9697,-3.9697,-3.9697,-3.9697,-4.0032,-4.0844,-4.1505,-4.2035,-4.317,-4.484,-4.5734,-4.6255,-4.6785,-4.7266,-4.7266,-4.7309,-4.7309,-4.7309,-4.7309,-3.3418,-3.3418,-3.3418,-3.3418,-3.334,-3.2988,-3.2832,-3.2812,-3.2373,-3.1904,-3.1435,-3.1055,-3.0898,-3.0898,-3.0898,-3.0898,-3.1498,-3.3529,-3.5068,-3.5781,-3.7648,-3.9193,-3.9645,-3.9788,-4.007,-4.1219,-4.1219,-4.1555,-4.3313,-4.4116,-4.4978,-4.5779,-4.6475,-4.7025,-4.7234,-4.7264,-4.7279,-4.7264,-4.7219,-4.7174,-4.7189,-4.7264,-4.7294,-4.7309,-4.7309,-4.7309,-4.7309,-4.7309,-4.7309,-4.7309,-4.7309,-4.7309,-4.7309,-4.7309,-4.7309,-4.7309,-4.7309,-4.7309,-4.7266,-4.6166,-4.5779,-4.5689,-4.5207,-4.3868,-4.2301,-4.1739,-4.1591,-4.0844,-4.0121,-3.9942,-3.9788,-3.9697,-3.9749,-3.9697,-3.9697,-3.9697,-3.9697,-3.9697,-3.9697,-3.9697,-3.9697,-3.9697,-3.9697,-3.9697,-3.9697,-3.9697,-3.9697,-3.9697,-3.9697,-3.9697,-3.9697,-3.9697,-3.9697,-3.9697,-3.9697,-3.9697,-3.9697,-3.9697,-3.9697,-3.9697,-3.9697,-4.0083,-4.0794,-4.1555,-4.2509,-4.3646,-4.4642,-4.5524,-4.6388,-4.7207,-4.7266,-4.7309,-4.7309,-4.7309,-4.7309,-3.3418,-3.3418,-3.3418,-3.3262,-3.3008,-3.2861,-3.2793,-3.2666,-3.206,-3.1494,-3.1143,-3.0928,-3.0898,-3.0898,-3.0898,-3.0947,-3.1325,-3.2644,-3.408,-3.5563,-3.7595,-3.8699,-3.9362,-3.9736,-3.9968,-4.0224,-4.0503,-4.169,-4.3442,-4.4256,-4.5434,-4.6388,-4.696,-4.7251,-4.7294,-4.7309,-4.7309,-4.7309,-4.7294,-4.7294,-4.7309,-4.7309,-4.7309,-4.7309,-4.7309,-4.7309,-4.7309,-4.7309,-4.7309,-4.7309,-4.7309,-4.7309,-4.7309,-4.7309,-4.7309,-4.7309,-4.7309,-4.7309,-4.7266,-4.6829,-4.6741,-4.6447,-4.6062,-4.5161,-4.4303,-4.4116,-4.3409,-4.2168,-4.1119,-4.0932,-4.0982,-4.0083,-3.9788,-3.9749,-3.9697,-3.9697,-3.9697,-3.9697,-3.9697,-3.9697,-3.9697,-3.9747,-3.9772,-3.9835,-3.9835,-3.9722,-3.9697,-3.9697,-3.9697,-3.9697,-3.9697,-3.9697,-3.9697,-3.9697,-3.9697,-3.9697,-3.9697,-3.9697,-3.9697,-3.9697,-3.9697,-3.9697,-4.0465,-4.1468,-4.1838,-4.2315,-4.3975,-4.5448,-4.6491,-4.7193,-4.7207,-4.7266,-4.7309,-4.7309,-4.7309,-3.3418,-3.3398,-3.3262,-3.3057,-3.2793,-3.2646,-3.2441,-3.209,-3.1533,-3.1143,-3.0928,-3.0898,-3.0898,-3.0898,-3.0898,-3.0898,-3.1112,-3.3031,-3.408,-3.5563,-3.7477,-3.8752,-3.953,-3.9749,-4.016,-4.0121,-4.0605,-4.169,-4.4163,-4.4195,-4.5343,-4.6785,-4.7309,-4.7309,-4.7309,-4.7309,-4.7309,-4.7309,-4.7309,-4.7309,-4.7309,-4.7309,-4.7309,-4.7309,-4.7309,-4.7309,-4.7309,-4.7309,-4.7309,-4.7309,-4.7309,-4.7309,-4.7309,-4.7309,-4.7309,-4.7309,-4.7309,-4.7309,-4.7266,-4.7266,-4.7121,-4.7121,-4.7309,-4.6682,-4.5734,-4.5161,-4.4022,-4.2965,-4.2168,-4.1455,-4.0932,-3.9981,-3.9839,-3.9749,-3.9749,-3.9749,-3.9788,-3.9788,-3.9848,-3.9835,-3.9986,-3.9986,-3.9936,-3.9948,-4.0011,-3.9848,-3.9697,-3.9697,-3.9697,-3.9697,-3.9697,-3.9697,-3.9697,-3.9697,-3.9697,-3.9697,-3.9697,-3.9697,-3.9697,-3.9697,-3.9697,-3.9749,-4.0554,-4.1219,-4.1604,-4.2363,-4.4069,-4.5448,-4.6151,-4.6726,-4.7019,-4.7121,-4.7266,-4.7309,-4.7309,-3.3389,-3.332,-3.2939,-3.2754,-3.2676,-3.2246,-3.166,-3.0967,-3.0928,-3.0908,-3.0898,-3.0898,-3.0898,-3.0898,-3.0898,-3.0898,-3.1334,-3.3698,-3.4736,-3.5945,-3.7755,-3.8921,-3.9581,-3.9749,-4.0121,-4.0982,-4.1604,-4.2315,-4.4978,-4.5434,-4.6211,-4.7019,-4.7309,-4.7309,-4.7309,-4.7309,-4.7309,-4.7309,-4.7309,-4.7309,-4.7309,-4.7309,-4.7309,-4.7309,-4.7309,-4.7309,-4.7309,-4.7309,-4.7309,-4.7309,-4.7309,-4.7309,-4.7309,-4.7309,-4.7309,-4.7309,-4.7309,-4.7309,-4.7309,-4.7309,-4.7309,-4.7309,-4.7309,-4.655,-4.5973,-4.5553,-4.4549,-4.3218,-4.2119,-4.1119,-4.0211,-4.0032,-3.9839,-3.9788,-3.98,-3.9839,-3.9942,-3.9991,-4.0063,-4.0187,-4.045,-4.0488,-4.0362,-4.0337,-4.0136,-3.9848,-3.9697,-3.9697,-3.9697,-3.9697,-3.9697,-3.9697,-3.9697,-3.9697,-3.9697,-3.9697,-3.9697,-3.9697,-3.9697,-3.9697,-3.9697,-3.9749,-4.0224,-4.0794,-4.1356,-4.2252,-4.3313,-4.4396,-4.5448,-4.5973,-4.6594,-4.7121,-4.7309,-4.7309,-4.7309,-3.2803,-3.2519,-3.2402,-3.2178,-3.1846,-3.1445,-3.1103,-3.0908,-3.0898,-3.0898,-3.0898,-3.0898,-3.0898,-3.0898,-3.0898,-3.0898,-3.1604,-3.2758,-3.4191,-3.5727,-3.7423,-3.8635,-3.9362,-3.9749,-4.0019,-4.0453,-4.1269,-4.2509,-4.4163,-4.5448,-4.6726,-4.7251,-4.7309,-4.7309,-4.7309,-4.7309,-4.7309,-4.7309,-4.7309,-4.7309,-4.7309,-4.7309,-4.7309,-4.7309,-4.7309,-4.7309,-4.7309,-4.7309,-4.7309,-4.7309,-4.7309,-4.7309,-4.7309,-4.7309,-4.7309,-4.7309,-4.7309,-4.7309,-4.7309,-4.7309,-4.7309,-4.7266,-4.7222,-4.7207,-4.6638,-4.5883,-4.4978,-4.3693,-4.2461,-4.1492,-4.0781,-4.0453,-4.0415,-4.0503,-4.0313,-3.9942,-4.0032,-3.9992,-4.0077,-4.04,-4.0676,-4.0752,-4.0598,-4.0501,-4.0262,-3.9898,-3.9697,-3.9697,-3.9697,-3.9697,-3.9697,-3.9697,-3.9697,-3.9697,-3.9697,-3.9697,-3.9697,-3.9697,-3.9697,-3.9697,-3.9697,-3.98,-3.9942,-4.0262,-4.0831,-4.1356,-4.1972,-4.3156,-4.4503,-4.5584,-4.6299,-4.6873,-4.7309,-4.7266,-4.7266,-3.2402,-3.2219,-3.1982,-3.166,-3.126,-3.0996,-3.0898,-3.0898,-3.0898,-3.0898,-3.0898,-3.0898,-3.0898,-3.0898,-3.0898,-3.0947,-3.1054,-3.254,-3.3968,-3.5398,-3.6769,-3.8307,-3.9245,-3.9697,-3.9749,-4.0173,-4.0969,-4.2301,-4.3882,-4.5838,-4.7309,-4.7294,-4.7309,-4.7309,-4.7309,-4.7309,-4.7309,-4.7309,-4.7309,-4.7309,-4.7309,-4.7309,-4.7309,-4.7309,-4.7309,-4.7309,-4.7309,-4.7309,-4.7309,-4.7309,-4.7309,-4.7309,-4.7309,-4.7309,-4.7309,-4.7309,-4.7309,-4.7309,-4.7309,-4.7309,-4.7309,-4.7164,-4.6931,-4.6829,-4.6682,-4.6121,-4.5161,-4.4102,-4.3061,-4.2119,-4.1555,-4.1082,-4.1269,-4.1442,-4.0794,-4.0134,-4.0032,-3.9981,-4.0179,-4.0541,-4.0714,-4.0786,-4.0736,-4.0626,-4.035,-3.9923,-3.9697,-3.9697,-3.9697,-3.9697,-3.9697,-3.9697,-3.9697,-3.9697,-3.9697,-3.9697,-3.9697,-3.9697,-3.9697,-3.9697,-3.9697,-3.9749,-3.9839,-4.0032,-4.0326,-4.0693,-4.1069,-4.2315,-4.3551,-4.4535,-4.5434,-4.6166,-4.6638,-4.7062,-4.7121,-3.209,-3.2062,-3.1631,-3.1269,-3.0928,-3.0898,-3.0898,-3.0898,-3.0898,-3.0898,-3.0898,-3.0898,-3.0898,-3.0898,-3.0898,-3.0898,-3.116,-3.215,-3.3586,-3.5245,-3.6325,-3.7861,-3.9245,-3.9697,-3.9697,-4.0121,-4.1019,-4.2398,-4.4022,-4.5689,-4.6887,-4.7266,-4.7309,-4.7309,-4.7309,-4.7309,-4.7309,-4.7309,-4.7309,-4.7309,-4.7309,-4.7309,-4.7309,-4.7309,-4.7309,-4.7309,-4.7309,-4.7309,-4.7309,-4.7309,-4.7309,-4.7309,-4.7309,-4.7309,-4.7309,-4.7309,-4.7309,-4.7309,-4.7309,-4.7309,-4.7309,-4.6931,-4.6314,-4.6594,-4.6638,-4.5644,-4.4595,-4.4442,-4.3537,-4.2496,-4.1739,-4.1419,-4.1455,-4.1256,-4.0642,-4.0402,-4.0503,-4.0338,-4.0266,-4.0588,-4.0862,-4.0924,-4.0636,-4.0513,-4.0312,-3.9885,-3.9697,-3.9697,-3.9697,-3.9697,-3.9697,-3.9697,-3.9697,-3.9697,-3.9697,-3.9697,-3.9697,-3.9697,-3.9697,-3.9697,-3.9697,-3.9697,-3.9697,-3.989,-4.0032,-3.989,-4.0275,-4.1555,-4.2461,-4.2834,-4.3834,-4.5115,-4.5883,-4.655,-4.7077,-3.1475,-3.1191,-3.1084,-3.0976,-3.0908,-3.0898,-3.0898,-3.0898,-3.0898,-3.0898,-3.0898,-3.0898,-3.0898,-3.0898,-3.0898,-3.0898,-3.1112,-3.1546,-3.3042,-3.4581,-3.589,-3.7595,-3.931,-3.9697,-3.9697,-4.0134,-4.1119,-4.2786,-4.4595,-4.5734,-4.6447,-4.7207,-4.7309,-4.7309,-4.7309,-4.7309,-4.7309,-4.7309,-4.7309,-4.7309,-4.7309,-4.7309,-4.7309,-4.7309,-4.7309,-4.7309,-4.7309,-4.7309,-4.7309,-4.7309,-4.7309,-4.7309,-4.7309,-4.7309,-4.7309,-4.7309,-4.7309,-4.7309,-4.7309,-4.7309,-4.7309,-4.7266,-4.6975,-4.7077,-4.655,-4.4932,-4.4163,-4.4363,-4.4022,-4.2978,-4.2133,-4.1887,-4.1555,-4.1069,-4.0491,-4.0693,-4.0831,-4.0594,-4.0339,-4.0614,-4.0949,-4.0824,-4.0563,-4.0362,-4.0187,-3.9973,-3.9772,-3.9697,-3.9697,-3.9697,-3.9697,-3.9697,-3.9697,-3.9697,-3.9697,-3.9697,-3.9697,-3.9697,-3.9697,-3.9697,-3.9697,-3.9697,-3.9697,-3.9697,-3.9749,-3.9697,-3.9981,-4.0895,-4.1604,-4.1703,-4.2738,-4.4256,-4.5389,-4.6151,-4.6785,-3.0417,-3.0898,-3.0898,-3.0898,-3.0898,-3.0898,-3.0898,-3.0898,-3.0898,-3.0898,-3.0898,-3.0898,-3.0898,-3.0898,-3.0898,-3.0898,-3.0898,-3.0947,-3.2882,-3.4581,-3.5672,-3.7317,-3.8594,-3.9697,-3.9697,-4.0083,-4.1752,-4.3504,-4.507,-4.6166,-4.6873,-4.7266,-4.7309,-4.7309,-4.7309,-4.7309,-4.7309,-4.7309,-4.7309,-4.7309,-4.7309,-4.7309,-4.7309,-4.7309,-4.7309,-4.7309,-4.7309,-4.7309,-4.7309,-4.7309,-4.7309,-4.7309,-4.7309,-4.7309,-4.7309,-4.7309,-4.7309,-4.7309,-4.7309,-4.7309,-4.7309,-4.7266,-4.6638,-4.6388,-4.6975,-4.5644,-4.4886,-4.4978,-4.4932,-4.4022,-4.3122,-4.2703,-4.2084,-4.1555,-4.0605,-4.0121,-4.0224,-4.012,-3.9973,-4.0086,-4.0312,-4.0287,-4.0061,-4.0036,-3.9885,-3.9873,-3.971,-3.9697,-3.9697,-3.9697,-3.9697,-3.9697,-3.9697,-3.9697,-3.9697,-3.9697,-3.9697,-3.9697,-3.9697,-3.9697,-3.9697,-3.9697,-3.9697,-3.9697,-3.9697,-3.9697,-4.0121,-4.0655,-4.0605,-4.0605,-4.1972,-4.3585,-4.4627,-4.5539,-4.6299,-2.9048,-3.046,-3.0274,-3.0577,-3.083,-3.0645,-3.0704,-3.0889,-3.0898,-3.0898,-3.0898,-3.0898,-3.0898,-3.0898,-3.0898,-3.0898,-3.0898,-3.0898,-3.2768,-3.4637,-3.5288,-3.721,-3.8752,-3.9697,-3.9697,-4.0415,-4.1838,-4.3409,-4.4886,-4.5928,-4.6638,-4.7164,-4.7309,-4.7309,-4.7309,-4.7309,-4.7309,-4.7309,-4.7309,-4.7309,-4.7309,-4.7309,-4.7309,-4.7309,-4.7309,-4.7309,-4.7309,-4.7309,-4.7309,-4.7309,-4.7309,-4.7309,-4.7309,-4.7309,-4.7309,-4.7309,-4.7309,-4.7309,-4.7309,-4.7309,-4.7309,-4.7062,-4.6062,-4.6062,-4.6785,-4.6594,-4.5838,-4.5539,-4.5494,-4.4826,-4.3929,-4.2978,-4.2315,-4.1555,-4.0465,-3.9749,-3.9761,-3.9774,-3.9722,-3.9735,-3.9747,-3.9772,-3.9747,-3.9722,-3.971,-3.9697,-3.9697,-3.9697,-3.9697,-3.9697,-3.9697,-3.9697,-3.9697,-3.9697,-3.9697,-3.9697,-3.9697,-3.9697,-3.9697,-3.9697,-3.9697,-3.9697,-3.9697,-3.9697,-3.9697,-3.9697,-3.9697,-3.9981,-3.989,-3.989,-4.1269,-4.2772,-4.3266,-4.4256,-4.5524,-2.7391,-2.8792,-2.7503,-2.8435,-3.046,-2.953,-2.9599,-3.0772,-3.0898,-3.0898,-3.0898,-3.0898,-3.0898,-3.0898,-3.0898,-3.0898,-3.0947,-3.1064,-3.2825,-3.4914,-3.5508,-3.7382,-3.8921,-3.9697,-3.9697,-4.0364,-4.1369,-4.2544,-4.4022,-4.5207,-4.6299,-4.7121,-4.7266,-4.7309,-4.7309,-4.7309,-4.7309,-4.7309,-4.7309,-4.7309,-4.7309,-4.7309,-4.7309,-4.7309,-4.7309,-4.7309,-4.7309,-4.7309,-4.7309,-4.7309,-4.7309,-4.7309,-4.7309,-4.7309,-4.7309,-4.7309,-4.7309,-4.7309,-4.7309,-4.7309,-4.7309,-4.7266,-4.6682,-4.6726,-4.7164,-4.7164,-4.6594,-4.6255,-4.5883,-4.4688,-4.3693,-4.2509,-4.1654,-4.0743,-3.9749,-3.9697,-3.9697,-3.971,-3.971,-3.971,-3.971,-3.9722,-3.9722,-3.971,-3.971,-3.9697,-3.9697,-3.9697,-3.9697,-3.9697,-3.9697,-3.9697,-3.9697,-3.9697,-3.9697,-3.9697,-3.9697,-3.9697,-3.9697,-3.9697,-3.9697,-3.9697,-3.9697,-3.9697,-3.9697,-3.9697,-3.9697,-3.9697,-3.9749,-3.9942,-4.0882,-4.1874,-4.2315,-4.2978,-4.4256]},{"header":{"parameterUnit":"m.s-1","parameterCategory":1,"la1":31.0,"la2":29.5877,"lo1":-88.7671,"lo2":-86.6584,"dy":0.0162,"dx":0.0185,"nx":115,"ny":88,"refTime":"2024-09-01T06:00:00:Z","depth":0,"parameterNumber":3,"parameterNumberName":"V-component_of_WINDS"},"data":[0.0,0.0,0.0,0.0,0.0,0.0,0.0,0.0,0.0,0.0,0.0,0.0,0.0,0.0,0.0,0.0,0.0,0.0,0.0,0.0,0.0,0.0,0.0,0.0,0.0,0.0,0.0,0.0,0.0,0.0,0.0,0.0,0.0,0.0,0.0,0.0,0.0,0.0,0.0,0.0,0.0,0.0,0.0,0.0,0.0,0.0,0.0,0.0,0.0,0.0,0.0,0.0,0.0,0.0,0.0,0.0,0.0,0.0,0.0,0.0,0.0,0.0,0.0,0.0,0.0,0.0,0.0,0.0,0.0,0.0,0.0,0.0,0.0,0.0,0.0,0.0,0.0,0.0,0.0,0.0,0.0,0.0,0.0,0.0,0.0,0.0,0.0,0.0,0.0,0.0,0.0,0.0,0.0,0.0,0.0,0.0,0.0,0.0,0.0,0.0,0.0,0.0,0.0,0.0,0.0,0.0,0.0,0.0,0.0,0.0,0.0,0.0,0.0,0.0,0.0,0.0,0.0,0.0,0.0,0.0,0.0,0.0,0.0,0.0,0.0,0.0,0.0,0.0,0.0,0.0,0.0,0.0,0.0,0.0,0.0,0.0,0.0,0.0,0.0,0.0,0.0,0.0,0.0,0.0,0.0,0.0,0.0,0.0,0.0,0.0,0.0,0.0,0.0,0.0,0.0,0.0,0.0,0.0,0.0,0.0,0.0,0.0,0.0,0.0,0.0,0.0,0.0,0.0,0.0,0.0,0.0,0.0,0.0,0.0,0.0,0.0,0.0,0.0,0.0,0.0,0.0,0.0,0.0,0.0,0.0,0.0,0.0,0.0,0.0,0.0,0.0,0.0,0.0,0.0,0.0,0.0,0.0,0.0,0.0,0.0,0.0,0.0,0.0,0.0,0.0,0.0,0.0,0.0,0.0,0.0,0.0,0.0,0.0,0.0,0.0,0.0,0.0,0.0,0.0,0.0,0.0,0.0,0.0,0.0,0.0,0.0,0.0,0.0,0.0,0.0,0.0,0.0,0.0,0.0,0.0,0.0,0.0,0.0,0.0,0.0,0.0,0.0,0.0,0.0,0.0,0.0,0.0,0.0,0.0,0.0,0.0,0.0,0.0,0.0,0.0,0.0,0.0,0.0,0.0,0.0,0.0,0.0,0.0,0.0,0.0,0.0,0.0,0.0,0.0,0.0,0.0,0.0,0.0,0.0,0.0,0.0,0.0,0.0,0.0,0.0,0.0,0.0,0.0,0.0,0.0,0.0,0.0,0.0,0.0,0.0,0.0,0.0,0.0,0.0,0.0,0.0,0.0,0.0,0.0,0.0,0.0,0.0,0.0,0.0,0.0,0.0,0.0,0.0,0.0,0.0,0.0,0.0,0.0,0.0,0.0,0.0,0.0,0.0,0.0,0.0,0.0,0.0,0.0,0.0,0.0,0.0,0.0,0.0,0.0,0.0,0.0,0.0,0.0,0.0,0.0,0.0,0.0,0.0,0.0,0.0,0.0,0.0,0.0,0.0,0.0,0.0,0.0,0.0,0.0,0.0,0.0,0.0,0.0,0.0,0.0,0.0,0.0,0.0,0.0,0.0,0.0,0.0,0.0,0.0,0.0,0.0,0.0,0.0,0.0,0.0,0.0,0.0,0.0,0.0,0.0,0.0,0.0,0.0,0.0,0.0,0.0,0.0,0.0,0.0,0.0,0.0,0.0,0.0,0.0,0.0,0.0,0.0,0.0,0.0,0.0,0.0,0.0,0.0,0.0,0.0,0.0,0.0,0.0,0.0,0.0,0.0,0.0,0.0,0.0,0.0,0.0,0.0,0.0,0.0,0.0,0.0,0.0,0.0,0.0,0.0,0.0,0.0,0.0,0.0,0.0,0.0,0.0,0.0,0.0,0.0,0.0,0.0,0.0,0.0,0.0,0.0,0.0,0.0,0.0,0.0,0.0,0.0,0.0,0.0,0.0,0.0,0.0,0.0,0.0,0.0,0.0,0.0,0.0,0.0,0.0,0.0,0.0,0.0,0.0,0.0,0.0,0.0,0.0,0.0,0.0,0.0,0.0,0.0,0.0,0.0,0.0,0.0,0.0,0.0,0.0,0.0,0.0,0.0,0.0,0.0,0.0,0.0,0.0,0.0,0.0,0.0,0.0,0.0,0.0,0.0,0.0,0.0,0.0,0.0,0.0,0.0,0.0,0.0,0.0,0.0,0.0,0.0,0.0,0.0,0.0,0.0,0.0,0.0,0.0,0.0,0.0,0.0,0.0,0.0,0.0,0.0,0.0,0.0,0.0,0.0,0.0,0.0,0.0,0.0,0.0,0.0,0.0,0.0,0.0,0.0,0.0,0.0,0.0,0.0,0.0,0.0,0.0,0.0,0.0,0.0,0.0,0.0,0.0,0.0,0.0,0.0,0.0,0.0,0.0,0.0,0.0,0.0,0.0,0.0,0.0,0.0,0.0,0.0,0.0,0.0,0.0,0.0,0.0,0.0,0.0,0.0,0.0,0.0,0.0,0.0,0.0,0.0,0.0,0.0,0.0,0.0,0.0,0.0,0.0,0.0,0.0,0.0,0.0,0.0,0.0,0.0,0.0,0.0,0.0,0.0,0.0,0.0,0.0,0.0,0.0,0.0,0.0,0.0,0.0,0.0,0.0,0.0,0.0,0.0,0.0,0.0,0.0,0.0,0.0,0.0,0.0,0.0,0.0,0.0,0.0,0.0,0.0,0.0,0.0,0.0,0.0,0.0,0.0,0.0,0.0,0.0,0.0,0.0,0.0,0.0,0.0,0.0,0.0,0.0,0.0,0.0,0.0,0.0,0.0,0.0,0.0,0.0,0.0,0.0,0.0,0.0,0.0,0.0,0.0,0.0,0.0,0.0,0.0,0.0,0.0,0.0,0.0,0.0,0.0,0.0,0.0,0.0,0.0,0.0,0.0,0.0,0.0,0.0,0.0,0.0,0.0,0.0,0.0,0.0,0.0,0.0,0.0,0.0,0.0,0.0,0.0,0.0,0.0,0.0,0.0,0.0,0.0,0.0,0.0,0.0,0.0,0.0,0.0,0.0,0.0,0.0,0.0,0.0,0.0,0.0,0.0,0.0,0.0,0.0,0.0,0.0,0.0,0.0,0.0,0.0,0.0,0.0,0.0,0.0,0.0,0.0,0.0,0.0,0.0,0.0,0.0,0.0,0.0,0.0,0.0,0.0,0.0,0.0,0.0,0.0,0.0,0.0,0.0,0.0,0.0,0.0,0.0,0.0,0.0,0.0,0.0,0.0,0.0,0.0,0.0,0.0,0.0,0.0,0.0,0.0,0.0,0.0,0.0,0.0,0.0,0.0,0.0,0.0,0.0,0.0,0.0,0.0,0.0,0.0,0.0,0.0,0.0,0.0,0.0,0.0,0.0,0.0,0.0,0.0,0.0,0.0,0.0,0.0,0.0,0.0,0.0,0.0,0.0,0.0,0.0,0.0,0.0,0.0,0.0,0.0,0.0,0.0,0.0,0.0,0.0,0.0,0.0,0.0,0.0,0.0,0.0,0.0,0.0,0.0,0.0,0.0,0.0,0.0,0.0,0.0,0.0,0.0,0.0,0.0,0.0,0.0,0.0,0.0,0.0,0.0,0.0,0.0,0.0,0.0,0.0,0.0,0.0,0.0,0.0,0.0,0.0,0.0,0.0,0.0,0.0,0.0,0.0,0.0,0.0,0.0,0.0,0.0,0.0,0.0,0.0,0.0,0.0,0.0,0.0,0.0,0.0,0.0,0.0,0.0,0.0,0.0,0.0,0.0,0.0,0.0,0.0,0.0,0.0,0.0,0.0,0.0,0.0,0.0,0.0,0.0,0.0,0.0,0.0,0.0,0.0,0.0,0.0,0.0,0.0,0.0,0.0,0.0,0.0,0.0,0.0,0.0,0.0,0.0,0.0,0.0,0.0,0.0,0.0,0.0,0.0,0.0,0.0,0.0,0.0,0.0,0.0,0.0,0.0,0.0,0.0,0.0,0.0,0.0,0.0,0.0,0.0,0.0,0.0,0.0,0.0,0.0,0.0,0.0,0.0,0.0,0.0,0.0,0.0,0.0,0.0,0.0,0.0,0.0,0.0,0.0,0.0,0.0,0.0,0.0,0.0,0.0,0.0,0.0,0.0,0.0,0.0,0.0,0.0,0.0,0.0,0.0,0.0,0.0,0.0,0.0,0.0,0.0,0.0,0.0,0.0,0.0,0.0,0.0,0.0,0.0,0.0,0.0,0.0,0.0,0.0,0.0,2.2874,0.0,0.0,0.0,0.0,0.0,0.0,0.0,0.0,0.0,0.0,0.0,0.0,0.0,0.0,0.0,0.0,0.0,0.0,0.0,0.0,0.0,0.0,0.0,0.0,0.0,0.0,0.0,0.0,0.0,0.0,0.0,0.0,0.0,0.0,0.0,0.0,0.0,0.0,0.0,0.0,0.0,0.0,0.0,0.0,0.0,0.0,0.0,0.0,0.0,0.0,0.0,0.0,0.0,0.0,0.0,0.0,0.0,0.0,0.0,0.0,0.0,0.0,0.0,0.0,0.0,0.0,0.0,0.0,0.0,0.0,0.0,0.0,0.0,0.0,0.0,0.0,0.0,0.0,0.0,0.0,0.0,0.0,0.0,0.0,0.0,0.0,0.0,0.0,0.0,0.0,0.0,0.0,0.0,0.0,0.0,0.0,0.0,0.0,0.0,0.0,0.0,0.0,0.0,0.0,0.0,0.0,0.0,0.0,0.0,0.0,2.4968,2.5141,2.5141,2.4392,2.287,0.0,0.0,0.0,0.0,0.0,0.0,0.0,0.0,0.0,0.0,0.0,0.0,0.0,0.0,0.0,0.0,0.0,0.0,0.0,0.0,0.0,0.0,0.0,0.0,0.0,0.0,0.0,0.0,0.0,0.0,0.0,0.0,0.0,0.0,0.0,0.0,0.0,0.0,0.0,0.0,0.0,0.0,0.0,0.0,0.0,0.0,0.0,0.0,0.0,0.0,0.0,0.0,0.0,0.0,0.0,0.0,0.0,0.0,0.0,0.0,0.0,0.0,0.0,0.0,0.0,0.0,0.0,0.0,0.0,0.0,0.0,0.0,0.0,0.0,0.0,0.0,0.0,0.0,0.0,0.0,0.0,0.0,0.0,0.0,0.0,0.0,0.0,0.0,0.0,0.0,0.0,0.0,0.0,0.0,0.0,0.0,0.0,0.0,0.0,0.0,0.0,0.0,0.0,0.0,0.0,0.0,0.0,0.0,0.0,0.0,0.0,0.0,2.5632,2.4936,2.3423,0.0,0.0,0.0,0.0,0.0,0.0,0.0,0.0,0.0,0.0,0.0,0.0,0.0,0.0,0.0,0.0,0.0,0.0,0.0,0.0,0.0,0.0,0.0,0.0,0.0,0.0,0.0,0.0,0.0,0.0,0.0,0.0,0.0,0.0,0.0,0.0,0.0,0.0,0.0,0.0,0.0,0.0,0.0,0.0,0.0,0.0,0.0,0.0,0.0,0.0,0.0,0.0,0.0,0.0,0.0,0.0,0.0,0.0,0.0,0.0,0.0,0.0,0.0,0.0,0.0,0.0,0.0,0.0,0.0,0.0,0.0,0.0,0.0,0.0,0.0,0.0,0.0,0.0,0.0,0.0,0.0,0.0,0.0,0.0,0.0,0.0,0.0,0.0,0.0,0.0,0.0,0.0,0.0,0.0,0.0,0.0,0.0,0.0,0.0,0.0,0.0,0.0,0.0,0.0,0.0,0.0,0.0,0.0,0.0,0.0,2.5575,2.7226,2.7476,0.0,2.5173,0.0,0.0,0.0,0.0,0.0,0.0,0.0,0.0,0.0,0.0,0.0,0.0,0.0,0.0,0.0,0.0,0.0,0.0,0.0,0.0,0.0,0.0,0.0,0.0,0.0,0.0,0.0,0.0,0.0,0.0,0.0,0.0,0.0,0.0,0.0,0.0,0.0,0.0,0.0,0.0,0.0,0.0,0.0,0.0,0.0,0.0,0.0,0.0,0.0,0.0,0.0,0.0,0.0,0.0,0.0,0.0,0.0,0.0,0.0,0.0,0.0,0.0,0.0,0.0,0.0,0.0,0.0,0.0,0.0,0.0,0.0,0.0,0.0,0.0,0.0,0.0,0.0,0.0,0.0,0.0,0.0,0.0,0.0,0.0,0.0,0.0,0.0,0.0,0.0,0.0,0.0,0.0,0.0,0.0,0.0,0.0,0.0,0.0,0.0,0.0,0.0,0.0,0.0,0.0,0.0,0.0,0.0,0.0,0.0,0.0,2.6683,2.754,2.6765,2.6038,0.0,0.0,0.0,0.0,0.0,0.0,0.0,0.0,0.0,0.0,0.0,0.0,0.0,0.0,0.0,0.0,0.0,0.0,0.0,0.0,0.0,0.0,0.0,0.0,0.0,0.0,0.0,0.0,0.0,0.0,0.0,0.0,0.0,0.0,0.0,0.0,0.0,0.0,0.0,0.0,0.0,0.0,0.0,0.0,0.0,0.0,0.0,0.0,0.0,0.0,0.0,0.0,0.0,0.0,0.0,0.0,0.0,0.0,0.0,0.0,0.0,0.0,0.0,0.0,0.0,0.0,0.0,0.0,0.0,0.0,0.0,0.0,0.0,0.0,0.0,0.0,0.0,0.0,0.0,0.0,0.0,0.0,0.0,0.0,0.0,0.0,0.0,0.0,0.0,0.0,0.0,0.0,0.0,0.0,0.0,0.0,0.0,0.0,0.0,0.0,0.0,0.0,0.0,0.0,0.0,0.0,0.0,0.0,0.0,0.0,2.6688,0.0,2.7924,2.711,2.5983,2.4654,0.0,0.0,0.0,0.0,0.0,0.0,0.0,0.0,0.0,0.0,0.0,0.0,0.0,0.0,0.0,0.0,0.0,0.0,0.0,0.0,0.0,0.0,0.0,0.0,0.0,0.0,0.0,0.0,0.0,0.0,0.0,0.0,0.0,0.0,0.0,0.0,0.0,0.0,0.0,0.0,0.0,0.0,0.0,0.0,0.0,0.0,0.0,0.0,0.0,0.0,0.0,0.0,0.0,0.0,0.0,0.0,0.0,0.0,0.0,0.0,0.0,0.0,0.0,0.0,0.0,0.0,0.0,0.0,0.0,0.0,0.0,0.0,0.0,0.0,0.0,0.0,0.0,0.0,0.0,0.0,0.0,0.0,0.0,0.0,0.0,0.0,0.0,0.0,0.0,0.0,0.0,0.0,0.0,0.0,0.0,0.0,0.0,0.0,0.0,0.0,0.0,0.0,0.0,0.0,0.0,0.0,0.0,0.0,0.0,2.7533,2.7873,2.9041,2.957,2.7687,0.0,0.0,0.0,0.0,0.0,0.0,0.0,0.0,0.0,0.0,0.0,0.0,0.0,0.0,0.0,0.0,0.0,0.0,0.0,0.0,0.0,0.0,0.0,0.0,0.0,0.0,0.0,0.0,0.0,0.0,0.0,0.0,0.0,0.0,0.0,0.0,0.0,0.0,0.0,0.0,0.0,0.0,0.0,0.0,0.0,0.0,0.0,0.0,0.0,0.0,0.0,0.0,0.0,0.0,0.0,0.0,0.0,0.0,0.0,0.0,0.0,0.0,0.0,0.0,0.0,0.0,0.0,0.0,0.0,0.0,0.0,0.0,0.0,0.0,0.0,0.0,0.0,0.0,0.0,0.0,0.0,0.0,0.0,0.0,0.0,0.0,0.0,0.0,0.0,0.0,0.0,0.0,0.0,0.0,0.0,0.0,0.0,0.0,0.0,0.0,0.0,0.0,0.0,0.0,0.0,0.0,0.0,0.0,0.0,2.4984,2.6643,2.8717,3.1122,2.8561,2.6453,0.0,0.0,0.0,0.0,0.0,0.0,0.0,0.0,0.0,0.0,0.0,0.0,0.0,0.0,0.0,0.0,0.0,0.0,0.0,0.0,0.0,0.0,0.0,0.0,0.0,0.0,0.0,0.0,0.0,0.0,0.0,0.0,0.0,0.0,0.0,0.0,0.0,0.0,0.0,0.0,0.0,0.0,0.0,0.0,0.0,0.0,0.0,0.0,0.0,0.0,0.0,0.0,0.0,0.0,0.0,0.0,0.0,0.0,0.0,0.0,0.0,0.0,0.0,0.0,0.0,0.0,0.0,0.0,0.0,0.0,0.0,0.0,0.0,0.0,0.0,0.0,0.0,0.0,0.0,0.0,0.0,0.0,0.0,0.0,0.0,0.0,0.0,0.0,0.0,0.0,0.0,0.0,0.0,0.0,0.0,0.0,0.0,0.0,0.0,0.0,0.0,0.0,0.0,0.0,0.0,0.0,0.0,0.0,0.0,2.4827,0.0,2.9604,0.0,2.8077,2.5759,0.0,0.0,0.0,0.0,0.0,0.0,0.0,0.0,0.0,0.0,0.0,0.0,0.0,0.0,0.0,0.0,0.0,0.0,0.0,0.0,0.0,0.0,0.0,0.0,0.0,0.0,0.0,0.0,0.0,0.0,0.0,0.0,0.0,0.0,0.0,0.0,0.0,0.0,0.0,0.0,0.0,0.0,0.0,0.0,0.0,0.0,0.0,0.0,0.0,0.0,0.0,0.0,0.0,0.0,0.0,0.0,0.0,0.0,0.0,0.0,0.0,0.0,0.0,0.0,0.0,0.0,0.0,0.0,0.0,0.0,0.0,0.0,0.0,0.0,0.0,0.0,0.0,0.0,0.0,0.0,0.0,0.0,0.0,0.0,0.0,0.0,0.0,0.0,0.0,0.0,0.0,0.0,0.0,0.0,0.0,0.0,0.0,0.0,0.0,0.0,0.0,0.0,0.0,0.0,0.0,0.0,0.0,0.0,2.3047,2.7914,2.9983,3.0339,2.8856,2.8474,2.5851,0.0,0.0,0.0,0.0,0.0,0.0,0.0,0.0,0.0,0.0,0.0,0.0,0.0,0.0,0.0,0.0,0.0,0.0,0.0,0.0,0.0,0.0,0.0,0.0,0.0,0.0,0.0,0.0,0.0,0.0,0.0,0.0,0.0,0.0,0.0,0.0,0.0,0.0,0.0,0.0,0.0,0.0,0.0,0.0,0.0,0.0,0.0,0.0,0.0,0.0,0.0,0.0,0.0,0.0,0.0,0.0,0.0,0.0,0.0,0.0,0.0,0.0,0.0,0.0,0.0,0.0,0.0,0.0,0.0,0.0,0.0,0.0,0.0,0.0,0.0,0.0,0.0,0.0,0.0,0.0,0.0,0.0,0.0,0.0,0.0,0.0,0.0,0.0,0.0,0.0,0.0,0.0,0.0,0.0,0.0,0.0,0.0,0.0,0.0,0.0,0.0,0.0,0.0,0.0,0.0,0.0,0.0,0.0,0.0,2.624,2.8326,3.0153,3.1481,2.855,2.6372,0.0,0.0,0.0,0.0,0.0,0.0,0.0,0.0,0.0,0.0,0.0,0.0,0.0,0.0,0.0,0.0,0.0,0.0,0.0,0.0,0.0,0.0,0.0,0.0,0.0,0.0,0.0,0.0,0.0,0.0,0.0,0.0,0.0,0.0,0.0,0.0,0.0,0.0,0.0,0.0,0.0,0.0,0.0,0.0,0.0,0.0,0.0,0.0,0.0,0.0,0.0,0.0,0.0,0.0,0.0,0.0,0.0,0.0,0.0,0.0,0.0,0.0,0.0,0.0,0.0,0.0,0.0,0.0,0.0,0.0,0.0,0.0,0.0,0.0,0.0,0.0,0.0,0.0,0.0,0.0,0.0,0.0,0.0,0.0,0.0,0.0,0.0,0.0,0.0,0.0,0.0,0.0,0.0,0.0,0.0,0.0,0.0,0.0,0.0,0.0,0.0,0.0,0.0,0.0,0.0,0.0,0.0,0.0,0.0,2.8397,3.0346,3.2032,3.3396,3.0096,2.7744,2.6488,0.0,0.0,0.0,0.0,0.0,0.0,0.0,0.0,0.0,0.0,0.0,0.0,0.0,0.0,0.0,0.0,0.0,0.0,0.0,0.0,0.0,0.0,0.0,0.0,0.0,0.0,0.0,0.0,0.0,0.0,0.0,0.0,0.0,0.0,0.0,0.0,0.0,0.0,0.0,0.0,0.0,0.0,0.0,0.0,0.0,0.0,0.0,0.0,0.0,0.0,0.0,0.0,0.0,0.0,0.0,0.0,0.0,0.0,0.0,0.0,0.0,0.0,0.0,0.0,0.0,0.0,0.0,0.0,0.0,0.0,0.0,0.0,0.0,0.0,0.0,0.0,0.0,0.0,0.0,0.0,0.0,0.0,0.0,0.0,0.0,0.0,0.0,0.0,0.0,0.0,0.0,0.0,0.0,0.0,0.0,0.0,0.0,0.0,0.0,0.0,0.0,0.0,0.0,0.0,0.0,0.0,0.0,0.0,3.3396,3.5432,3.5842,3.4562,3.2858,2.9898,0.0,0.0,0.0,0.0,0.0,0.0,0.0,0.0,0.0,0.0,0.0,0.0,0.0,0.0,0.0,0.0,0.0,0.0,0.0,0.0,0.0,0.0,0.0,0.0,0.0,0.0,0.0,0.0,0.0,0.0,0.0,0.0,0.0,0.0,0.0,0.0,0.0,0.0,0.0,0.0,0.0,0.0,0.0,0.0,0.0,0.0,0.0,0.0,0.0,0.0,0.0,0.0,0.0,0.0,0.0,0.0,0.0,0.0,0.0,0.0,0.0,0.0,0.0,0.0,0.0,0.0,0.0,0.0,0.0,0.0,0.0,0.0,0.0,0.0,0.0,0.0,0.0,0.0,0.0,0.0,0.0,0.0,0.0,0.0,0.0,0.0,0.0,0.0,0.0,0.0,0.0,0.0,0.0,0.0,0.0,0.0,0.0,0.0,0.0,0.0,0.0,0.0,0.0,0.0,0.0,0.0,0.0,0.0,0.0,3.5129,3.9152,4.0631,3.9228,3.5107,3.1999,0.0,0.0,0.0,0.0,0.0,0.0,0.0,0.0,0.0,0.0,0.0,0.0,0.0,0.0,0.0,0.0,0.0,0.0,0.0,0.0,0.0,0.0,0.0,0.0,0.0,0.0,0.0,0.0,0.0,0.0,0.0,0.0,0.0,0.0,0.0,0.0,0.0,0.0,0.0,0.0,0.0,0.0,0.0,0.0,0.0,0.0,0.0,0.0,0.0,0.0,0.0,0.0,0.0,0.0,0.0,0.0,0.0,0.0,0.0,0.0,0.0,0.0,0.0,0.0,0.0,0.0,0.0,0.0,0.0,0.0,0.0,0.0,0.0,0.0,0.0,0.0,0.0,0.0,0.0,0.0,0.0,0.0,0.0,0.0,0.0,0.0,0.0,0.0,0.0,0.0,0.0,0.0,0.0,0.0,0.0,0.0,0.0,0.0,0.0,0.0,0.0,0.0,0.0,0.0,0.0,0.0,0.0,0.0,3.3817,3.6995,4.1845,4.4236,4.3894,3.8965,3.4914,0.0,0.0,0.0,0.0,0.0,0.0,0.0,0.0,0.0,0.0,0.0,0.0,0.0,0.0,0.0,0.0,0.0,0.0,0.0,0.0,0.0,0.0,0.0,0.0,0.0,0.0,0.0,0.0,0.0,0.0,0.0,0.0,0.0,0.0,0.0,0.0,0.0,0.0,0.0,0.0,0.0,0.0,0.0,0.0,0.0,0.0,0.0,0.0,0.0,0.0,0.0,0.0,0.0,0.0,0.0,0.0,0.0,0.0,0.0,0.0,0.0,0.0,0.0,0.0,0.0,0.0,0.0,0.0,0.0,0.0,0.0,0.0,0.0,0.0,0.0,0.0,0.0,0.0,0.0,0.0,0.0,0.0,0.0,0.0,0.0,0.0,0.0,0.0,0.0,0.0,0.0,0.0,0.0,0.0,0.0,0.0,0.0,0.0,0.0,0.0,0.0,0.0,0.0,0.0,0.0,0.0,0.0,0.0,3.5806,3.8866,4.3762,4.6788,4.7549,4.3035,3.7962,0.0,0.0,0.0,0.0,0.0,0.0,0.0,0.0,0.0,0.0,0.0,0.0,0.0,0.0,0.0,0.0,0.0,0.0,0.0,0.0,0.0,0.0,0.0,0.0,0.0,0.0,0.0,0.0,0.0,0.0,0.0,0.0,0.0,0.0,0.0,0.0,0.0,0.0,0.0,0.0,0.0,0.0,0.0,0.0,0.0,0.0,0.0,0.0,0.0,0.0,0.0,0.0,0.0,0.0,0.0,0.0,0.0,0.0,0.0,0.0,0.0,0.0,0.0,0.0,0.0,0.0,0.0,0.0,0.0,0.0,0.0,0.0,0.0,0.0,0.0,0.0,0.0,0.0,0.0,0.0,0.0,0.0,0.0,0.0,0.0,0.0,0.0,0.0,0.0,0.0,0.0,0.0,0.0,0.0,0.0,0.0,0.0,0.0,0.0,0.0,0.0,0.0,0.0,0.0,0.0,0.0,0.0,0.0,3.734,4.0184,4.4736,4.7484,4.8126,4.2656,3.8282,0.0,0.0,0.0,0.0,0.0,0.0,0.0,0.0,0.0,0.0,0.0,0.0,0.0,0.0,0.0,0.0,0.0,0.0,0.0,0.0,0.0,0.0,0.0,0.0,0.0,0.0,0.0,0.0,0.0,0.0,0.0,0.0,0.0,0.0,0.0,0.0,0.0,0.0,0.0,0.0,0.0,0.0,0.0,0.0,0.0,0.0,0.0,0.0,2.7167,0.0,0.0,0.0,0.0,0.0,0.0,0.0,0.0,0.0,0.0,0.0,0.0,0.0,0.0,0.0,0.0,0.0,0.0,0.0,0.0,0.0,0.0,0.0,0.0,0.0,0.0,0.0,0.0,0.0,0.0,0.0,0.0,0.0,0.0,0.0,0.0,0.0,0.0,0.0,0.0,0.0,0.0,0.0,0.0,0.0,0.0,0.0,0.0,0.0,0.0,0.0,0.0,0.0,0.0,0.0,0.0,0.0,0.0,0.0,3.7605,4.0762,4.4436,4.6753,4.7388,4.3256,3.9545,0.0,0.0,0.0,0.0,0.0,0.0,0.0,0.0,0.0,0.0,0.0,0.0,0.0,0.0,0.0,0.0,0.0,0.0,0.0,0.0,0.0,0.0,0.0,0.0,0.0,0.0,0.0,0.0,0.0,0.0,0.0,0.0,0.0,0.0,0.0,0.0,0.0,0.0,0.0,0.0,0.0,0.0,0.0,0.0,0.0,0.0,0.0,0.0,0.0,0.0,0.0,0.0,0.0,0.0,0.0,0.0,0.0,0.0,0.0,0.0,0.0,0.0,0.0,0.0,0.0,0.0,0.0,0.0,0.0,0.0,0.0,0.0,0.0,0.0,0.0,0.0,0.0,0.0,0.0,0.0,0.0,0.0,0.0,0.0,0.0,0.0,0.0,0.0,0.0,0.0,0.0,0.0,0.0,0.0,0.0,0.0,0.0,0.0,0.0,0.0,0.0,0.0,0.0,0.0,0.0,0.0,0.0,3.3476,3.7434,4.1213,4.3847,4.5631,4.6469,4.3946,4.0668,3.6756,0.0,0.0,0.0,0.0,0.0,0.0,0.0,0.0,0.0,0.0,0.0,0.0,0.0,0.0,0.0,0.0,0.0,0.0,0.0,0.0,0.0,0.0,0.0,0.0,0.0,0.0,0.0,0.0,0.0,0.0,0.0,0.0,0.0,0.0,0.0,0.0,0.0,0.0,2.5724,2.6153,0.0,0.0,0.0,0.0,0.0,0.0,0.0,0.0,2.7746,0.0,0.0,0.0,0.0,0.0,0.0,0.0,0.0,0.0,0.0,0.0,0.0,0.0,0.0,0.0,0.0,0.0,0.0,0.0,0.0,0.0,0.0,0.0,0.0,0.0,0.0,0.0,0.0,0.0,0.0,0.0,0.0,0.0,0.0,0.0,0.0,0.0,0.0,0.0,0.0,0.0,0.0,0.0,0.0,0.0,0.0,0.0,0.0,0.0,0.0,0.0,0.0,0.0,0.0,0.0,0.0,3.2699,3.4545,3.7771,4.2542,4.4252,4.5201,4.5312,4.3051,3.9912,3.5925,0.0,0.0,0.0,0.0,0.0,0.0,0.0,0.0,0.0,0.0,0.0,0.0,0.0,0.0,0.0,0.0,0.0,0.0,0.0,0.0,0.0,0.0,0.0,0.0,0.0,0.0,0.0,0.0,0.0,0.0,0.0,0.0,0.0,0.0,0.0,0.0,0.0,0.0,0.0,2.8097,2.8466,0.0,0.0,0.0,0.0,0.0,0.0,0.0,0.0,2.8941,0.0,0.0,0.0,0.0,0.0,0.0,0.0,0.0,0.0,0.0,0.0,0.0,0.0,0.0,0.0,0.0,0.0,0.0,0.0,0.0,0.0,0.0,0.0,0.0,0.0,0.0,0.0,0.0,0.0,0.0,0.0,0.0,0.0,0.0,0.0,0.0,0.0,0.0,0.0,0.0,0.0,0.0,0.0,0.0,0.0,0.0,0.0,0.0,0.0,0.0,0.0,0.0,0.0,0.0,0.0,3.2615,3.5165,3.8374,4.2396,4.3464,4.4106,4.4335,4.1207,3.8029,0.0,0.0,0.0,0.0,0.0,0.0,0.0,0.0,0.0,0.0,0.0,0.0,0.0,0.0,0.0,0.0,0.0,0.0,0.0,0.0,0.0,0.0,0.0,0.0,0.0,0.0,0.0,0.0,0.0,0.0,0.0,0.0,0.0,0.0,0.0,0.0,0.0,0.0,0.0,0.0,2.9426,3.017,3.1688,0.0,0.0,0.0,0.0,0.0,0.0,3.021,2.9887,0.0,0.0,0.0,0.0,0.0,0.0,0.0,0.0,0.0,0.0,0.0,0.0,0.0,0.0,0.0,0.0,0.0,0.0,0.0,0.0,0.0,0.0,0.0,0.0,0.0,0.0,0.0,0.0,0.0,0.0,0.0,0.0,0.0,0.0,0.0,0.0,0.0,0.0,0.0,0.0,0.0,0.0,0.0,0.0,0.0,0.0,0.0,0.0,0.0,0.0,0.0,0.0,0.0,0.0,0.0,3.2022,3.5229,3.8474,4.1693,4.2399,4.2967,4.3464,3.9477,3.6283,0.0,0.0,0.0,0.0,0.0,0.0,0.0,0.0,0.0,0.0,0.0,0.0,0.0,0.0,0.0,0.0,0.0,0.0,0.0,0.0,0.0,0.0,0.0,0.0,0.0,0.0,0.0,0.0,0.0,0.0,0.0,0.0,0.0,0.0,0.0,0.0,0.0,0.0,0.0,0.0,0.0,3.2282,3.4147,3.2637,0.0,0.0,0.0,0.0,3.0834,3.1604,0.0,0.0,0.0,0.0,0.0,0.0,0.0,0.0,0.0,0.0,0.0,0.0,0.0,0.0,0.0,0.0,0.0,0.0,0.0,0.0,0.0,0.0,0.0,0.0,0.0,0.0,0.0,0.0,0.0,0.0,0.0,0.0,0.0,0.0,0.0,0.0,0.0,0.0,0.0,0.0,0.0,0.0,0.0,0.0,0.0,0.0,0.0,0.0,0.0,0.0,0.0,0.0,0.0,0.0,0.0,0.0,3.1952,3.4189,3.7124,4.0834,4.1631,4.2225,4.2764,3.8674,3.5457,0.0,0.0,0.0,0.0,0.0,0.0,0.0,0.0,0.0,0.0,0.0,0.0,0.0,0.0,0.0,0.0,0.0,0.0,0.0,0.0,0.0,0.0,0.0,0.0,0.0,0.0,0.0,0.0,0.0,0.0,0.0,0.0,0.0,0.0,0.0,0.0,0.0,0.0,0.0,0.0,0.0,3.5183,3.4949,3.3577,3.2616,0.0,0.0,3.3152,3.4661,3.5942,0.0,0.0,0.0,0.0,0.0,0.0,0.0,0.0,0.0,0.0,0.0,0.0,0.0,0.0,0.0,0.0,0.0,0.0,0.0,0.0,0.0,0.0,0.0,0.0,0.0,0.0,0.0,0.0,0.0,0.0,0.0,0.0,0.0,0.0,0.0,0.0,0.0,0.0,0.0,0.0,0.0,0.0,0.0,0.0,0.0,0.0,0.0,0.0,0.0,0.0,0.0,0.0,0.0,0.0,0.0,2.7969,3.1469,3.4882,3.7968,4.0626,4.1086,4.1665,4.245,3.6817,3.3363,0.0,0.0,0.0,0.0,0.0,0.0,0.0,0.0,0.0,0.0,0.0,0.0,0.0,0.0,0.0,0.0,0.0,0.0,0.0,0.0,0.0,0.0,0.0,0.0,0.0,0.0,0.0,0.0,0.0,0.0,0.0,0.0,0.0,0.0,0.0,0.0,0.0,0.0,0.0,0.0,0.0,0.0,3.6082,3.5736,0.0,0.0,0.0,3.4958,3.5148,0.0,0.0,0.0,0.0,0.0,0.0,0.0,0.0,0.0,0.0,0.0,0.0,0.0,0.0,0.0,0.0,0.0,0.0,0.0,0.0,0.0,0.0,0.0,0.0,0.0,0.0,0.0,0.0,0.0,0.0,0.0,0.0,0.0,0.0,0.0,0.0,0.0,0.0,0.0,0.0,0.0,0.0,0.0,0.0,0.0,0.0,0.0,0.0,0.0,0.0,0.0,0.0,0.0,0.0,0.0,0.0,0.0,3.1021,3.5565,3.8704,4.0341,4.0729,4.1258,4.1937,3.6385,0.0,0.0,0.0,0.0,0.0,0.0,0.0,0.0,0.0,0.0,0.0,0.0,0.0,0.0,0.0,0.0,0.0,0.0,0.0,0.0,0.0,0.0,0.0,0.0,0.0,0.0,0.0,1.7833,0.0,0.0,0.0,0.0,0.0,0.0,0.0,0.0,0.0,0.0,0.0,0.0,0.0,0.0,3.6182,3.7623,3.7956,3.8254,0.0,0.0,3.6626,3.6189,3.8037,3.7806,0.0,0.0,0.0,0.0,0.0,0.0,0.0,0.0,0.0,0.0,0.0,0.0,0.0,0.0,0.0,0.0,0.0,0.0,0.0,0.0,0.0,0.0,0.0,0.0,0.0,0.0,0.0,0.0,0.0,0.0,0.0,0.0,0.0,0.0,0.0,0.0,0.0,0.0,0.0,0.0,0.0,0.0,0.0,0.0,0.0,0.0,0.0,0.0,0.0,0.0,0.0,0.0,0.0,0.0,0.0,3.1074,3.5565,3.8514,3.9824,4.0545,4.1064,4.1393,3.8797,3.5296,0.0,0.0,0.0,0.0,0.0,0.0,0.0,0.0,0.0,0.0,0.0,0.0,0.0,0.0,0.0,0.0,0.0,0.0,0.0,0.0,0.0,0.0,0.0,0.0,0.0,0.0,0.0,0.0,0.0,0.0,0.0,0.0,0.0,0.0,0.0,0.0,0.0,0.0,0.0,0.0,0.0,3.8816,3.9706,3.9752,4.0508,0.0,0.0,3.7992,3.9272,4.1179,4.0515,3.4429,0.0,0.0,0.0,0.0,0.0,0.0,0.0,0.0,0.0,0.0,0.0,0.0,0.0,0.0,0.0,0.0,0.0,0.0,0.0,0.0,0.0,0.0,0.0,0.0,0.0,0.0,0.0,0.0,0.0,0.0,0.0,0.0,0.0,0.0,0.0,0.0,0.0,0.0,0.0,0.0,0.0,0.0,0.0,0.0,0.0,0.0,0.0,0.0,0.0,0.0,0.0,0.0,0.0,2.7907,2.9983,3.4754,3.7803,3.9018,3.9935,4.0574,4.0905,3.8088,3.4745,0.0,0.0,0.0,0.0,0.0,0.0,0.0,0.0,0.0,0.0,0.0,0.0,0.0,0.0,0.0,0.0,0.0,0.0,0.0,0.0,0.0,0.0,0.0,0.0,0.0,0.0,0.0,0.0,2.5015,2.5451,2.4733,0.0,0.0,0.0,0.0,0.0,0.0,0.0,0.0,0.0,0.0,3.9437,4.1139,4.1741,0.0,0.0,4.1049,3.998,4.0452,4.0756,3.9441,3.5065,3.3256,0.0,0.0,0.0,0.0,0.0,0.0,0.0,0.0,0.0,0.0,0.0,0.0,0.0,0.0,0.0,0.0,0.0,0.0,0.0,0.0,0.0,0.0,0.0,0.0,0.0,0.0,0.0,0.0,0.0,0.0,0.0,0.0,0.0,0.0,0.0,0.0,0.0,0.0,0.0,0.0,0.0,0.0,0.0,0.0,0.0,0.0,0.0,0.0,0.0,0.0,0.0,0.0,2.7531,2.9659,3.4381,3.7402,3.8677,3.9604,4.0179,4.0284,3.8297,3.5545,0.0,0.0,0.0,0.0,0.0,0.0,0.0,0.0,0.0,0.0,0.0,0.0,0.0,0.0,0.0,0.0,0.0,0.0,0.0,0.0,0.0,0.0,0.0,0.0,0.0,0.0,0.0,0.0,2.5496,2.5195,2.3954,0.0,0.0,0.0,0.0,0.0,0.0,0.0,0.0,0.0,0.0,4.036,4.2001,4.2274,4.1953,4.1128,4.019,3.956,3.9446,3.9472,3.8528,3.5564,0.0,0.0,0.0,0.0,0.0,0.0,0.0,0.0,0.0,0.0,0.0,0.0,0.0,0.0,0.0,0.0,0.0,0.0,0.0,0.0,0.0,0.0,0.0,0.0,0.0,0.0,0.0,0.0,0.0,0.0,1.9375,0.0,0.0,0.0,0.0,0.0,0.0,0.0,0.0,0.0,0.0,0.0,0.0,0.0,0.0,0.0,0.0,0.0,0.0,0.0,0.0,0.0,0.0,2.7817,3.0459,3.4653,3.751,3.8842,3.9688,3.9978,3.9755,4.0214,3.8536,3.4395,0.0,0.0,0.0,0.0,0.0,0.0,0.0,0.0,0.0,0.0,0.0,0.0,0.0,0.0,0.0,0.0,0.0,0.0,0.0,0.0,0.0,0.0,0.0,0.0,0.0,0.0,2.2836,2.3649,2.3736,0.0,0.0,0.0,0.0,0.0,0.0,0.0,0.0,0.0,0.0,3.9304,4.196,4.2051,4.0886,3.966,3.8349,3.6944,3.5998,3.6048,3.7707,3.8342,0.0,0.0,0.0,0.0,0.0,0.0,0.0,0.0,0.0,0.0,0.0,0.0,0.0,0.0,0.0,0.0,0.0,0.0,0.0,0.0,0.0,0.0,0.0,0.0,0.0,0.0,0.0,2.4013,2.2494,0.0,0.0,0.0,0.0,0.0,0.0,0.0,0.0,0.0,0.0,0.0,3.3181,3.4442,0.0,0.0,0.0,0.0,0.0,0.0,0.0,0.0,0.0,0.0,0.0,0.0,2.8736,3.0321,3.5086,3.8022,3.8875,3.9688,4.0052,3.9985,4.0385,3.883,3.5115,0.0,0.0,0.0,0.0,0.0,0.0,0.0,0.0,0.0,0.0,0.0,0.0,0.0,0.0,0.0,0.0,0.0,0.0,0.0,0.0,0.0,0.0,0.0,0.0,0.0,2.2846,0.0,0.0,0.0,0.0,0.0,0.0,0.0,0.0,0.0,0.0,0.0,3.3154,3.6596,3.8736,4.0151,4.068,4.0739,4.0669,0.0,0.0,0.0,0.0,0.0,0.0,0.0,0.0,0.0,0.0,0.0,0.0,0.0,0.0,4.1544,3.5584,3.5206,3.5949,3.6121,0.0,0.0,0.0,0.0,0.0,0.0,0.0,0.0,0.0,0.0,0.0,0.0,0.0,0.0,2.7861,0.0,2.5485,0.0,0.0,0.0,0.0,0.0,0.0,0.0,0.0,3.4821,3.7096,3.7968,3.9205,3.9131,0.0,3.7628,3.4195,0.0,0.0,0.0,0.0,0.0,0.0,0.0,0.0,2.935,3.0919,3.5571,3.8434,3.9282,3.9808,4.0113,4.0104,4.0436,3.9455,3.7091,3.4889,3.2336,0.0,0.0,0.0,0.0,0.0,0.0,0.0,0.0,0.0,0.0,0.0,0.0,0.0,0.0,0.0,0.0,0.0,0.0,0.0,0.0,0.0,0.0,0.0,2.277,0.0,0.0,0.0,0.0,0.0,0.0,0.0,0.0,0.0,2.8461,3.1953,3.5524,3.8458,3.9641,3.9898,3.8951,0.0,0.0,0.0,0.0,0.0,0.0,0.0,3.6718,3.7796,3.7588,3.7866,3.9738,4.2753,4.4942,4.4902,0.0,0.0,4.052,4.0122,4.0775,4.0892,4.159,4.2391,4.3235,4.4187,4.4923,0.0,0.0,0.0,0.0,0.0,0.0,0.0,0.0,3.3565,3.3208,0.0,3.0836,0.0,0.0,0.0,0.0,0.0,3.2371,0.0,0.0,4.2374,4.4563,4.2561,4.3258,4.3221,4.2433,4.1627,3.939,3.59,3.2985,0.0,0.0,0.0,0.0,0.0,0.0,2.9769,3.2439,3.6171,3.8744,4.0054,4.0096,4.0096,4.0154,4.0431,4.0468,4.0184,3.851,3.6468,3.3985,3.0148,0.0,0.0,0.0,0.0,0.0,0.0,0.0,0.0,0.0,0.0,0.0,0.0,0.0,0.0,0.0,0.0,0.0,0.0,0.0,0.0,2.2595,0.0,0.0,0.0,0.0,0.0,0.0,0.0,0.0,0.0,0.0,3.0836,3.4786,3.8545,4.0356,0.0,0.0,0.0,0.0,3.661,3.1974,3.2597,3.3551,3.287,3.5461,3.82,3.9895,0.0,0.0,4.4186,4.5409,4.6171,4.5283,4.7701,4.9325,4.7865,4.6649,4.6019,4.5847,4.5969,4.6138,4.6537,4.7688,4.845,4.2369,0.0,0.0,0.0,0.0,3.5548,3.5989,3.7851,3.6658,3.5808,3.5194,3.3985,0.0,0.0,0.0,0.0,0.0,0.0,3.6613,3.8888,4.2083,4.4307,4.5755,4.6544,4.6507,4.5718,4.5052,4.37,4.1693,3.987,3.5066,2.7556,0.0,0.0,0.0,0.0,3.3084,3.4742,3.7838,3.9682,4.0096,4.0113,4.0286,4.0655,4.0758,4.0898,4.1049,4.0546,3.9084,3.6527,3.4211,0.0,0.0,0.0,0.0,0.0,0.0,0.0,0.0,0.0,0.0,0.0,0.0,0.0,0.0,0.0,0.0,0.0,0.0,0.0,2.2806,2.3945,2.4387,0.0,0.0,0.0,0.0,0.0,0.0,0.0,0.0,0.0,3.4637,3.5953,3.6836,0.0,0.0,3.5663,3.3289,3.507,3.6511,3.6006,3.6925,0.0,3.9349,3.8769,3.9113,4.1805,4.4381,4.6073,4.6016,4.7627,4.8851,4.8557,4.9692,5.0688,5.0853,5.0739,5.0563,5.0602,5.0842,5.1418,5.2328,5.2875,5.3134,4.7874,4.4088,4.1324,4.0817,4.1687,3.9954,4.039,4.2211,4.1109,4.0358,3.9815,3.8444,3.7043,3.5651,3.4615,0.0,0.0,0.0,3.9359,4.1874,4.3676,4.547,4.7188,4.7718,4.77,4.7186,4.6578,4.5579,4.4185,4.281,3.8699,3.2126,0.0,0.0,2.9541,3.286,3.5061,3.6129,3.8717,4.0113,4.0113,4.0113,4.0254,4.0577,4.078,4.1001,4.1209,4.1435,4.0702,3.8793,3.6749,3.3789,0.0,0.0,0.0,0.0,0.0,0.0,0.0,0.0,0.0,0.0,0.0,2.3056,2.0367,0.0,0.0,0.0,2.3867,2.4883,2.6047,2.6624,0.0,0.0,0.0,0.0,0.0,0.0,0.0,3.1565,3.4811,3.7146,3.7493,3.7178,3.6921,3.6814,3.61,3.4869,3.3,0.0,3.7399,3.73,3.8494,3.9824,4.1055,4.0335,4.0548,4.3319,4.5309,4.667,4.7113,4.823,4.9253,4.9873,5.0362,5.0876,5.1569,5.1837,5.2176,5.271,5.3159,5.3706,5.445,5.4731,5.4938,5.1086,5.0766,4.69,4.5275,4.5233,4.4666,4.5207,4.652,4.5988,4.5805,4.5618,4.3589,4.1716,3.9945,3.7563,0.0,3.8631,4.0932,4.2911,4.4572,4.6461,4.7331,4.7302,4.7302,4.7338,4.7302,4.6641,4.5694,4.4495,4.3086,4.0958,3.82,3.6772,3.5052,3.323,3.4865,3.6214,3.706,3.9063,4.0146,4.0197,4.018,4.0163,4.0096,4.0508,4.0753,4.0839,4.1332,4.1276,4.0477,3.8131,3.5485,3.2595,0.0,0.0,0.0,0.0,0.0,0.0,0.0,0.0,0.0,0.0,0.0,0.0,0.0,0.0,0.0,2.7333,0.0,3.1417,3.0255,0.0,0.0,0.0,3.0131,3.2013,3.439,3.6073,3.6493,0.0,0.0,3.9414,3.8341,3.8047,3.9327,3.8392,3.6849,3.4684,3.7097,3.8595,3.6571,3.8178,3.9571,3.9965,4.0868,4.2356,4.4332,4.5597,4.6493,4.7241,4.7622,4.8253,4.9448,4.9844,5.0157,5.0894,5.1025,5.1436,5.271,5.3291,5.3646,5.3721,5.4117,5.4452,5.1086,5.0971,4.9433,4.873,4.8611,4.737,4.7067,4.7368,4.6783,4.6532,4.6481,4.5957,4.549,4.5015,4.4412,4.4034,4.3893,4.5046,4.5451,4.5329,4.6314,4.6748,4.6618,4.6641,4.6641,4.6594,4.6014,4.5561,4.5217,4.4418,4.2811,4.051,4.0028,3.8224,3.5123,3.6524,3.8024,3.9309,3.9834,4.0358,4.0916,4.0933,4.0663,4.0113,3.9685,3.9634,4.0037,4.0049,3.9972,3.9818,3.8976,3.7165,3.4253,3.0459,0.0,0.0,0.0,0.0,0.0,0.0,0.0,0.0,0.0,2.6378,2.1935,0.0,2.7644,0.0,2.944,3.2002,3.3578,3.3844,0.0,0.0,3.4943,3.5407,3.7331,3.8555,3.9088,3.8695,3.9168,3.9557,3.9557,3.7743,3.6981,3.8226,3.6681,3.4842,3.3679,3.5568,3.7044,3.6884,3.9139,4.1033,4.1215,4.2745,4.411,4.4713,4.5561,4.6279,4.6488,4.7138,4.7754,4.8142,4.8776,4.9445,5.01,5.0269,5.0554,5.1419,5.2058,5.2609,5.2962,5.3514,5.4047,5.0146,5.0118,4.9722,4.916,4.8504,4.8352,4.8271,4.8242,4.7929,4.7597,4.7259,4.6938,4.6786,4.6786,4.6786,4.6583,4.6227,4.6616,4.6544,4.6117,4.6761,4.6865,4.6498,4.6498,4.6322,4.5965,4.5381,4.5089,4.5062,4.4776,4.3927,4.2726,4.2709,4.1322,3.8684,3.8142,3.8311,3.9099,3.9766,4.0595,4.1627,4.1356,4.0544,3.9157,3.8717,3.8003,3.6984,3.7153,3.7199,3.7108,3.6677,3.5686,3.3947,3.0986,2.8774,0.0,0.0,0.0,0.0,0.0,0.0,0.0,0.0,0.0,0.0,0.0,3.0274,2.9735,3.2721,3.4981,3.5714,3.6671,3.7734,3.8996,3.9095,3.9858,4.1818,4.2357,4.2432,4.2087,4.2115,4.2125,4.2085,4.0576,3.9585,4.0027,3.8496,3.6817,3.576,3.6919,3.8193,3.8777,4.0796,4.2371,4.2371,4.3334,4.4143,4.4182,4.454,4.5048,4.5473,4.5977,4.6486,4.6902,4.7406,4.7868,4.8217,4.8295,4.8467,4.8889,4.979,5.0839,5.1843,5.2572,5.3156,4.9086,4.9018,4.9018,4.8257,4.7192,4.846,4.8781,4.8443,4.8443,4.8189,4.7703,4.7276,4.7073,4.7073,4.7073,4.7039,4.6938,4.7039,4.6972,4.6844,4.7448,4.7331,4.6615,4.6633,4.6218,4.5501,4.4977,4.4699,4.4598,4.4598,4.4513,4.4327,4.431,4.3548,4.1965,3.9462,3.8176,3.821,3.9623,4.095,4.21,4.1356,3.9918,3.7889,3.7669,3.6282,3.3592,3.4164,3.4371,3.394,3.3658,3.3488,3.3365,3.1442,3.0248,0.0,2.8507,0.0,0.0,0.0,0.0,0.0,0.0,0.0,0.0,3.3116,3.3562,3.419,3.6492,3.7988,3.8153,3.929,4.0726,4.2425,4.2725,4.3474,4.505,4.5289,4.5289,4.5289,4.5165,4.5066,4.4837,4.4092,4.3098,4.2295,4.1343,4.0169,3.9141,3.9152,3.9788,4.1197,4.233,4.286,4.3115,4.329,4.3369,4.3344,4.3409,4.3576,4.4472,4.4774,4.5079,4.585,4.6173,4.6314,4.6208,4.6343,4.6391,4.6488,4.7688,4.9114,5.043,5.1458,5.1952,4.9543,4.9018,4.9018,4.8849,4.8612,4.8883,4.7631,4.5444,4.5444,4.6007,4.7073,4.8122,4.8578,4.8578,4.8595,4.8257,4.775,4.8325,4.7936,4.6802,4.7513,4.7483,4.677,4.6765,4.6362,4.5682,4.554,4.5179,4.4615,4.4598,4.3972,4.2743,4.2726,4.2008,4.057,0.0,0.0,0.0,4.1153,4.1728,4.1373,4.0104,3.8633,3.7083,3.6383,0.0,3.3541,3.4528,3.4641,3.3641,3.496,0.0,0.0,0.0,0.0,0.0,0.0,0.0,0.0,0.0,0.0,0.0,3.4028,3.3184,3.3367,3.5264,3.7019,3.8197,3.9723,4.107,4.2079,4.2886,4.3539,4.3913,4.4421,4.49,4.5274,4.5304,4.5289,4.5289,4.4505,4.3978,4.4007,4.2904,4.2181,4.2189,4.1758,4.1895,4.2461,4.0285,3.9046,4.0045,4.138,4.2275,4.3155,4.3265,4.3305,4.3305,4.3305,4.3369,4.3591,4.4259,4.4721,4.4989,4.567,4.6087,4.6119,4.6653,4.6541,4.6301,4.7236,4.8397,4.8975,5.0268,5.1292,4.9881,0.0,4.9137,4.8578,0.0,4.7902,4.665,4.4716,4.6143,4.7175,4.7936,4.868,4.9018,4.8968,4.824,4.7716,4.7344,4.6989,4.6849,4.6819,4.7192,4.7361,4.7344,4.7344,4.6955,4.6261,4.6244,4.6041,4.5686,4.5698,4.528,4.4502,4.4164,4.3606,4.2905,4.2516,4.1931,4.1204,4.1914,4.2472,4.2794,4.1762,4.029,3.8522,3.8065,0.0,0.0,0.0,0.0,0.0,0.0,0.0,0.0,0.0,0.0,3.7729,3.7483,3.766,3.8472,3.7999,3.8319,3.9745,3.9249,3.8153,3.6567,3.8826,4.0584,4.1242,4.1968,4.2707,4.3703,4.4122,4.4571,4.5214,4.5603,4.5918,4.6217,4.6277,4.6292,4.6234,4.5793,4.5433,4.5433,4.4953,4.4368,4.405,4.4051,4.4124,4.4192,4.2392,4.104,4.1211,4.134,4.1753,4.2386,4.2996,4.3305,4.3305,4.3305,4.3076,4.2563,4.2866,4.3061,4.2607,4.2773,4.3159,4.3464,4.3778,4.4178,4.4771,4.5716,4.6755,4.7513,4.9108,5.0229,5.0321,5.0033,4.9441,4.8409,4.7192,4.7192,4.6498,4.5529,0.0,0.0,0.0,4.8883,4.9018,4.8917,4.7733,4.7192,4.7107,4.5935,4.6053,4.7158,4.7192,4.7513,4.8058,4.8075,4.7716,4.7005,4.6989,4.6921,4.6786,4.6786,4.6786,4.6735,4.6194,4.5838,4.5669,4.5094,4.4124,4.276,4.2422,4.2895,4.4124,4.3301,4.188,3.996,3.991,3.864,3.596,3.6688,3.6955,3.649,3.6394,3.6888,3.8052,3.8558,3.9497,4.0992,4.1796,4.254,4.3361,4.2832,4.2819,4.3578,4.3415,4.2378,4.0225,4.2049,4.3305,4.3305,4.3394,4.3693,4.4272,4.4556,4.511,4.6175,4.6384,4.6711,4.7204,4.7309,4.7249,4.7309,4.7206,4.7294,4.7206,4.7148,4.7186,4.6819,4.6638,4.6698,4.6124,4.4818,4.3401,4.2782,4.259,4.238,4.242,4.295,4.3389,4.3178,4.3108,4.2725,4.1801,4.1452,4.11,4.0723,4.0148,4.0475,4.0813,4.1299,4.1466,4.279,4.3906,4.48,4.5662,4.7262,4.8396,5.1234,5.0067,4.9982,4.9458,4.8697,4.868,4.8562,4.8308,4.7496,4.7107,4.7175,4.8443,4.9018,4.8984,4.8781,4.8697,4.868,4.846,4.8494,4.8697,4.8697,4.8748,4.8849,4.8849,4.8477,4.777,4.7736,4.7428,4.6853,4.6802,4.6786,4.6802,4.6684,4.6329,4.5737,4.5602,4.5128,4.4276,4.2946,4.2388,4.2591,4.128,4.013,3.9249,3.9208,3.8386,3.6745,3.799,3.8287,3.7477,3.8552,3.9847,4.125,4.196,4.3111,4.4772,4.5602,4.566,4.4859,4.4717,4.4259,4.3452,4.3309,4.311,4.2796,4.3065,4.3305,4.3319,4.3783,4.4212,4.4377,4.5319,4.601,4.6294,4.683,4.7204,4.7309,4.7309,4.7309,4.7309,4.7309,4.7309,4.7309,4.7381,4.7734,4.8239,4.8157,4.8568,4.858,4.7017,4.483,4.389,4.4242,4.47,4.4383,4.4333,4.3872,4.2829,4.2745,4.2408,4.1159,4.0984,4.096,4.1145,4.0607,4.0639,4.1146,4.1893,4.1929,4.2021,4.2887,4.3452,4.2951,4.4006,4.5429,5.1894,5.1268,5.0862,5.027,4.956,4.9171,4.9018,4.8951,4.8308,4.8003,4.8054,4.8714,4.9018,4.8917,4.8156,4.78,4.7784,4.6972,4.7022,4.7784,4.78,4.824,4.8951,4.9018,4.8832,4.8511,4.8511,4.8325,4.8003,4.8003,4.8003,4.797,4.7597,4.7022,4.6346,4.6295,4.6143,4.5754,4.4327,4.3565,4.3521,4.2888,4.2132,4.1371,4.1786,4.1509,4.0377,4.1819,4.221,4.128,4.2265,4.2907,4.3088,4.38,4.4545,4.5339,4.6076,4.6022,4.5016,4.4412,4.3869,4.3339,4.3305,4.3305,4.3305,4.3305,4.3305,4.3319,4.3888,4.4466,4.4811,4.5738,4.6456,4.683,4.7145,4.7309,4.7309,4.7309,4.7309,4.7337,4.7807,4.7919,4.7337,4.8267,4.88,4.8907,4.8784,4.8882,4.8815,4.7486,4.6045,4.5202,4.5084,4.4879,4.456,4.4703,4.4537,4.4118,4.4034,4.3227,4.1714,4.1221,4.0786,3.9804,3.941,3.948,4.004,4.0307,4.0729,4.1643,4.1927,4.2241,4.2579,4.3171,4.4237,5.2452,5.2249,5.1691,5.093,5.005,4.9492,4.9171,4.9018,4.9001,4.9018,4.9018,4.9018,4.9018,4.8883,4.7784,4.7293,4.7124,4.6109,4.621,4.7208,4.7293,4.7902,4.8917,4.9018,4.9018,4.9018,4.9018,4.9018,4.9018,4.9018,4.9018,4.8951,4.8443,4.7784,4.7056,4.6844,4.6653,4.6417,4.5358,4.4702,4.4579,4.4495,4.4066,4.3371,4.4003,4.4132,4.3586,4.4863,4.526,4.4572,4.5031,4.5081,4.4557,4.4843,4.511,4.5368,4.5869,4.5762,4.4834,4.3834,4.3305,4.3305,4.3305,4.3305,4.3305,4.3305,4.3305,4.3379,4.4022,4.4766,4.5274,4.6067,4.6826,4.7505,4.7424,4.7409,4.7566,4.7467,4.7309,4.7381,4.7988,4.8099,4.7807,4.8708,4.9311,4.8866,4.8784,4.8527,4.8072,4.7849,4.7347,4.6818,4.609,4.5496,4.4587,4.5027,4.532,4.5248,4.5023,4.3979,4.2446,4.1705,4.1039,3.945,3.8576,3.8741,3.9007,3.9171,3.9753,4.0787,4.113,4.1429,4.2137,4.2291,4.3263,5.2959,5.235,5.2249,5.1369,5.0185,5.0033,4.9644,4.9103,4.9018,4.9018,4.9052,4.9018,4.9018,4.9001,4.8815,4.8731,4.8731,4.8646,4.8612,4.8714,4.8798,4.8883,4.9001,4.9018,4.9018,4.9018,4.9018,4.9018,4.9018,4.9018,4.9018,4.9001,4.8934,4.8528,4.7794,4.6995,4.6251,4.5559,4.541,4.5014,4.4436,4.4172,4.373,4.3072,4.3698,4.4035,4.3922,4.4901,4.5309,4.5064,4.5074,4.5376,4.578,4.5269,4.5191,4.5955,4.6106,4.5798,4.4834,4.3888,4.3305,4.3305,4.3305,4.3305,4.3305,4.3305,4.3305,4.3484,4.4466,4.517,4.5364,4.6454,4.7543,4.8221,4.7849,4.7651,4.8252,4.7834,4.7309,4.7309,4.7538,4.7424,4.7424,4.7737,4.8072,4.8743,4.8784,4.8948,4.9287,4.88,4.8346,4.8239,4.7661,4.7053,4.672,4.6433,4.5964,4.5055,4.4602,4.3951,4.2879,4.1707,4.0786,4.0385,3.9725,3.9057,3.9346,3.9622,3.9648,3.9968,4.0083,4.0032,4.0083,4.0313,4.1482,5.3331,5.3027,5.301,5.2401,5.1403,5.0947,5.0574,5.0287,4.983,4.9644,4.9576,4.9187,4.9018,4.9018,4.9018,4.9018,4.9018,4.9018,4.9018,4.9018,4.9018,4.9018,4.9018,4.9018,4.9018,4.9018,4.9018,4.9018,4.9018,4.9018,4.9018,4.9018,4.9018,4.8849,4.8531,4.8171,4.783,4.7515,4.699,4.6353,4.5774,4.5671,4.5251,4.4592,4.4691,4.456,4.4191,4.4797,4.493,4.4358,4.4678,4.4783,4.4486,4.4128,4.4051,4.4426,4.4479,4.4343,4.3966,4.3512,4.3305,4.3305,4.3305,4.3305,4.3305,4.3305,4.3305,4.3454,4.4526,4.5289,4.5421,4.7046,4.8141,4.803,4.803,4.8141,4.7876,4.7566,4.7309,4.7352,4.7834,4.7919,4.7538,4.7834,4.8293,4.8743,4.8784,4.8866,4.8666,4.8198,4.7946,4.7876,4.7523,4.7337,4.7279,4.7115,4.6632,4.6181,4.5476,4.4578,4.3431,4.2145,4.1169,4.0718,3.9893,3.9434,3.9597,3.9685,3.9697,3.9697,3.9722,3.9772,4.0111,4.0187,4.1158,5.367,5.3518,5.3518,5.3044,5.2283,5.1742,5.1386,5.1166,5.0608,5.0287,5.0033,4.9526,4.9187,4.9018,4.9018,4.9018,4.9018,4.9018,4.9018,4.9018,4.9018,4.9018,4.9018,4.9018,4.9018,4.9018,4.9018,4.9018,4.9018,4.9018,4.9018,4.9018,4.9018,4.9018,4.897,4.8798,4.8625,4.8528,4.7901,4.7358,4.6977,4.722,4.679,4.5552,4.5029,4.4635,4.4322,4.4779,4.4712,4.4031,4.4511,4.4472,4.3771,4.3472,4.3305,4.3305,4.3305,4.3305,4.3305,4.3305,4.3305,4.3305,4.3305,4.3305,4.3305,4.3305,4.3379,4.3688,4.4631,4.5289,4.5533,4.7182,4.8054,4.7807,4.8225,4.8141,4.7807,4.7538,4.7309,4.7396,4.7849,4.8157,4.7566,4.7876,4.8377,4.8702,4.8784,4.8594,4.7988,4.8046,4.8115,4.7467,4.7523,4.7609,4.7381,4.7264,4.7309,4.7164,4.6403,4.5661,4.4503,4.3313,4.207,4.1825,4.0605,3.9749,3.9685,3.9697,3.971,3.9735,3.9798,3.9986,4.0362,4.0651,4.1141,5.4143,5.3551,5.3518,5.3061,5.2317,5.2283,5.1877,5.1386,5.1217,5.0794,5.0236,5.0033,4.9661,4.9052,4.9018,4.9018,4.9018,4.9018,4.9018,4.9018,4.9018,4.9018,4.9018,4.9018,4.9018,4.9018,4.9018,4.9018,4.9018,4.9018,4.9018,4.9018,4.9018,4.9018,4.8892,4.8225,4.7721,4.7836,4.7704,4.7572,4.7572,4.8348,4.7468,4.5403,4.4167,4.4044,4.462,4.4794,4.4787,4.4728,4.4706,4.4699,4.4586,4.3825,4.3305,4.3305,4.3305,4.3305,4.3305,4.3305,4.3305,4.3305,4.3305,4.3305,4.3305,4.3305,4.3544,4.4197,4.4855,4.5289,4.5469,4.6798,4.7846,4.8418,4.7876,4.7919,4.8553,4.7834,4.7381,4.7396,4.7581,4.7651,4.7424,4.7352,4.7946,4.8553,4.8825,4.8677,4.8759,4.9432,4.8963,4.7961,4.7876,4.8377,4.7538,4.7309,4.7309,4.7121,4.6975,4.677,4.6211,4.5358,4.4022,4.2593,4.0882,3.9878,3.9749,3.971,3.9735,3.9835,4.0061,4.0312,4.0639,4.143,4.1718,5.416,5.3518,5.3518,5.3331,5.3078,5.3078,5.2926,5.2621,5.2114,5.1758,5.1352,5.0524,4.9932,4.9678,4.9204,4.9018,4.9018,4.9018,4.9018,4.9018,4.9018,4.9018,4.9018,4.9018,4.9018,4.9018,4.9018,4.9018,4.9018,4.9018,4.9018,4.9018,4.9018,4.9018,4.894,4.8671,4.8497,4.845,4.7933,4.7605,4.7456,4.6763,4.6096,4.5907,4.5994,4.567,4.4812,4.4812,4.451,4.3888,4.3849,4.3849,4.381,4.3512,4.3305,4.3305,4.3305,4.3305,4.3305,4.3305,4.3305,4.3305,4.3305,4.3305,4.3305,4.3319,4.3559,4.4257,4.4915,4.5424,4.6119,4.7346,4.8141,4.7861,4.8099,4.8099,4.7988,4.8072,4.8252,4.8252,4.8252,4.8252,4.8046,4.7694,4.7988,4.9311,4.8677,4.8293,4.8569,4.8692,4.8282,4.7609,4.7566,4.7722,4.7424,4.7309,4.7266,4.7019,4.6682,4.5689,4.4978,4.4069,4.2738,4.1874,4.0402,3.9981,3.9852,3.9798,3.9823,4.0061,4.0287,4.0576,4.0862,4.0989,4.1068,5.4296,5.3856,5.3585,5.3518,5.3518,5.3518,5.3518,5.3433,5.2926,5.2553,5.2131,5.1234,5.0557,5.0084,4.9576,4.9187,4.9018,4.9018,4.9018,4.9018,4.9018,4.9018,4.9018,4.9018,4.9018,4.894,4.8671,4.8545,4.8545,4.8545,4.8719,4.9001,4.8719,4.8545,4.8513,4.8257,4.808,4.7933,4.744,4.7138,4.6986,4.5921,4.5358,4.5834,4.6643,4.6435,4.4871,4.4472,4.4028,4.3394,4.3305,4.3305,4.3305,4.3305,4.3305,4.3305,4.3305,4.3305,4.3305,4.3305,4.3305,4.3305,4.3305,4.3305,4.3305,4.3484,4.3958,4.4571,4.5229,4.5903,4.6629,4.7646,4.8126,4.7876,4.8403,4.8718,4.8377,4.861,4.8594,4.8293,4.8168,4.8252,4.8252,4.7679,4.8141,4.9694,4.8569,4.8183,4.8512,4.861,4.7919,4.7495,4.7694,4.7679,4.7452,4.7309,4.7309,4.7121,4.6975,4.5644,4.4503,4.3361,4.2217,4.1169,4.0503,4.0121,3.9941,3.9899,4.0036,4.0262,4.0551,4.0827,4.0602,4.0096,4.0219,5.4651,5.4499,5.3822,5.3585,5.3602,5.3518,5.3518,5.3501,5.3467,5.3027,5.2469,5.2215,5.1403,5.0422,5.0168,4.9746,4.9204,4.9137,4.9069,4.9018,4.9018,4.9018,4.9018,4.9018,4.894,4.8829,4.7998,4.7589,4.7589,4.7622,4.7982,4.8576,4.795,4.7589,4.7589,4.6884,4.6384,4.6384,4.6314,4.6189,4.6173,4.5941,4.5452,4.4968,4.5634,4.5618,4.4737,4.3927,4.3512,4.3344,4.3305,4.3305,4.3305,4.3305,4.3305,4.3305,4.3305,4.3305,4.3305,4.3305,4.3305,4.3319,4.3319,4.3409,4.3514,4.3988,4.4586,4.5244,4.5858,4.6531,4.707,4.7351,4.7722,4.8569,4.8594,4.8922,4.9512,4.9352,4.8486,4.7834,4.7807,4.7452,4.7452,4.7737,4.835,4.9215,4.9135,4.8948,4.9256,4.9671,4.9287,4.8267,4.8225,4.8569,4.7919,4.7337,4.7352,4.7309,4.7222,4.6638,4.5883,4.484,4.3456,4.2363,4.0794,4.0364,3.9877,3.9835,3.9998,4.0237,4.0614,4.0837,4.0652,4.0248,3.9499,5.5835,5.5294,5.4549,5.4262,5.4177,5.3721,5.3518,5.3518,5.3518,5.3348,5.3044,5.2536,5.2029,5.1589,5.1099,5.0456,4.9779,4.9729,4.9475,4.9086,4.9018,4.9001,4.897,4.897,4.8656,4.7982,4.7088,4.6627,4.6643,4.6627,4.6799,4.6952,4.6815,4.6627,4.6627,4.6349,4.6208,4.6154,4.5577,4.5248,4.519,4.4555,4.4051,4.3849,4.4051,4.4051,4.381,4.4105,4.3989,4.3329,4.3305,4.3305,4.3305,4.3305,4.3305,4.3305,4.3305,4.3305,4.3305,4.3305,4.3305,4.3379,4.3693,4.3988,4.4077,4.4616,4.5259,4.5873,4.6217,4.6606,4.7145,4.7309,4.7452,4.7706,4.7764,4.7988,4.8584,4.8677,4.9029,4.9392,4.9447,4.971,5.0032,4.9813,4.971,5.1043,5.055,4.9891,5.0611,5.0242,5.0336,4.9591,4.9773,4.9191,4.8309,4.7651,4.7566,4.7424,4.7309,4.7164,4.6594,4.6077,4.4734,4.3122,4.1604,4.0516,4.0031,3.9873,4.0049,4.0086,4.03,4.0536,4.0837,4.0232,3.9233,5.6545,5.6021,5.5023,5.4583,5.4499,5.3805,5.3518,5.3518,5.3518,5.3518,5.3382,5.2976,5.257,5.2266,5.1826,5.12,5.0524,5.0236,4.9847,4.939,4.9086,4.8846,4.8465,4.808,4.7456,4.6609,4.5992,4.569,4.567,4.569,4.5834,4.6138,4.5869,4.567,4.5634,4.5306,4.5106,4.5048,4.4533,4.422,4.4105,4.363,4.3305,4.3305,4.3305,4.3305,4.3369,4.3927,4.395,4.3409,4.3305,4.3305,4.3305,4.3305,4.3305,4.3305,4.3305,4.3305,4.3305,4.3305,4.3424,4.3663,4.4077,4.4436,4.4721,4.5289,4.5903,4.619,4.6561,4.686,4.7219,4.7309,4.7309,4.7309,4.7722,4.7988,4.8335,4.861,4.8988,4.9416,4.9352,4.9655,4.9813,4.9813,4.9907,5.1134,5.032,4.9615,5.0227,4.9773,4.9591,4.9327,4.8841,4.8418,4.8267,4.803,4.7876,4.7609,4.7309,4.7121,4.6741,4.6594,4.5734,4.3598,4.1887,4.0743,4.0108,4.0102,4.0199,4.0149,4.0036,4.0275,4.033,3.9348,3.8432,5.6917,5.6681,5.5327,5.4769,5.4634,5.394,5.3585,5.3518,5.3518,5.3518,5.3501,5.3433,5.3061,5.2503,5.2401,5.1978,5.1251,5.0693,5.0253,4.9898,4.9427,4.8742,4.7787,4.6952,4.6048,4.5153,4.4834,4.4737,4.4721,4.4721,4.5153,4.5654,4.5026,4.4737,4.4586,4.3786,4.3551,4.3576,4.3433,4.3409,4.3409,4.3329,4.3305,4.3305,4.3305,4.3305,4.3329,4.3235,4.3235,4.329,4.3305,4.3305,4.3305,4.3305,4.3305,4.3305,4.3305,4.3305,4.3305,4.3424,4.3633,4.4137,4.4466,4.4661,4.5349,4.5963,4.6354,4.6474,4.692,4.7249,4.7294,4.7309,4.7309,4.7409,4.7919,4.8718,4.9813,4.915,4.88,4.8718,4.803,4.7566,4.8157,4.8072,4.8501,4.8922,4.8692,4.8882,4.9044,4.9085,4.7919,4.8003,4.8651,4.8418,4.8486,4.8293,4.8099,4.7538,4.7309,4.7164,4.6682,4.6447,4.5928,4.3834,4.2133,4.1032,4.0287,4.0129,4.0036,3.9898,3.991,4.0049,3.9713,3.8955,3.8607,5.8118,5.7509,5.6596,5.5919,5.5361,5.4617,5.3974,5.3551,5.3518,5.3518,5.3518,5.3518,5.3382,5.3196,5.3145,5.2756,5.2097,5.1758,5.1031,5.0185,4.9932,4.8934,4.7671,4.6627,4.5706,4.4849,4.4182,4.3693,4.3708,4.3786,4.3912,4.4036,4.395,4.3732,4.3615,4.3448,4.3305,4.3305,4.3305,4.3305,4.3305,4.3305,4.3305,4.3305,4.3305,4.3305,4.321,4.2467,4.2508,4.325,4.3305,4.3305,4.321,4.321,4.325,4.3305,4.3305,4.3305,4.3394,4.3738,4.4082,4.4377,4.5143,4.5858,4.6037,4.6623,4.6995,4.707,4.7249,4.7309,4.7309,4.7309,4.7309,4.7352,4.7609,4.7961,4.8198,4.7934,4.7946,4.8553,4.8486,4.861,4.8963,4.9247,4.9367,4.9615,4.9456,4.9311,4.9311,4.9271,4.8543,4.9287,4.9734,4.9191,4.8841,4.8594,4.8225,4.7538,4.7309,4.7309,4.655,4.5734,4.4826,4.3347,4.2084,4.0945,4.0224,3.9849,3.9722,3.971,3.976,3.9873,3.9835,3.9374,3.931,5.8287,5.7831,5.7103,5.6579,5.6038,5.5057,5.4346,5.394,5.3636,5.3518,5.3518,5.3518,5.3518,5.3518,5.3501,5.3264,5.2824,5.2452,5.1826,5.1017,4.9953,4.8811,4.7637,4.6643,4.569,4.4849,4.422,4.3732,4.3409,4.3305,4.3305,4.3369,4.3305,4.3305,4.3369,4.3305,4.3305,4.3305,4.3305,4.3305,4.3305,4.3305,4.3305,4.3305,4.3305,4.3305,4.321,4.267,4.229,4.2003,4.1879,4.2085,4.2548,4.2589,4.282,4.321,4.3305,4.3409,4.3708,4.4137,4.4586,4.5125,4.5935,4.6354,4.6696,4.7115,4.7309,4.7294,4.7309,4.7309,4.7309,4.7309,4.7309,4.7309,4.7309,4.7452,4.7834,4.7609,4.7834,4.8361,4.8486,4.835,4.906,4.9141,4.9352,4.9432,4.9004,4.9166,4.9392,4.9392,4.9231,4.9352,4.9367,4.8584,4.8225,4.8072,4.803,4.7424,4.7309,4.7309,4.6682,4.5644,4.4688,4.3632,4.2168,4.0945,4.0224,3.9697,3.9697,3.9697,3.9697,3.9697,3.9697,3.9697,3.9697,5.7966,5.7848,5.7188,5.6867,5.6562,5.5327,5.4668,5.4431,5.3805,5.3518,5.3518,5.3518,5.3518,5.3518,5.3518,5.3484,5.3416,5.2807,5.2435,5.1495,5.0059,4.8397,4.7819,4.6464,4.5416,4.4608,4.4624,4.4082,4.3488,4.3305,4.3305,4.3305,4.3305,4.3305,4.3305,4.3305,4.3305,4.3305,4.3305,4.3305,4.3305,4.3305,4.3305,4.3305,4.3305,4.3115,4.3021,4.2805,4.2085,3.9798,4.0015,4.1127,4.1864,4.185,4.229,4.3076,4.3334,4.3559,4.4167,4.4392,4.4975,4.5891,4.6307,4.6651,4.7115,4.7294,4.7309,4.7309,4.7309,4.7309,4.7309,4.7309,4.7309,4.7309,4.7309,4.7764,4.8225,4.7849,4.7651,4.8444,4.7807,4.7424,4.7309,4.7381,4.7694,4.8527,4.8309,4.835,4.846,4.8309,4.8072,4.7892,4.7779,4.7538,4.7424,4.7381,4.7467,4.7309,4.7309,4.7266,4.7019,4.6151,4.5192,4.3962,4.2035,4.0743,3.9981,3.9697,3.9697,3.9697,3.9697,3.9697,3.9697,3.9697,3.9697,5.8423,5.7865,5.7729,5.7323,5.6714,5.5852,5.5141,5.4566,5.3839,5.3551,5.3518,5.3518,5.3518,5.3518,5.3518,5.3518,5.3518,5.323,5.2942,5.1965,4.9809,4.8726,4.7975,4.6359,4.4677,4.3966,4.3669,4.3512,4.3329,4.3305,4.3305,4.3305,4.3305,4.3305,4.3305,4.3305,4.3305,4.3305,4.3305,4.3305,4.3305,4.329,4.325,4.321,4.321,4.278,4.2111,4.1974,4.0845,3.977,4.0859,4.224,4.2345,4.2589,4.2805,4.309,4.331,4.3618,4.4257,4.484,4.5439,4.6219,4.6785,4.7145,4.7249,4.7309,4.7309,4.7309,4.7309,4.7309,4.7309,4.7309,4.7309,4.7309,4.7309,4.7381,4.7538,4.7452,4.7452,4.7538,4.7495,4.7309,4.7309,4.7309,4.7467,4.7609,4.7566,4.7452,4.7452,4.7452,4.7381,4.7309,4.7309,4.7309,4.7309,4.7309,4.7309,4.7309,4.7309,4.7309,4.7062,4.6062,4.4918,4.3347,4.1555,4.0605,4.0032,3.9697,3.9697,3.9697,3.9697,3.9697,3.9697,3.9697,3.9697,5.8271,5.7881,5.7881,5.7679,5.7222,5.6545,5.5801,5.5074,5.4329,5.3805,5.3551,5.3518,5.3518,5.3518,5.3518,5.3518,5.3518,5.3501,5.3281,5.2455,5.0741,4.954,4.8544,4.665,4.4849,4.4104,4.4028,4.381,4.3448,4.3305,4.3305,4.3305,4.3305,4.3305,4.3305,4.3305,4.3305,4.3305,4.3305,4.3305,4.3305,4.329,4.2886,4.2589,4.2467,4.1947,4.0916,4.0788,4.0145,3.9823,4.0914,4.1665,4.1155,4.1435,4.1961,4.2482,4.3458,4.4052,4.4751,4.5394,4.6067,4.6711,4.7145,4.7234,4.7309,4.7309,4.7309,4.7309,4.7309,4.7309,4.7309,4.7309,4.7309,4.7309,4.7309,4.7309,4.7309,4.7309,4.7309,4.7309,4.7352,4.7309,4.7309,4.7309,4.7309,4.7452,4.7452,4.7381,4.7337,4.7337,4.7337,4.7309,4.7309,4.7309,4.7309,4.7309,4.7309,4.7309,4.7309,4.7309,4.7207,4.5869,4.4396,4.3074,4.1887,4.0982,4.0415,4.0083,3.9697,3.9697,3.9697,3.9697,3.9697,3.9697,3.9697,5.7881,5.7881,5.7881,5.7881,5.7763,5.7103,5.6427,5.5818,5.4955,5.4211,5.3721,5.3568,5.3518,5.3518,5.3518,5.3518,5.3518,5.3518,5.3399,5.3095,5.1489,5.0216,4.8999,4.7199,4.5465,4.484,4.4419,4.3942,4.3488,4.3305,4.3305,4.3305,4.3305,4.3305,4.3305,4.3305,4.3305,4.3305,4.3305,4.3305,4.3305,4.3265,4.2765,4.1932,4.1711,4.1211,4.036,4.014,3.9977,3.9802,4.0265,3.9577,3.8927,3.9707,4.0985,4.2239,4.3775,4.4684,4.5364,4.5963,4.6488,4.7234,4.7309,4.7309,4.7309,4.7309,4.7309,4.7309,4.7309,4.7309,4.7309,4.7309,4.7309,4.7309,4.7309,4.7309,4.7309,4.7309,4.7309,4.7309,4.7309,4.7309,4.7309,4.7309,4.7309,4.7309,4.7309,4.7309,4.7309,4.7309,4.7309,4.7309,4.7309,4.7309,4.7309,4.7309,4.7309,4.7309,4.7309,4.7309,4.7207,4.6018,4.4674,4.374,4.2703,4.1555,4.0503,3.9981,3.9697,3.9697,3.9697,3.9697,3.9697,3.9697,3.9697,5.7881,5.7881,5.7881,5.7881,5.7763,5.712,5.6748,5.641,5.5226,5.4532,5.4329,5.3788,5.3568,5.3518,5.3518,5.3518,5.3518,5.3518,5.3518,5.323,5.1772,5.0455,4.9267,4.7518,4.5926,4.4548,4.3946,4.3527,4.3384,4.3305,4.3305,4.3305,4.3305,4.3305,4.3305,4.3305,4.3305,4.3305,4.3305,4.329,4.313,4.2955,4.2508,4.1518,4.1338,4.0745,4.0152,4.0192,4.0127,3.9255,3.9648,3.9185,3.9099,4.0959,4.2767,4.3682,4.4364,4.4961,4.5694,4.612,4.6638,4.7115,4.7309,4.7309,4.7309,4.7309,4.7309,4.7309,4.7309,4.7309,4.7309,4.7309,4.7309,4.7309,4.7309,4.7309,4.7309,4.7309,4.7309,4.7309,4.7309,4.7309,4.7309,4.7309,4.7309,4.7309,4.7309,4.7309,4.7309,4.7309,4.7309,4.7309,4.7309,4.7309,4.7309,4.7309,4.7309,4.7309,4.7309,4.7309,4.6975,4.6107,4.5055,4.3929,4.2655,4.1319,4.0516,3.9839,3.9697,3.9697,3.9697,3.9697,3.9697,3.9697,3.9697,5.7881,5.7881,5.7881,5.7881,5.7814,5.7526,5.7137,5.6731,5.6038,5.5294,5.4668,5.4211,5.3839,5.3602,5.3518,5.3518,5.3518,5.3518,5.3518,5.3146,5.2053,5.0892,4.9693,4.7855,4.6275,4.4855,4.3883,4.3334,4.3305,4.3305,4.3305,4.3305,4.3305,4.3305,4.3305,4.3305,4.325,4.325,4.321,4.2941,4.2386,4.1961,4.1225,4.0845,4.035,3.9604,3.8859,3.9043,3.905,3.8669,3.9023,3.928,3.9955,4.0996,4.244,4.2716,4.3497,4.4371,4.523,4.561,4.6255,4.7133,4.7309,4.7309,4.7309,4.7309,4.7309,4.7309,4.7309,4.7309,4.7309,4.7309,4.7309,4.7309,4.7309,4.7309,4.7309,4.7309,4.7309,4.7309,4.7309,4.7309,4.7309,4.7309,4.7309,4.7309,4.7309,4.7309,4.7309,4.7309,4.7309,4.7309,4.7309,4.7309,4.7309,4.7309,4.7309,4.7309,4.7309,4.7309,4.7077,4.6344,4.5161,4.3834,4.2558,4.1219,4.0364,3.9697,3.9697,3.9697,3.9697,3.9697,3.9697,3.9697,3.9697,5.7881,5.7881,5.7881,5.7881,5.7881,5.7881,5.756,5.707,5.6833,5.6021,5.4905,5.4617,5.416,5.367,5.3518,5.3518,5.3518,5.3518,5.3348,5.2904,5.2227,5.1287,4.9737,4.8357,4.6695,4.553,4.4481,4.3559,4.3319,4.3305,4.3305,4.3305,4.3305,4.3115,4.2941,4.278,4.29,4.2659,4.2603,4.2085,4.1239,4.0516,3.9889,3.9724,3.9261,3.8647,3.7858,3.8208,3.8424,3.8478,3.8868,3.9511,4.0421,4.0971,4.0726,4.0303,4.1849,4.3424,4.45,4.5549,4.6462,4.7207,4.7309,4.7309,4.7309,4.7309,4.7309,4.7309,4.7309,4.7309,4.7309,4.7309,4.7309,4.7309,4.7309,4.7309,4.7309,4.7309,4.7309,4.7309,4.7309,4.7309,4.7309,4.7309,4.7309,4.7309,4.7309,4.7309,4.7309,4.7309,4.7309,4.7309,4.7309,4.7309,4.7309,4.7309,4.7309,4.7309,4.7309,4.7309,4.7121,4.6829,4.5358,4.3787,4.2496,4.1256,4.0415,3.9697,3.9697,3.9697,3.9697,3.9697,3.9697,3.9697,3.9697,5.7881,5.7881,5.7881,5.7881,5.7881,5.7881,5.7848,5.7662,5.7103,5.6376,5.5446,5.4871,5.4228,5.3636,5.3518,5.3518,5.3484,5.3314,5.2956,5.2312,5.176,5.0687,4.924,4.887,4.7328,4.6104,4.5304,4.4407,4.3653,4.3384,4.321,4.3155,4.29,4.2835,4.198,4.1912,4.1253,4.056,4.0417,4.0331,4.0284,4.0352,3.9812,3.948,3.9273,3.9068,3.8125,3.8442,3.8755,3.8881,3.9283,3.9662,3.9853,3.9866,3.9904,4.0776,4.2685,4.5092,4.5094,4.5602,4.6344,4.6682,4.7019,4.7266,4.7309,4.7309,4.7309,4.7309,4.7309,4.7309,4.7309,4.7309,4.7309,4.7309,4.7309,4.7309,4.7309,4.7309,4.7309,4.7309,4.7309,4.7309,4.7309,4.7309,4.7309,4.7309,4.7309,4.7309,4.7309,4.7309,4.7309,4.7309,4.7309,4.7309,4.7309,4.7309,4.7309,4.7309,4.7309,4.7266,4.7077,4.6638,4.5267,4.374,4.2447,4.1206,4.0173,3.9697,3.9697,3.9697,3.9697,3.9697,3.9697,3.9697,3.9697,5.7881,5.7881,5.7881,5.7881,5.7881,5.7881,5.7881,5.785,5.756,5.6765,5.5783,5.5412,5.4617,5.3704,5.3518,5.3518,5.3399,5.2904,5.2383,5.1578,5.0801,4.9718,4.8757,4.7884,4.6768,4.6446,4.5663,4.508,4.4169,4.2998,4.233,4.2333,4.1784,4.1312,4.1068,4.111,4.0864,4.0352,3.9864,3.9716,3.9955,3.9666,3.9291,3.9378,3.933,3.9,3.8805,3.9019,3.932,3.9371,3.9622,3.9685,3.9697,3.9749,3.9736,3.9929,4.1762,4.3047,4.3238,4.3882,4.4642,4.5358,4.5869,4.6491,4.7019,4.7309,4.7309,4.7309,4.7309,4.7309,4.7309,4.7309,4.7309,4.7309,4.7309,4.7309,4.7309,4.7309,4.7309,4.7309,4.7309,4.7309,4.7309,4.7309,4.7309,4.7309,4.7309,4.7309,4.7309,4.7309,4.7309,4.7309,4.7309,4.7309,4.7309,4.7309,4.7309,4.7309,4.7309,4.7222,4.7019,4.6299,4.5161,4.3882,4.2544,4.1306,4.0121,3.9697,3.9697,3.9697,3.9697,3.9697,3.9697,3.9697,3.9697,5.7881,5.7881,5.7881,5.7881,5.7881,5.7881,5.7881,5.7881,5.7865,5.7053,5.5886,5.5277,5.4448,5.3737,5.3518,5.3518,5.3433,5.24,5.1796,5.0951,4.9836,4.8825,4.8103,4.7111,4.6678,4.6531,4.5978,4.5589,4.4753,4.3279,4.1895,4.1921,4.1294,4.0587,4.0418,4.045,4.0282,3.9686,3.9049,3.9143,3.9515,3.8888,3.8951,3.9195,3.928,3.9082,3.9145,3.9408,3.9659,3.9672,3.9672,3.9697,3.9697,3.9697,3.9697,3.9839,4.0932,4.1269,4.1591,4.2119,4.2689,4.3882,4.5055,4.6535,4.7121,4.7309,4.7309,4.7309,4.7309,4.7309,4.7309,4.7309,4.7309,4.7309,4.7309,4.7309,4.7309,4.7309,4.7309,4.7309,4.7309,4.7309,4.7309,4.7309,4.7309,4.7309,4.7309,4.7309,4.7309,4.7309,4.7309,4.7309,4.7309,4.7309,4.7309,4.7309,4.7309,4.7309,4.7309,4.7266,4.7077,4.6638,4.5779,4.4349,4.2834,4.1972,4.1132,4.0415,3.9697,3.9697,3.9697,3.9697,3.9697,3.9697,3.9697,5.7881,5.7881,5.7881,5.7881,5.7881,5.7881,5.7881,5.7881,5.7848,5.6985,5.553,5.4414,5.3754,5.3518,5.3518,5.3518,5.3433,5.24,5.1504,5.0496,4.9336,4.8377,4.7731,4.7304,4.713,4.7055,4.6488,4.6234,4.5515,4.3291,4.2686,4.2865,4.1158,4.0572,4.0147,3.9844,3.9442,3.8926,3.8405,3.832,3.8704,3.8641,3.8982,3.9108,3.9397,3.9634,3.9634,3.9672,3.9697,3.9697,3.9697,3.9697,3.9697,3.9697,3.9697,3.9839,3.9942,4.0173,4.0415,4.164,4.3646,4.507,4.5883,4.6358,4.6887,4.7164,4.7266,4.7266,4.7309,4.7309,4.7309,4.7309,4.7309,4.7309,4.7309,4.7309,4.7309,4.7309,4.7309,4.7309,4.7309,4.7309,4.7309,4.7309,4.7309,4.7309,4.7309,4.7309,4.7309,4.7309,4.7309,4.7309,4.7309,4.7309,4.7309,4.7309,4.7309,4.7309,4.7309,4.7309,4.7266,4.6682,4.5883,4.4932,4.3456,4.2834,4.1985,4.0655,3.9749,3.9697,3.9697,3.9697,3.9697,3.9697,3.9697,5.7881,5.7881,5.7881,5.7881,5.7881,5.7881,5.7881,5.7797,5.7408,5.6393,5.4989,5.3991,5.3518,5.3518,5.3518,5.3518,5.3348,5.24,5.1357,5.0358,4.9311,4.8252,4.7609,4.7309,4.7294,4.7206,4.6909,4.6356,4.5447,4.348,4.2606,4.1944,4.0566,3.9676,3.9182,3.9336,3.9015,3.8779,3.853,3.853,3.8655,3.9057,3.9383,3.9421,3.9484,3.9685,3.9685,3.9697,3.9697,3.9697,3.9697,3.9697,3.9697,3.9697,3.9697,3.9697,3.9697,3.9697,3.9749,4.0743,4.1703,4.2786,4.3551,4.4549,4.6018,4.6166,4.6638,4.6931,4.7309,4.7309,4.7309,4.7309,4.7309,4.7309,4.7309,4.7309,4.7309,4.7309,4.7309,4.7309,4.7309,4.7309,4.7309,4.7309,4.7309,4.7309,4.7309,4.7309,4.7309,4.7309,4.7309,4.7309,4.7309,4.7309,4.7309,4.7309,4.7309,4.7309,4.7309,4.7309,4.7207,4.6255,4.5448,4.4688,4.3787,4.2558,4.1419,4.0313,3.9788,3.9749,3.9697,3.9697,3.9697,3.9697,3.9697,5.7881,5.7881,5.7881,5.7881,5.7865,5.7662,5.756,5.7442,5.6782,5.5818,5.4549,5.3856,5.3518,5.3518,5.3518,5.3518,5.3076,5.2082,5.1171,5.0087,4.9004,4.803,4.7538,4.7222,4.7077,4.6931,4.6638,4.6033,4.4723,4.3523,4.2546,4.1235,3.9698,3.9158,3.9083,3.9107,3.917,3.912,3.912,3.912,3.9182,3.9446,3.9672,3.9659,3.9685,3.9685,3.9697,3.9697,3.9697,3.9697,3.9697,3.9697,3.9697,3.9697,3.9697,3.9697,3.9697,3.9697,3.9749,4.0224,4.0655,4.1838,4.2461,4.3646,4.4734,4.5403,4.6062,4.7121,4.7309,4.7266,4.7266,4.7309,4.7309,4.7309,4.7309,4.7309,4.7309,4.7309,4.7309,4.7309,4.7309,4.7309,4.7309,4.7309,4.7309,4.7309,4.7309,4.7309,4.7309,4.7309,4.7309,4.7309,4.7309,4.7309,4.7309,4.7309,4.7309,4.7309,4.7309,4.7309,4.6975,4.6166,4.5494,4.4978,4.3834,4.2181,4.1269,4.0743,4.0224,3.9749,3.9749,3.9697,3.9697,3.9697,3.9697,5.7881,5.7881,5.7881,5.7881,5.7746,5.7137,5.6867,5.6833,5.6072,5.526,5.4448,5.3788,5.3518,5.3518,5.3518,5.3518,5.3076,5.1631,5.055,5.0048,4.8733,4.7651,4.7352,4.7207,4.6916,4.5779,4.5779,4.5448,4.3693,4.2882,4.2035,4.1219,4.0045,3.9459,3.9634,3.9659,3.9672,3.9659,3.9622,3.9584,3.9597,3.9659,3.9685,3.9697,3.9697,3.9697,3.9697,3.9697,3.9697,3.9697,3.9697,3.9697,3.9697,3.9697,3.9697,3.9697,3.9697,3.9697,3.9749,4.0844,4.1219,4.1319,4.1789,4.3109,4.4674,4.5252,4.5389,4.6166,4.6873,4.7077,4.7207,4.7309,4.7266,4.7309,4.7309,4.7309,4.7309,4.7309,4.7309,4.7309,4.7309,4.7309,4.7309,4.7309,4.7309,4.7309,4.7309,4.7309,4.7309,4.7309,4.7309,4.7309,4.7309,4.7309,4.7309,4.7309,4.7309,4.7309,4.7309,4.7309,4.7309,4.6931,4.6211,4.5448,4.4503,4.3361,4.2363,4.1442,4.0592,3.9788,3.9749,3.9697,3.9697,3.9697,3.9697,5.7881,5.7881,5.7881,5.7611,5.7171,5.6917,5.6799,5.6579,5.553,5.4549,5.394,5.3568,5.3518,5.3518,5.3518,5.3467,5.3179,5.2241,5.1245,5.0204,4.8774,4.8003,4.7538,4.7251,4.7004,4.6785,4.6491,4.5298,4.3537,4.2738,4.1541,4.0592,4.0019,3.9736,3.9685,3.9697,3.9697,3.9697,3.9685,3.9685,3.9697,3.9697,3.9697,3.9697,3.9697,3.9697,3.9697,3.9697,3.9697,3.9697,3.9697,3.9697,3.9697,3.9697,3.9697,3.9697,3.9697,3.9697,3.9749,4.0173,4.0275,4.0554,4.0932,4.1838,4.2689,4.2882,4.3598,4.4826,4.5869,4.6062,4.6018,4.6931,4.7207,4.7266,4.7309,4.7309,4.7309,4.7309,4.7309,4.7309,4.7309,4.7369,4.7399,4.7474,4.7474,4.7339,4.7309,4.7309,4.7309,4.7309,4.7309,4.7309,4.7309,4.7309,4.7309,4.7309,4.7309,4.7309,4.7309,4.7309,4.7309,4.7309,4.655,4.5553,4.5161,4.4688,4.3026,4.1555,4.0503,3.9775,3.9788,3.9749,3.9697,3.9697,3.9697,5.7881,5.7848,5.7611,5.7256,5.6799,5.6545,5.619,5.5581,5.4617,5.394,5.3568,5.3518,5.3518,5.3518,5.3518,5.3518,5.3348,5.1974,5.1245,5.0204,4.8841,4.7961,4.7424,4.7266,4.6814,4.6873,4.6403,4.5298,4.2834,4.2772,4.164,4.0224,3.9697,3.9697,3.9697,3.9697,3.9697,3.9697,3.9697,3.9697,3.9697,3.9697,3.9697,3.9697,3.9697,3.9697,3.9697,3.9697,3.9697,3.9697,3.9697,3.9697,3.9697,3.9697,3.9697,3.9697,3.9697,3.9697,3.9749,3.9749,3.989,3.989,3.9697,4.0313,4.1269,4.1838,4.2978,4.4008,4.4826,4.5539,4.6062,4.7019,4.7164,4.7266,4.7266,4.7266,4.7207,4.7207,4.7489,4.7474,4.7653,4.7653,4.7593,4.7608,4.7683,4.7489,4.7309,4.7309,4.7309,4.7309,4.7309,4.7309,4.7309,4.7309,4.7309,4.7309,4.7309,4.7309,4.7309,4.7309,4.7309,4.7266,4.6447,4.5779,4.5403,4.4642,4.293,4.1555,4.0831,4.0262,3.9981,3.989,3.9749,3.9697,3.9697,5.7831,5.7712,5.7053,5.6731,5.6596,5.5852,5.4837,5.3636,5.3568,5.3534,5.3518,5.3518,5.3518,5.3518,5.3518,5.3518,5.3195,5.1521,5.0779,4.9931,4.8651,4.7849,4.7381,4.7266,4.6873,4.6018,4.5403,4.4688,4.2035,4.1541,4.0794,3.9981,3.9697,3.9697,3.9697,3.9697,3.9697,3.9697,3.9697,3.9697,3.9697,3.9697,3.9697,3.9697,3.9697,3.9697,3.9697,3.9697,3.9697,3.9697,3.9697,3.9697,3.9697,3.9697,3.9697,3.9697,3.9697,3.9697,3.9697,3.9697,3.9697,3.9697,3.9697,4.0465,4.1032,4.1468,4.2461,4.3787,4.4872,4.5869,4.677,4.6975,4.7164,4.7207,4.7222,4.7164,4.7077,4.724,4.7639,4.7893,4.8207,4.8252,4.8102,4.8072,4.7833,4.7489,4.7309,4.7309,4.7309,4.7309,4.7309,4.7309,4.7309,4.7309,4.7309,4.7309,4.7309,4.7309,4.7309,4.7309,4.7309,4.7266,4.6785,4.6211,4.5629,4.472,4.3693,4.2593,4.1555,4.1032,4.0415,3.989,3.9697,3.9697,3.9697,5.6816,5.6325,5.6122,5.5733,5.5158,5.4465,5.3873,5.3534,5.3518,5.3518,5.3518,5.3518,5.3518,5.3518,5.3518,5.3518,5.299,5.217,5.1171,5.0087,4.8882,4.803,4.7538,4.7266,4.696,4.6535,4.5734,4.4503,4.2834,4.1555,4.0262,3.9736,3.9697,3.9697,3.9697,3.9697,3.9697,3.9697,3.9697,3.9697,3.9697,3.9697,3.9697,3.9697,3.9697,3.9697,3.9697,3.9697,3.9697,3.9697,3.9697,3.9697,3.9697,3.9697,3.9697,3.9697,3.9697,3.9697,3.9697,3.9697,3.9697,3.9749,3.98,3.9788,4.0364,4.1132,4.2035,4.3313,4.4549,4.5479,4.6196,4.6535,4.6594,4.6491,4.6682,4.7077,4.6975,4.7137,4.7551,4.8147,4.8476,4.8566,4.8491,4.8267,4.7982,4.7549,4.7309,4.7309,4.7309,4.7309,4.7309,4.7309,4.7309,4.7309,4.7309,4.7309,4.7309,4.7309,4.7309,4.7309,4.7309,4.7222,4.7077,4.6726,4.6151,4.5629,4.501,4.3821,4.2509,4.1406,4.0693,4.0121,3.9697,3.9749,3.9749,5.6122,5.5664,5.5395,5.4837,5.4143,5.3687,5.3518,5.3518,5.3518,5.3518,5.3518,5.3518,5.3518,5.3518,5.3518,5.3467,5.3382,5.2329,5.132,5.032,4.9352,4.8267,4.7609,4.7309,4.7266,4.6829,4.6003,4.4674,4.3122,4.1182,3.9697,3.9685,3.9697,3.9697,3.9697,3.9697,3.9697,3.9697,3.9697,3.9697,3.9697,3.9697,3.9697,3.9697,3.9697,3.9697,3.9697,3.9697,3.9697,3.9697,3.9697,3.9697,3.9697,3.9697,3.9697,3.9697,3.9697,3.9697,3.9697,3.9697,3.9697,3.9839,4.0083,4.0173,4.0313,4.0895,4.1838,4.2869,4.3915,4.4872,4.5448,4.5928,4.5734,4.5524,4.6211,4.6887,4.6975,4.7019,4.7567,4.8208,4.8521,4.8715,4.8655,4.8416,4.8087,4.7578,4.7309,4.7309,4.7309,4.7309,4.7309,4.7309,4.7309,4.7309,4.7309,4.7309,4.7309,4.7309,4.7309,4.7309,4.7309,4.7266,4.7164,4.6975,4.6697,4.6299,4.5913,4.4688,4.3456,4.2447,4.1541,4.0844,4.0364,3.9929,3.989,5.5581,5.5394,5.4786,5.416,5.3568,5.3518,5.3518,5.3518,5.3518,5.3518,5.3518,5.3518,5.3518,5.3518,5.3518,5.3518,5.3298,5.2592,5.1594,5.0451,4.9655,4.8569,4.7609,4.7309,4.7309,4.6873,4.5958,4.4581,4.2978,4.1319,4.0134,3.9749,3.9697,3.9697,3.9697,3.9697,3.9697,3.9697,3.9697,3.9697,3.9697,3.9697,3.9697,3.9697,3.9697,3.9697,3.9697,3.9697,3.9697,3.9697,3.9697,3.9697,3.9697,3.9697,3.9697,3.9697,3.9697,3.9697,3.9697,3.9697,3.9697,4.0083,4.0706,4.0415,4.0364,4.1369,4.2412,4.2544,4.3442,4.4489,4.5252,4.5598,4.5539,4.5719,4.6344,4.658,4.6491,4.6918,4.7775,4.8371,4.8805,4.888,4.8535,4.8282,4.8042,4.7534,4.7309,4.7309,4.7309,4.7309,4.7309,4.7309,4.7309,4.7309,4.7309,4.7309,4.7309,4.7309,4.7309,4.7309,4.7309,4.7309,4.7309,4.7121,4.6975,4.7121,4.6741,4.5448,4.4549,4.4163,4.317,4.1887,4.1132,4.0465,3.9942,5.4515,5.4025,5.3839,5.3653,5.3534,5.3518,5.3518,5.3518,5.3518,5.3518,5.3518,5.3518,5.3518,5.3518,5.3518,5.3518,5.3348,5.3025,5.199,5.0908,4.997,4.8774,4.7581,4.7309,4.7309,4.6887,4.5869,4.421,4.2412,4.1269,4.0554,3.9788,3.9697,3.9697,3.9697,3.9697,3.9697,3.9697,3.9697,3.9697,3.9697,3.9697,3.9697,3.9697,3.9697,3.9697,3.9697,3.9697,3.9697,3.9697,3.9697,3.9697,3.9697,3.9697,3.9697,3.9697,3.9697,3.9697,3.9697,3.9697,3.9697,3.9749,4.0032,3.9942,4.0465,4.2084,4.2834,4.2655,4.2978,4.4022,4.4886,4.5115,4.5448,4.5913,4.6477,4.6299,4.6151,4.7008,4.7968,4.8401,4.891,4.876,4.8341,4.8102,4.7893,4.7638,4.7399,4.7309,4.7309,4.7309,4.7309,4.7309,4.7309,4.7309,4.7309,4.7309,4.7309,4.7309,4.7309,4.7309,4.7309,4.7309,4.7309,4.7309,4.7266,4.7309,4.7019,4.6121,4.5403,4.5312,4.4256,4.2738,4.1591,4.0831,4.0224,5.4174,5.3518,5.3518,5.3518,5.3518,5.3518,5.3518,5.3518,5.3518,5.3518,5.3518,5.3518,5.3518,5.3518,5.3518,5.3518,5.3518,5.3467,5.2115,5.0908,5.0126,4.8963,4.8088,4.7309,4.7309,4.6931,4.5267,4.3504,4.1936,4.0844,4.0121,3.9749,3.9697,3.9697,3.9697,3.9697,3.9697,3.9697,3.9697,3.9697,3.9697,3.9697,3.9697,3.9697,3.9697,3.9697,3.9697,3.9697,3.9697,3.9697,3.9697,3.9697,3.9697,3.9697,3.9697,3.9697,3.9697,3.9697,3.9697,3.9697,3.9697,3.9749,4.0364,4.0592,4.0032,4.1369,4.2133,4.2035,4.2084,4.2978,4.3882,4.4317,4.4932,4.5448,4.6403,4.6873,4.6785,4.7182,4.7638,4.7773,4.8042,4.8012,4.7743,4.7713,4.7534,4.7519,4.7324,4.7309,4.7309,4.7309,4.7309,4.7309,4.7309,4.7309,4.7309,4.7309,4.7309,4.7309,4.7309,4.7309,4.7309,4.7309,4.7309,4.7309,4.7309,4.7309,4.6873,4.6358,4.6403,4.6403,4.501,4.3395,4.235,4.1455,4.0693,5.4345,5.3701,5.3783,5.3634,5.3534,5.3618,5.3584,5.3501,5.3518,5.3518,5.3518,5.3518,5.3518,5.3518,5.3518,5.3518,5.3518,5.3518,5.2186,5.0871,5.0397,4.9044,4.7961,4.7309,4.7309,4.6594,4.5161,4.3598,4.2133,4.1082,4.0364,3.9839,3.9697,3.9697,3.9697,3.9697,3.9697,3.9697,3.9697,3.9697,3.9697,3.9697,3.9697,3.9697,3.9697,3.9697,3.9697,3.9697,3.9697,3.9697,3.9697,3.9697,3.9697,3.9697,3.9697,3.9697,3.9697,3.9697,3.9697,3.9697,3.9697,3.9929,4.0932,4.0932,4.0224,4.0415,4.1182,4.1455,4.1505,4.2168,4.3074,4.4022,4.4688,4.5448,4.655,4.7266,4.7281,4.7296,4.7339,4.7354,4.7369,4.7399,4.7369,4.7339,4.7324,4.7309,4.7309,4.7309,4.7309,4.7309,4.7309,4.7309,4.7309,4.7309,4.7309,4.7309,4.7309,4.7309,4.7309,4.7309,4.7309,4.7309,4.7309,4.7309,4.7309,4.7309,4.7309,4.7019,4.7121,4.7121,4.5734,4.4195,4.374,4.2738,4.1442,5.5089,5.4437,5.5012,5.4624,5.3701,5.4106,5.4091,5.3568,5.3518,5.3518,5.3518,5.3518,5.3518,5.3518,5.3518,5.3518,5.3467,5.3399,5.215,5.0681,5.0242,4.8938,4.7849,4.7309,4.7309,4.6638,4.5644,4.4442,4.2978,4.1789,4.0693,3.989,3.9749,3.9697,3.9697,3.9697,3.9697,3.9697,3.9697,3.9697,3.9697,3.9697,3.9697,3.9697,3.9697,3.9697,3.9697,3.9697,3.9697,3.9697,3.9697,3.9697,3.9697,3.9697,3.9697,3.9697,3.9697,3.9697,3.9697,3.9697,3.9697,3.9749,4.0313,4.0262,3.9839,3.9839,4.0415,4.0743,4.1132,4.2315,4.3313,4.4503,4.5358,4.6255,4.7266,4.7309,4.7309,4.7324,4.7324,4.7324,4.7324,4.7339,4.7339,4.7324,4.7324,4.7309,4.7309,4.7309,4.7309,4.7309,4.7309,4.7309,4.7309,4.7309,4.7309,4.7309,4.7309,4.7309,4.7309,4.7309,4.7309,4.7309,4.7309,4.7309,4.7309,4.7309,4.7309,4.7309,4.7266,4.7077,4.6107,4.5101,4.4688,4.4022,4.2738]}]]